<?xml version="1.0" encoding="UTF-8" standalone="no" ?>
<gpx xmlns="http://www.topografix.com/GPX/1/1" xmlns:xsi="http://www.w3.org/2001/XMLSchema-instance" xsi:schemaLocation="http://www.topografix.com/GPX/1/1 http://www.topografix.com/GPX/1/1/gpx.xsd" version="1.1" creator="VisuGPX - https://www.visugpx.com">
  <metadata>
    <name>11575631-Clairveaux 88Km</name>
  </metadata>
  <trk>
    <name><![CDATA[11575631-Clairveaux 88Km_1]]></name>
    <extensions>
      <line xmlns="http://www.topografix.com/GPX/gpx_style/0/2">
        <color>0000FF</color>
        <width>4</width>
      </line>
    </extensions>
    <trkseg>
      <trkpt lat="46.49881" lon="5.72654">
        <ele>586</ele>
        <time>2020-07-29T19:20:36Z</time>
        <extensions>
          <visugpx:TrkExtension xmlns:visugpx="https://www.visugpx.com/editgpx/">
            <visugpx:node>1</visugpx:node>
            </visugpx:TrkExtension>
        </extensions>
      </trkpt>
      <trkpt lat="46.49881" lon="5.72647">
        <ele>586</ele>
        <time>2020-07-29T19:20:37Z</time>
      </trkpt>
      <trkpt lat="46.49876" lon="5.72665">
        <ele>586</ele>
        <time>2020-07-29T19:20:39Z</time>
      </trkpt>
      <trkpt lat="46.49868" lon="5.72697">
        <ele>588</ele>
        <time>2020-07-29T19:20:44Z</time>
      </trkpt>
      <trkpt lat="46.49855" lon="5.72728">
        <ele>589</ele>
        <time>2020-07-29T19:20:48Z</time>
      </trkpt>
      <trkpt lat="46.49851" lon="5.72737">
        <ele>589</ele>
        <time>2020-07-29T19:20:49Z</time>
      </trkpt>
      <trkpt lat="46.49845" lon="5.72754">
        <ele>590</ele>
        <time>2020-07-29T19:20:52Z</time>
      </trkpt>
      <trkpt lat="46.49845" lon="5.72757">
        <ele>590</ele>
        <time>2020-07-29T19:20:52Z</time>
      </trkpt>
      <trkpt lat="46.49841" lon="5.72798">
        <ele>590</ele>
        <time>2020-07-29T19:20:57Z</time>
      </trkpt>
      <trkpt lat="46.49844" lon="5.72841">
        <ele>591</ele>
        <time>2020-07-29T19:21:02Z</time>
      </trkpt>
      <trkpt lat="46.49854" lon="5.72884">
        <ele>592</ele>
        <time>2020-07-29T19:21:08Z</time>
      </trkpt>
      <trkpt lat="46.49859" lon="5.72906">
        <ele>592</ele>
        <time>2020-07-29T19:21:11Z</time>
      </trkpt>
      <trkpt lat="46.4986" lon="5.72958">
        <ele>594</ele>
        <time>2020-07-29T19:21:17Z</time>
      </trkpt>
      <trkpt lat="46.49861" lon="5.72998">
        <ele>596</ele>
        <time>2020-07-29T19:21:22Z</time>
      </trkpt>
      <trkpt lat="46.4986" lon="5.73004">
        <ele>596</ele>
        <time>2020-07-29T19:21:23Z</time>
      </trkpt>
      <trkpt lat="46.49853" lon="5.73054">
        <ele>597</ele>
        <time>2020-07-29T19:21:29Z</time>
      </trkpt>
      <trkpt lat="46.49842" lon="5.73096">
        <ele>598</ele>
        <time>2020-07-29T19:21:35Z</time>
      </trkpt>
      <trkpt lat="46.49804" lon="5.73149">
        <ele>597</ele>
        <time>2020-07-29T19:21:44Z</time>
      </trkpt>
      <trkpt lat="46.49765" lon="5.73185">
        <ele>597</ele>
        <time>2020-07-29T19:21:52Z</time>
      </trkpt>
      <trkpt lat="46.49755" lon="5.73201">
        <ele>598</ele>
        <time>2020-07-29T19:21:55Z</time>
      </trkpt>
      <trkpt lat="46.49746" lon="5.73218">
        <ele>598</ele>
        <time>2020-07-29T19:21:57Z</time>
      </trkpt>
      <trkpt lat="46.4973" lon="5.73257">
        <ele>600</ele>
        <time>2020-07-29T19:22:03Z</time>
      </trkpt>
      <trkpt lat="46.49673" lon="5.73373">
        <ele>605</ele>
        <time>2020-07-29T19:22:20Z</time>
      </trkpt>
      <trkpt lat="46.49652" lon="5.734">
        <ele>606</ele>
        <time>2020-07-29T19:22:25Z</time>
      </trkpt>
      <trkpt lat="46.49583" lon="5.73454">
        <ele>609</ele>
        <time>2020-07-29T19:22:39Z</time>
      </trkpt>
      <trkpt lat="46.49567" lon="5.73475">
        <ele>610</ele>
        <time>2020-07-29T19:22:43Z</time>
      </trkpt>
      <trkpt lat="46.49544" lon="5.73585">
        <ele>615</ele>
        <time>2020-07-29T19:22:57Z</time>
      </trkpt>
      <trkpt lat="46.49527" lon="5.73623">
        <ele>619</ele>
        <time>2020-07-29T19:23:03Z</time>
      </trkpt>
      <trkpt lat="46.49473" lon="5.73714">
        <ele>626</ele>
        <time>2020-07-29T19:23:18Z</time>
      </trkpt>
      <trkpt lat="46.49463" lon="5.73738">
        <ele>628</ele>
        <time>2020-07-29T19:23:21Z</time>
      </trkpt>
      <trkpt lat="46.49454" lon="5.73764">
        <ele>628</ele>
        <time>2020-07-29T19:23:25Z</time>
      </trkpt>
      <trkpt lat="46.49448" lon="5.73797">
        <ele>628</ele>
        <time>2020-07-29T19:23:29Z</time>
      </trkpt>
      <trkpt lat="46.49454" lon="5.73836">
        <ele>628</ele>
        <time>2020-07-29T19:23:34Z</time>
      </trkpt>
      <trkpt lat="46.4949" lon="5.74015">
        <ele>635</ele>
        <time>2020-07-29T19:23:57Z</time>
      </trkpt>
      <trkpt lat="46.49491" lon="5.74054">
        <ele>633</ele>
        <time>2020-07-29T19:24:01Z</time>
      </trkpt>
      <trkpt lat="46.49486" lon="5.74087">
        <ele>633</ele>
        <time>2020-07-29T19:24:05Z</time>
      </trkpt>
      <trkpt lat="46.49447" lon="5.74161">
        <ele>634</ele>
        <time>2020-07-29T19:24:17Z</time>
      </trkpt>
      <trkpt lat="46.4943" lon="5.74186">
        <ele>633</ele>
        <time>2020-07-29T19:24:21Z</time>
      </trkpt>
      <trkpt lat="46.49393" lon="5.74214">
        <ele>638</ele>
        <time>2020-07-29T19:24:29Z</time>
      </trkpt>
      <trkpt lat="46.49354" lon="5.74272">
        <ele>642</ele>
        <time>2020-07-29T19:24:39Z</time>
      </trkpt>
      <trkpt lat="46.49335" lon="5.74311">
        <ele>640</ele>
        <time>2020-07-29T19:24:44Z</time>
      </trkpt>
      <trkpt lat="46.49301" lon="5.74363">
        <ele>641</ele>
        <time>2020-07-29T19:24:53Z</time>
      </trkpt>
      <trkpt lat="46.49207" lon="5.74446">
        <ele>646</ele>
        <time>2020-07-29T19:25:13Z</time>
      </trkpt>
      <trkpt lat="46.49201" lon="5.7447">
        <ele>643</ele>
        <time>2020-07-29T19:25:16Z</time>
      </trkpt>
      <trkpt lat="46.492" lon="5.74482">
        <ele>642</ele>
        <time>2020-07-29T19:25:17Z</time>
      </trkpt>
      <trkpt lat="46.49193" lon="5.74511">
        <ele>641</ele>
        <time>2020-07-29T19:25:21Z</time>
      </trkpt>
      <trkpt lat="46.49177" lon="5.74542">
        <ele>643</ele>
        <time>2020-07-29T19:25:26Z</time>
      </trkpt>
      <trkpt lat="46.49147" lon="5.74615">
        <ele>648</ele>
        <time>2020-07-29T19:25:36Z</time>
      </trkpt>
      <trkpt lat="46.49053" lon="5.74741">
        <ele>645</ele>
        <time>2020-07-29T19:25:59Z</time>
      </trkpt>
      <trkpt lat="46.49014" lon="5.74856">
        <ele>635</ele>
        <time>2020-07-29T19:26:15Z</time>
      </trkpt>
      <trkpt lat="46.48988" lon="5.74903">
        <ele>635</ele>
        <time>2020-07-29T19:26:22Z</time>
      </trkpt>
      <trkpt lat="46.48939" lon="5.74961">
        <ele>633</ele>
        <time>2020-07-29T19:26:33Z</time>
      </trkpt>
      <trkpt lat="46.48927" lon="5.74993">
        <ele>631</ele>
        <time>2020-07-29T19:26:38Z</time>
      </trkpt>
      <trkpt lat="46.48922" lon="5.75037">
        <ele>631</ele>
        <time>2020-07-29T19:26:43Z</time>
      </trkpt>
      <trkpt lat="46.48902" lon="5.75124">
        <ele>631</ele>
        <time>2020-07-29T19:26:55Z</time>
      </trkpt>
      <trkpt lat="46.48853" lon="5.75322">
        <ele>638</ele>
        <time>2020-07-29T19:27:20Z</time>
      </trkpt>
      <trkpt lat="46.48787" lon="5.75538">
        <ele>651</ele>
        <time>2020-07-29T19:27:49Z</time>
      </trkpt>
      <trkpt lat="46.48782" lon="5.75571">
        <ele>652</ele>
        <time>2020-07-29T19:27:53Z</time>
      </trkpt>
      <trkpt lat="46.4879" lon="5.75614">
        <ele>653</ele>
        <time>2020-07-29T19:27:59Z</time>
      </trkpt>
      <trkpt lat="46.48806" lon="5.7567">
        <ele>652</ele>
        <time>2020-07-29T19:28:06Z</time>
      </trkpt>
      <trkpt lat="46.48821" lon="5.75699">
        <ele>651</ele>
        <time>2020-07-29T19:28:11Z</time>
      </trkpt>
      <trkpt lat="46.48839" lon="5.75717">
        <ele>651</ele>
        <time>2020-07-29T19:28:15Z</time>
      </trkpt>
      <trkpt lat="46.48891" lon="5.75735">
        <ele>654</ele>
        <time>2020-07-29T19:28:24Z</time>
      </trkpt>
      <trkpt lat="46.48966" lon="5.75793">
        <ele>654</ele>
        <time>2020-07-29T19:28:39Z</time>
      </trkpt>
      <trkpt lat="46.49074" lon="5.75849">
        <ele>660</ele>
        <time>2020-07-29T19:29:00Z</time>
      </trkpt>
      <trkpt lat="46.49083" lon="5.75859">
        <ele>659</ele>
        <time>2020-07-29T19:29:02Z</time>
      </trkpt>
      <trkpt lat="46.49152" lon="5.75988">
        <ele>658</ele>
        <time>2020-07-29T19:29:22Z</time>
      </trkpt>
      <trkpt lat="46.4917" lon="5.76006">
        <ele>659</ele>
        <time>2020-07-29T19:29:26Z</time>
      </trkpt>
      <trkpt lat="46.49242" lon="5.76044">
        <ele>668</ele>
        <time>2020-07-29T19:29:39Z</time>
      </trkpt>
      <trkpt lat="46.49303" lon="5.76092">
        <ele>679</ele>
        <time>2020-07-29T19:29:52Z</time>
      </trkpt>
      <trkpt lat="46.49347" lon="5.76122">
        <ele>685</ele>
        <time>2020-07-29T19:30:00Z</time>
      </trkpt>
      <trkpt lat="46.49387" lon="5.76169">
        <ele>686</ele>
        <time>2020-07-29T19:30:09Z</time>
      </trkpt>
      <trkpt lat="46.49449" lon="5.76237">
        <ele>687</ele>
        <time>2020-07-29T19:30:23Z</time>
      </trkpt>
      <trkpt lat="46.49488" lon="5.7627">
        <ele>691</ele>
        <time>2020-07-29T19:30:31Z</time>
      </trkpt>
      <trkpt lat="46.49492" lon="5.7629">
        <ele>691</ele>
        <time>2020-07-29T19:30:34Z</time>
      </trkpt>
      <trkpt lat="46.49495" lon="5.76367">
        <ele>683</ele>
        <time>2020-07-29T19:30:43Z</time>
      </trkpt>
      <trkpt lat="46.49507" lon="5.76397">
        <ele>682</ele>
        <time>2020-07-29T19:30:47Z</time>
      </trkpt>
      <trkpt lat="46.49607" lon="5.76471">
        <ele>695</ele>
        <time>2020-07-29T19:31:07Z</time>
      </trkpt>
      <trkpt lat="46.49678" lon="5.765">
        <ele>705</ele>
        <time>2020-07-29T19:31:21Z</time>
      </trkpt>
      <trkpt lat="46.49771" lon="5.76593">
        <ele>707</ele>
        <time>2020-07-29T19:31:41Z</time>
      </trkpt>
      <trkpt lat="46.49834" lon="5.76618">
        <ele>720</ele>
        <time>2020-07-29T19:31:52Z</time>
      </trkpt>
      <trkpt lat="46.49856" lon="5.76636">
        <ele>722</ele>
        <time>2020-07-29T19:31:57Z</time>
      </trkpt>
      <trkpt lat="46.49893" lon="5.76685">
        <ele>723</ele>
        <time>2020-07-29T19:32:06Z</time>
      </trkpt>
      <trkpt lat="46.4993" lon="5.76751">
        <ele>721</ele>
        <time>2020-07-29T19:32:16Z</time>
      </trkpt>
      <trkpt lat="46.49956" lon="5.76772">
        <ele>724</ele>
        <time>2020-07-29T19:32:21Z</time>
      </trkpt>
      <trkpt lat="46.49991" lon="5.76773">
        <ele>733</ele>
        <time>2020-07-29T19:32:28Z</time>
      </trkpt>
      <trkpt lat="46.50016" lon="5.76792">
        <ele>736</ele>
        <time>2020-07-29T19:32:33Z</time>
      </trkpt>
      <trkpt lat="46.50051" lon="5.76838">
        <ele>737</ele>
        <time>2020-07-29T19:32:41Z</time>
      </trkpt>
      <trkpt lat="46.50057" lon="5.76868">
        <ele>736</ele>
        <time>2020-07-29T19:32:45Z</time>
      </trkpt>
      <trkpt lat="46.50071" lon="5.76897">
        <ele>735</ele>
        <time>2020-07-29T19:32:49Z</time>
      </trkpt>
      <trkpt lat="46.50093" lon="5.76911">
        <ele>738</ele>
        <time>2020-07-29T19:32:53Z</time>
      </trkpt>
      <trkpt lat="46.50136" lon="5.76962">
        <ele>751</ele>
        <time>2020-07-29T19:33:03Z</time>
      </trkpt>
      <trkpt lat="46.50144" lon="5.76983">
        <ele>751</ele>
        <time>2020-07-29T19:33:06Z</time>
      </trkpt>
      <trkpt lat="46.50134" lon="5.76997">
        <ele>748</ele>
        <time>2020-07-29T19:33:09Z</time>
      </trkpt>
      <trkpt lat="46.50106" lon="5.76997">
        <ele>746</ele>
        <time>2020-07-29T19:33:14Z</time>
      </trkpt>
      <trkpt lat="46.50077" lon="5.76988">
        <ele>742</ele>
        <time>2020-07-29T19:33:19Z</time>
      </trkpt>
      <trkpt lat="46.50037" lon="5.76991">
        <ele>739</ele>
        <time>2020-07-29T19:33:26Z</time>
      </trkpt>
      <trkpt lat="46.50014" lon="5.77005">
        <ele>739</ele>
        <time>2020-07-29T19:33:31Z</time>
      </trkpt>
      <trkpt lat="46.5" lon="5.7705">
        <ele>743</ele>
        <time>2020-07-29T19:33:37Z</time>
      </trkpt>
      <trkpt lat="46.49973" lon="5.77113">
        <ele>745</ele>
        <time>2020-07-29T19:33:46Z</time>
      </trkpt>
      <trkpt lat="46.49923" lon="5.77199">
        <ele>751</ele>
        <time>2020-07-29T19:33:59Z</time>
      </trkpt>
      <trkpt lat="46.49822" lon="5.77323">
        <ele>761</ele>
        <time>2020-07-29T19:34:23Z</time>
      </trkpt>
      <trkpt lat="46.49794" lon="5.77344">
        <ele>762</ele>
        <time>2020-07-29T19:34:29Z</time>
      </trkpt>
      <trkpt lat="46.49738" lon="5.77403">
        <ele>768</ele>
        <time>2020-07-29T19:34:41Z</time>
      </trkpt>
      <trkpt lat="46.49705" lon="5.77413">
        <ele>769</ele>
        <time>2020-07-29T19:34:47Z</time>
      </trkpt>
      <trkpt lat="46.4963" lon="5.77389">
        <ele>758</ele>
        <time>2020-07-29T19:35:01Z</time>
      </trkpt>
      <trkpt lat="46.49594" lon="5.77388">
        <ele>759</ele>
        <time>2020-07-29T19:35:07Z</time>
      </trkpt>
      <trkpt lat="46.49538" lon="5.77418">
        <ele>771</ele>
        <time>2020-07-29T19:35:18Z</time>
      </trkpt>
      <trkpt lat="46.49502" lon="5.77465">
        <ele>773</ele>
        <time>2020-07-29T19:35:26Z</time>
      </trkpt>
      <trkpt lat="46.49485" lon="5.77478">
        <ele>773</ele>
        <time>2020-07-29T19:35:30Z</time>
      </trkpt>
      <trkpt lat="46.49469" lon="5.7748">
        <ele>774</ele>
        <time>2020-07-29T19:35:32Z</time>
      </trkpt>
      <trkpt lat="46.49452" lon="5.77486">
        <ele>775</ele>
        <time>2020-07-29T19:35:36Z</time>
      </trkpt>
      <trkpt lat="46.49446" lon="5.77506">
        <ele>774</ele>
        <time>2020-07-29T19:35:38Z</time>
      </trkpt>
      <trkpt lat="46.49438" lon="5.77549">
        <ele>774</ele>
        <time>2020-07-29T19:35:44Z</time>
      </trkpt>
      <trkpt lat="46.4943" lon="5.7758">
        <ele>774</ele>
        <time>2020-07-29T19:35:48Z</time>
      </trkpt>
      <trkpt lat="46.49421" lon="5.77606">
        <ele>776</ele>
        <time>2020-07-29T19:35:51Z</time>
      </trkpt>
      <trkpt lat="46.49411" lon="5.7762">
        <ele>777</ele>
        <time>2020-07-29T19:35:54Z</time>
      </trkpt>
      <trkpt lat="46.49398" lon="5.77627">
        <ele>777</ele>
        <time>2020-07-29T19:35:56Z</time>
      </trkpt>
      <trkpt lat="46.49387" lon="5.77629">
        <ele>777</ele>
        <time>2020-07-29T19:35:58Z</time>
      </trkpt>
      <trkpt lat="46.49337" lon="5.77614">
        <ele>777</ele>
        <time>2020-07-29T19:36:07Z</time>
      </trkpt>
      <trkpt lat="46.493" lon="5.77617">
        <ele>776</ele>
        <time>2020-07-29T19:36:14Z</time>
      </trkpt>
      <trkpt lat="46.49294" lon="5.77637">
        <ele>776</ele>
        <time>2020-07-29T19:36:17Z</time>
      </trkpt>
      <trkpt lat="46.49294" lon="5.77651">
        <ele>777</ele>
        <time>2020-07-29T19:36:18Z</time>
      </trkpt>
      <trkpt lat="46.49297" lon="5.77662">
        <ele>777</ele>
        <time>2020-07-29T19:36:20Z</time>
      </trkpt>
      <trkpt lat="46.49321" lon="5.77692">
        <ele>781</ele>
        <time>2020-07-29T19:36:25Z</time>
      </trkpt>
      <trkpt lat="46.49352" lon="5.77711">
        <ele>784</ele>
        <time>2020-07-29T19:36:31Z</time>
      </trkpt>
      <trkpt lat="46.49425" lon="5.77779">
        <ele>787</ele>
        <time>2020-07-29T19:36:47Z</time>
      </trkpt>
      <trkpt lat="46.49462" lon="5.77799">
        <ele>788</ele>
        <time>2020-07-29T19:36:54Z</time>
      </trkpt>
      <trkpt lat="46.4948" lon="5.77815">
        <ele>787</ele>
        <time>2020-07-29T19:36:58Z</time>
      </trkpt>
      <trkpt lat="46.4953" lon="5.7793">
        <ele>784</ele>
        <time>2020-07-29T19:37:14Z</time>
      </trkpt>
      <trkpt lat="46.49535" lon="5.77965">
        <ele>784</ele>
        <time>2020-07-29T19:37:19Z</time>
      </trkpt>
      <trkpt lat="46.49518" lon="5.78">
        <ele>785</ele>
        <time>2020-07-29T19:37:24Z</time>
      </trkpt>
      <trkpt lat="46.49496" lon="5.78016">
        <ele>786</ele>
        <time>2020-07-29T19:37:28Z</time>
      </trkpt>
      <trkpt lat="46.49435" lon="5.7804">
        <ele>785</ele>
        <time>2020-07-29T19:37:40Z</time>
      </trkpt>
      <trkpt lat="46.49292" lon="5.78056">
        <ele>785</ele>
        <time>2020-07-29T19:38:05Z</time>
      </trkpt>
      <trkpt lat="46.49224" lon="5.78052">
        <ele>788</ele>
        <time>2020-07-29T19:38:17Z</time>
      </trkpt>
      <trkpt lat="46.49157" lon="5.78058">
        <ele>789</ele>
        <time>2020-07-29T19:38:29Z</time>
      </trkpt>
      <trkpt lat="46.49078" lon="5.78074">
        <ele>789</ele>
        <time>2020-07-29T19:38:43Z</time>
      </trkpt>
      <trkpt lat="46.49011" lon="5.78074">
        <ele>789</ele>
        <time>2020-07-29T19:38:55Z</time>
      </trkpt>
      <trkpt lat="46.48936" lon="5.78071">
        <ele>791</ele>
        <time>2020-07-29T19:39:09Z</time>
      </trkpt>
      <trkpt lat="46.4892" lon="5.78077">
        <ele>791</ele>
        <time>2020-07-29T19:39:11Z</time>
      </trkpt>
      <trkpt lat="46.48902" lon="5.78098">
        <ele>791</ele>
        <time>2020-07-29T19:39:16Z</time>
      </trkpt>
      <trkpt lat="46.48891" lon="5.78115">
        <ele>790</ele>
        <time>2020-07-29T19:39:18Z</time>
      </trkpt>
      <trkpt lat="46.48885" lon="5.78135">
        <ele>790</ele>
        <time>2020-07-29T19:39:21Z</time>
      </trkpt>
      <trkpt lat="46.48881" lon="5.78159">
        <ele>789</ele>
        <time>2020-07-29T19:39:24Z</time>
      </trkpt>
      <trkpt lat="46.48882" lon="5.78179">
        <ele>789</ele>
        <time>2020-07-29T19:39:27Z</time>
      </trkpt>
      <trkpt lat="46.4889" lon="5.78207">
        <ele>790</ele>
        <time>2020-07-29T19:39:30Z</time>
      </trkpt>
      <trkpt lat="46.48905" lon="5.78228">
        <ele>790</ele>
        <time>2020-07-29T19:39:34Z</time>
      </trkpt>
      <trkpt lat="46.49103" lon="5.78413">
        <ele>799</ele>
        <time>2020-07-29T19:40:16Z</time>
      </trkpt>
      <trkpt lat="46.492" lon="5.78483">
        <ele>802</ele>
        <time>2020-07-29T19:40:35Z</time>
      </trkpt>
      <trkpt lat="46.49239" lon="5.78525">
        <ele>803</ele>
        <time>2020-07-29T19:40:44Z</time>
      </trkpt>
      <trkpt lat="46.49245" lon="5.7854">
        <ele>804</ele>
        <time>2020-07-29T19:40:46Z</time>
      </trkpt>
      <trkpt lat="46.49243" lon="5.78571">
        <ele>805</ele>
        <time>2020-07-29T19:40:50Z</time>
      </trkpt>
      <trkpt lat="46.49232" lon="5.7863">
        <ele>804</ele>
        <time>2020-07-29T19:40:57Z</time>
      </trkpt>
      <trkpt lat="46.49236" lon="5.78647">
        <ele>803</ele>
        <time>2020-07-29T19:40:59Z</time>
      </trkpt>
      <trkpt lat="46.4924" lon="5.78681">
        <ele>803</ele>
        <time>2020-07-29T19:41:04Z</time>
      </trkpt>
      <trkpt lat="46.49242" lon="5.78745">
        <ele>802</ele>
        <time>2020-07-29T19:41:12Z</time>
      </trkpt>
      <trkpt lat="46.4924" lon="5.78789">
        <ele>802</ele>
        <time>2020-07-29T19:41:17Z</time>
      </trkpt>
      <trkpt lat="46.49241" lon="5.78814">
        <ele>802</ele>
        <time>2020-07-29T19:41:20Z</time>
      </trkpt>
      <trkpt lat="46.49248" lon="5.78829">
        <ele>802</ele>
        <time>2020-07-29T19:41:22Z</time>
      </trkpt>
      <trkpt lat="46.49272" lon="5.78839">
        <ele>803</ele>
        <time>2020-07-29T19:41:27Z</time>
      </trkpt>
      <trkpt lat="46.49297" lon="5.78844">
        <ele>804</ele>
        <time>2020-07-29T19:41:31Z</time>
      </trkpt>
      <trkpt lat="46.49315" lon="5.78856">
        <ele>804</ele>
        <time>2020-07-29T19:41:35Z</time>
      </trkpt>
      <trkpt lat="46.49352" lon="5.7892">
        <ele>804</ele>
        <time>2020-07-29T19:41:45Z</time>
      </trkpt>
      <trkpt lat="46.49369" lon="5.7897">
        <ele>806</ele>
        <time>2020-07-29T19:41:52Z</time>
      </trkpt>
      <trkpt lat="46.49379" lon="5.79033">
        <ele>805</ele>
        <time>2020-07-29T19:42:00Z</time>
      </trkpt>
      <trkpt lat="46.49374" lon="5.79034">
        <ele>805</ele>
        <time>2020-07-29T19:42:01Z</time>
      </trkpt>
      <trkpt lat="46.49376" lon="5.79055">
        <ele>805</ele>
        <time>2020-07-29T19:42:03Z</time>
      </trkpt>
      <trkpt lat="46.49389" lon="5.79087">
        <ele>804</ele>
        <time>2020-07-29T19:42:08Z</time>
      </trkpt>
      <trkpt lat="46.49429" lon="5.79156">
        <ele>804</ele>
        <time>2020-07-29T19:42:19Z</time>
      </trkpt>
      <trkpt lat="46.49471" lon="5.79204">
        <ele>805</ele>
        <time>2020-07-29T19:42:28Z</time>
      </trkpt>
      <trkpt lat="46.49491" lon="5.79219">
        <ele>806</ele>
        <time>2020-07-29T19:42:32Z</time>
      </trkpt>
      <trkpt lat="46.49534" lon="5.79258">
        <ele>806</ele>
        <time>2020-07-29T19:42:41Z</time>
      </trkpt>
      <trkpt lat="46.49539" lon="5.79275">
        <ele>806</ele>
        <time>2020-07-29T19:42:44Z</time>
      </trkpt>
      <trkpt lat="46.4954" lon="5.7931">
        <ele>806</ele>
        <time>2020-07-29T19:42:48Z</time>
      </trkpt>
      <trkpt lat="46.49508" lon="5.79424">
        <ele>812</ele>
        <time>2020-07-29T19:43:03Z</time>
      </trkpt>
      <trkpt lat="46.49504" lon="5.7946">
        <ele>813</ele>
        <time>2020-07-29T19:43:07Z</time>
      </trkpt>
      <trkpt lat="46.49482" lon="5.79602">
        <ele>813</ele>
        <time>2020-07-29T19:43:25Z</time>
      </trkpt>
      <trkpt lat="46.49469" lon="5.79635">
        <ele>815</ele>
        <time>2020-07-29T19:43:30Z</time>
      </trkpt>
      <trkpt lat="46.49468" lon="5.79652">
        <ele>816</ele>
        <time>2020-07-29T19:43:32Z</time>
      </trkpt>
      <trkpt lat="46.49472" lon="5.79669">
        <ele>816</ele>
        <time>2020-07-29T19:43:34Z</time>
      </trkpt>
      <trkpt lat="46.49501" lon="5.79718">
        <ele>818</ele>
        <time>2020-07-29T19:43:42Z</time>
      </trkpt>
      <trkpt lat="46.49503" lon="5.79723">
        <ele>818</ele>
        <time>2020-07-29T19:43:43Z</time>
      </trkpt>
      <trkpt lat="46.49507" lon="5.79732">
        <ele>818</ele>
        <time>2020-07-29T19:43:44Z</time>
      </trkpt>
      <trkpt lat="46.49505" lon="5.79755">
        <ele>819</ele>
        <time>2020-07-29T19:43:47Z</time>
      </trkpt>
      <trkpt lat="46.49501" lon="5.79771">
        <ele>819</ele>
        <time>2020-07-29T19:43:49Z</time>
      </trkpt>
      <trkpt lat="46.49497" lon="5.79785">
        <ele>818</ele>
        <time>2020-07-29T19:43:51Z</time>
      </trkpt>
      <trkpt lat="46.49506" lon="5.79803">
        <ele>817</ele>
        <time>2020-07-29T19:43:54Z</time>
      </trkpt>
      <trkpt lat="46.49558" lon="5.7986">
        <ele>812</ele>
        <time>2020-07-29T19:44:05Z</time>
      </trkpt>
      <trkpt lat="46.49589" lon="5.79901">
        <ele>809</ele>
        <time>2020-07-29T19:44:13Z</time>
      </trkpt>
      <trkpt lat="46.49604" lon="5.79917">
        <ele>808</ele>
        <time>2020-07-29T19:44:16Z</time>
      </trkpt>
      <trkpt lat="46.49683" lon="5.7998">
        <ele>802</ele>
        <time>2020-07-29T19:44:32Z</time>
      </trkpt>
      <trkpt lat="46.49692" lon="5.79988">
        <ele>801</ele>
        <time>2020-07-29T19:44:34Z</time>
      </trkpt>
      <trkpt lat="46.49697" lon="5.79998">
        <ele>799</ele>
        <time>2020-07-29T19:44:35Z</time>
      </trkpt>
      <trkpt lat="46.49699" lon="5.80007">
        <ele>799</ele>
        <time>2020-07-29T19:44:37Z</time>
      </trkpt>
      <trkpt lat="46.49699" lon="5.80032">
        <ele>797</ele>
        <time>2020-07-29T19:44:40Z</time>
      </trkpt>
      <trkpt lat="46.49691" lon="5.80209">
        <ele>801</ele>
        <time>2020-07-29T19:45:01Z</time>
      </trkpt>
      <trkpt lat="46.4969" lon="5.80231">
        <ele>805</ele>
        <time>2020-07-29T19:45:04Z</time>
      </trkpt>
      <trkpt lat="46.49693" lon="5.80244">
        <ele>807</ele>
        <time>2020-07-29T19:45:06Z</time>
      </trkpt>
      <trkpt lat="46.49698" lon="5.80252">
        <ele>808</ele>
        <time>2020-07-29T19:45:07Z</time>
      </trkpt>
      <trkpt lat="46.49705" lon="5.80259">
        <ele>810</ele>
        <time>2020-07-29T19:45:09Z</time>
      </trkpt>
      <trkpt lat="46.49714" lon="5.80263">
        <ele>811</ele>
        <time>2020-07-29T19:45:10Z</time>
      </trkpt>
      <trkpt lat="46.4974" lon="5.80264">
        <ele>808</ele>
        <time>2020-07-29T19:45:15Z</time>
      </trkpt>
      <trkpt lat="46.49752" lon="5.80266">
        <ele>807</ele>
        <time>2020-07-29T19:45:17Z</time>
      </trkpt>
      <trkpt lat="46.49791" lon="5.80281">
        <ele>808</ele>
        <time>2020-07-29T19:45:24Z</time>
      </trkpt>
      <trkpt lat="46.49816" lon="5.80297">
        <ele>810</ele>
        <time>2020-07-29T19:45:29Z</time>
      </trkpt>
      <trkpt lat="46.49932" lon="5.8036">
        <ele>816</ele>
        <time>2020-07-29T19:45:51Z</time>
      </trkpt>
      <trkpt lat="46.49944" lon="5.80363">
        <ele>817</ele>
        <time>2020-07-29T19:45:53Z</time>
      </trkpt>
      <trkpt lat="46.49956" lon="5.80364">
        <ele>817</ele>
        <time>2020-07-29T19:45:55Z</time>
      </trkpt>
      <trkpt lat="46.49968" lon="5.80363">
        <ele>815</ele>
        <time>2020-07-29T19:45:58Z</time>
      </trkpt>
      <trkpt lat="46.4998" lon="5.80365">
        <ele>815</ele>
        <time>2020-07-29T19:46:00Z</time>
      </trkpt>
      <trkpt lat="46.50057" lon="5.80407">
        <ele>824</ele>
        <time>2020-07-29T19:46:14Z</time>
      </trkpt>
      <trkpt lat="46.50165" lon="5.80492">
        <ele>829</ele>
        <time>2020-07-29T19:46:36Z</time>
      </trkpt>
      <trkpt lat="46.50173" lon="5.80497">
        <ele>828</ele>
        <time>2020-07-29T19:46:38Z</time>
      </trkpt>
      <trkpt lat="46.50223" lon="5.80505">
        <ele>814</ele>
        <time>2020-07-29T19:46:47Z</time>
      </trkpt>
      <trkpt lat="46.50259" lon="5.80518">
        <ele>808</ele>
        <time>2020-07-29T19:46:53Z</time>
      </trkpt>
      <trkpt lat="46.50301" lon="5.80541">
        <ele>809</ele>
        <time>2020-07-29T19:47:01Z</time>
      </trkpt>
      <trkpt lat="46.50327" lon="5.8056">
        <ele>809</ele>
        <time>2020-07-29T19:47:06Z</time>
      </trkpt>
      <trkpt lat="46.50377" lon="5.80585">
        <ele>808</ele>
        <time>2020-07-29T19:47:16Z</time>
      </trkpt>
      <trkpt lat="46.50388" lon="5.80587">
        <ele>808</ele>
        <time>2020-07-29T19:47:18Z</time>
      </trkpt>
      <trkpt lat="46.50433" lon="5.80587">
        <ele>803</ele>
        <time>2020-07-29T19:47:26Z</time>
      </trkpt>
      <trkpt lat="46.50442" lon="5.80592">
        <ele>804</ele>
        <time>2020-07-29T19:47:28Z</time>
      </trkpt>
      <trkpt lat="46.50456" lon="5.80601">
        <ele>805</ele>
        <time>2020-07-29T19:47:30Z</time>
      </trkpt>
      <trkpt lat="46.50472" lon="5.80618">
        <ele>807</ele>
        <time>2020-07-29T19:47:34Z</time>
      </trkpt>
      <trkpt lat="46.50482" lon="5.80633">
        <ele>809</ele>
        <time>2020-07-29T19:47:36Z</time>
      </trkpt>
      <trkpt lat="46.50496" lon="5.80662">
        <ele>814</ele>
        <time>2020-07-29T19:47:41Z</time>
      </trkpt>
      <trkpt lat="46.50502" lon="5.8067">
        <ele>815</ele>
        <time>2020-07-29T19:47:42Z</time>
      </trkpt>
      <trkpt lat="46.50515" lon="5.80679">
        <ele>817</ele>
        <time>2020-07-29T19:47:45Z</time>
      </trkpt>
      <trkpt lat="46.50523" lon="5.80682">
        <ele>817</ele>
        <time>2020-07-29T19:47:46Z</time>
      </trkpt>
      <trkpt lat="46.50547" lon="5.80691">
        <ele>816</ele>
        <time>2020-07-29T19:47:51Z</time>
      </trkpt>
      <trkpt lat="46.50594" lon="5.80703">
        <ele>814</ele>
        <time>2020-07-29T19:47:59Z</time>
      </trkpt>
      <trkpt lat="46.50603" lon="5.80701">
        <ele>813</ele>
        <time>2020-07-29T19:48:01Z</time>
      </trkpt>
      <trkpt lat="46.50635" lon="5.80687">
        <ele>807</ele>
        <time>2020-07-29T19:48:07Z</time>
      </trkpt>
      <trkpt lat="46.5065" lon="5.80676">
        <ele>803</ele>
        <time>2020-07-29T19:48:10Z</time>
      </trkpt>
      <trkpt lat="46.50661" lon="5.8066">
        <ele>800</ele>
        <time>2020-07-29T19:48:12Z</time>
      </trkpt>
      <trkpt lat="46.50677" lon="5.80624">
        <ele>797</ele>
        <time>2020-07-29T19:48:18Z</time>
      </trkpt>
      <trkpt lat="46.5068" lon="5.80609">
        <ele>796</ele>
        <time>2020-07-29T19:48:20Z</time>
      </trkpt>
      <trkpt lat="46.50682" lon="5.80585">
        <ele>795</ele>
        <time>2020-07-29T19:48:23Z</time>
      </trkpt>
      <trkpt lat="46.50684" lon="5.80533">
        <ele>795</ele>
        <time>2020-07-29T19:48:29Z</time>
      </trkpt>
      <trkpt lat="46.50684" lon="5.80523">
        <ele>795</ele>
        <time>2020-07-29T19:48:30Z</time>
      </trkpt>
      <trkpt lat="46.50684" lon="5.80501">
        <ele>796</ele>
        <time>2020-07-29T19:48:33Z</time>
      </trkpt>
      <trkpt lat="46.50679" lon="5.80439">
        <ele>799</ele>
        <time>2020-07-29T19:48:40Z</time>
      </trkpt>
      <trkpt lat="46.50672" lon="5.80418">
        <ele>799</ele>
        <time>2020-07-29T19:48:43Z</time>
      </trkpt>
      <trkpt lat="46.50663" lon="5.80407">
        <ele>799</ele>
        <time>2020-07-29T19:48:45Z</time>
      </trkpt>
      <trkpt lat="46.50626" lon="5.80384">
        <ele>799</ele>
        <time>2020-07-29T19:48:53Z</time>
      </trkpt>
      <trkpt lat="46.50598" lon="5.80362">
        <ele>799</ele>
        <time>2020-07-29T19:48:58Z</time>
      </trkpt>
      <trkpt lat="46.50583" lon="5.80345">
        <ele>800</ele>
        <time>2020-07-29T19:49:02Z</time>
      </trkpt>
      <trkpt lat="46.50567" lon="5.80314">
        <ele>799</ele>
        <time>2020-07-29T19:49:06Z</time>
      </trkpt>
      <trkpt lat="46.50534" lon="5.80271">
        <ele>799</ele>
        <time>2020-07-29T19:49:14Z</time>
      </trkpt>
      <trkpt lat="46.50523" lon="5.80263">
        <ele>799</ele>
        <time>2020-07-29T19:49:16Z</time>
      </trkpt>
      <trkpt lat="46.50485" lon="5.80253">
        <ele>798</ele>
        <time>2020-07-29T19:49:23Z</time>
      </trkpt>
      <trkpt lat="46.50466" lon="5.80239">
        <ele>799</ele>
        <time>2020-07-29T19:49:27Z</time>
      </trkpt>
      <trkpt lat="46.50452" lon="5.80217">
        <ele>799</ele>
        <time>2020-07-29T19:49:31Z</time>
      </trkpt>
      <trkpt lat="46.50439" lon="5.80188">
        <ele>799</ele>
        <time>2020-07-29T19:49:35Z</time>
      </trkpt>
      <trkpt lat="46.50435" lon="5.80175">
        <ele>799</ele>
        <time>2020-07-29T19:49:37Z</time>
      </trkpt>
      <trkpt lat="46.5043" lon="5.80161">
        <ele>799</ele>
        <time>2020-07-29T19:49:39Z</time>
      </trkpt>
      <trkpt lat="46.50425" lon="5.8011">
        <ele>796</ele>
        <time>2020-07-29T19:49:45Z</time>
      </trkpt>
      <trkpt lat="46.5045" lon="5.8003">
        <ele>797</ele>
        <time>2020-07-29T19:49:56Z</time>
      </trkpt>
      <trkpt lat="46.50465" lon="5.80008">
        <ele>799</ele>
        <time>2020-07-29T19:50:00Z</time>
      </trkpt>
      <trkpt lat="46.50477" lon="5.80005">
        <ele>800</ele>
        <time>2020-07-29T19:50:02Z</time>
      </trkpt>
      <trkpt lat="46.50507" lon="5.80013">
        <ele>801</ele>
        <time>2020-07-29T19:50:07Z</time>
      </trkpt>
      <trkpt lat="46.50521" lon="5.79995">
        <ele>803</ele>
        <time>2020-07-29T19:50:10Z</time>
      </trkpt>
      <trkpt lat="46.50527" lon="5.79978">
        <ele>804</ele>
        <time>2020-07-29T19:50:13Z</time>
      </trkpt>
      <trkpt lat="46.50525" lon="5.79958">
        <ele>805</ele>
        <time>2020-07-29T19:50:15Z</time>
      </trkpt>
      <trkpt lat="46.50488" lon="5.79915">
        <ele>805</ele>
        <time>2020-07-29T19:50:24Z</time>
      </trkpt>
      <trkpt lat="46.50449" lon="5.79854">
        <ele>805</ele>
        <time>2020-07-29T19:50:34Z</time>
      </trkpt>
      <trkpt lat="46.50416" lon="5.79785">
        <ele>805</ele>
        <time>2020-07-29T19:50:44Z</time>
      </trkpt>
      <trkpt lat="46.50406" lon="5.79743">
        <ele>805</ele>
        <time>2020-07-29T19:50:50Z</time>
      </trkpt>
      <trkpt lat="46.50392" lon="5.79714">
        <ele>804</ele>
        <time>2020-07-29T19:50:54Z</time>
      </trkpt>
      <trkpt lat="46.5034" lon="5.79638">
        <ele>804</ele>
        <time>2020-07-29T19:51:07Z</time>
      </trkpt>
      <trkpt lat="46.50318" lon="5.79614">
        <ele>803</ele>
        <time>2020-07-29T19:51:12Z</time>
      </trkpt>
      <trkpt lat="46.503" lon="5.79575">
        <ele>801</ele>
        <time>2020-07-29T19:51:18Z</time>
      </trkpt>
      <trkpt lat="46.50288" lon="5.79541">
        <ele>800</ele>
        <time>2020-07-29T19:51:22Z</time>
      </trkpt>
      <trkpt lat="46.5029" lon="5.7952">
        <ele>799</ele>
        <time>2020-07-29T19:51:25Z</time>
      </trkpt>
      <trkpt lat="46.50313" lon="5.79448">
        <ele>798</ele>
        <time>2020-07-29T19:51:35Z</time>
      </trkpt>
      <trkpt lat="46.50329" lon="5.7941">
        <ele>798</ele>
        <time>2020-07-29T19:51:40Z</time>
      </trkpt>
      <trkpt lat="46.5034" lon="5.79385">
        <ele>799</ele>
        <time>2020-07-29T19:51:44Z</time>
      </trkpt>
      <trkpt lat="46.50361" lon="5.79365">
        <ele>800</ele>
        <time>2020-07-29T19:51:48Z</time>
      </trkpt>
      <trkpt lat="46.50384" lon="5.79352">
        <ele>801</ele>
        <time>2020-07-29T19:51:53Z</time>
      </trkpt>
      <trkpt lat="46.50412" lon="5.79349">
        <ele>801</ele>
        <time>2020-07-29T19:51:58Z</time>
      </trkpt>
      <trkpt lat="46.50469" lon="5.79355">
        <ele>804</ele>
        <time>2020-07-29T19:52:08Z</time>
      </trkpt>
      <trkpt lat="46.50481" lon="5.7935">
        <ele>806</ele>
        <time>2020-07-29T19:52:10Z</time>
      </trkpt>
      <trkpt lat="46.50504" lon="5.7934">
        <ele>808</ele>
        <time>2020-07-29T19:52:14Z</time>
      </trkpt>
      <trkpt lat="46.50596" lon="5.79361">
        <ele>810</ele>
        <time>2020-07-29T19:52:31Z</time>
      </trkpt>
      <trkpt lat="46.50669" lon="5.79376">
        <ele>812</ele>
        <time>2020-07-29T19:52:44Z</time>
      </trkpt>
      <trkpt lat="46.50699" lon="5.79372">
        <ele>813</ele>
        <time>2020-07-29T19:52:49Z</time>
      </trkpt>
      <trkpt lat="46.5078" lon="5.79347">
        <ele>815</ele>
        <time>2020-07-29T19:53:04Z</time>
      </trkpt>
      <trkpt lat="46.50783" lon="5.79361">
        <ele>815</ele>
        <time>2020-07-29T19:53:06Z</time>
      </trkpt>
      <trkpt lat="46.50791" lon="5.79375">
        <ele>814</ele>
        <time>2020-07-29T19:53:08Z</time>
      </trkpt>
      <trkpt lat="46.50797" lon="5.79379">
        <ele>814</ele>
        <time>2020-07-29T19:53:09Z</time>
      </trkpt>
      <trkpt lat="46.5081" lon="5.79382">
        <ele>814</ele>
        <time>2020-07-29T19:53:12Z</time>
      </trkpt>
      <trkpt lat="46.50853" lon="5.79379">
        <ele>813</ele>
        <time>2020-07-29T19:53:19Z</time>
      </trkpt>
      <trkpt lat="46.50864" lon="5.79386">
        <ele>813</ele>
        <time>2020-07-29T19:53:21Z</time>
      </trkpt>
      <trkpt lat="46.50908" lon="5.79467">
        <ele>808</ele>
        <time>2020-07-29T19:53:34Z</time>
      </trkpt>
      <trkpt lat="46.50975" lon="5.79579">
        <ele>803</ele>
        <time>2020-07-29T19:53:52Z</time>
      </trkpt>
      <trkpt lat="46.51003" lon="5.79634">
        <ele>800</ele>
        <time>2020-07-29T19:54:01Z</time>
      </trkpt>
      <trkpt lat="46.51022" lon="5.79679">
        <ele>797</ele>
        <time>2020-07-29T19:54:07Z</time>
      </trkpt>
      <trkpt lat="46.51059" lon="5.79727">
        <ele>795</ele>
        <time>2020-07-29T19:54:16Z</time>
      </trkpt>
      <trkpt lat="46.51087" lon="5.79756">
        <ele>794</ele>
        <time>2020-07-29T19:54:22Z</time>
      </trkpt>
      <trkpt lat="46.51112" lon="5.79792">
        <ele>794</ele>
        <time>2020-07-29T19:54:28Z</time>
      </trkpt>
      <trkpt lat="46.5113" lon="5.79834">
        <ele>792</ele>
        <time>2020-07-29T19:54:34Z</time>
      </trkpt>
      <trkpt lat="46.51148" lon="5.799">
        <ele>788</ele>
        <time>2020-07-29T19:54:43Z</time>
      </trkpt>
      <trkpt lat="46.51201" lon="5.80012">
        <ele>787</ele>
        <time>2020-07-29T19:55:00Z</time>
      </trkpt>
      <trkpt lat="46.51223" lon="5.8008">
        <ele>788</ele>
        <time>2020-07-29T19:55:09Z</time>
      </trkpt>
      <trkpt lat="46.51238" lon="5.8017">
        <ele>787</ele>
        <time>2020-07-29T19:55:20Z</time>
      </trkpt>
      <trkpt lat="46.51256" lon="5.80209">
        <ele>787</ele>
        <time>2020-07-29T19:55:26Z</time>
      </trkpt>
      <trkpt lat="46.51291" lon="5.8024">
        <ele>788</ele>
        <time>2020-07-29T19:55:33Z</time>
      </trkpt>
      <trkpt lat="46.51326" lon="5.80261">
        <ele>789</ele>
        <time>2020-07-29T19:55:40Z</time>
      </trkpt>
      <trkpt lat="46.51361" lon="5.80287">
        <ele>793</ele>
        <time>2020-07-29T19:55:47Z</time>
      </trkpt>
      <trkpt lat="46.51379" lon="5.80306">
        <ele>795</ele>
        <time>2020-07-29T19:55:51Z</time>
      </trkpt>
      <trkpt lat="46.51394" lon="5.80334">
        <ele>798</ele>
        <time>2020-07-29T19:55:55Z</time>
      </trkpt>
      <trkpt lat="46.51403" lon="5.80358">
        <ele>797</ele>
        <time>2020-07-29T19:55:59Z</time>
      </trkpt>
      <trkpt lat="46.51429" lon="5.80467">
        <ele>794</ele>
        <time>2020-07-29T19:56:13Z</time>
      </trkpt>
      <trkpt lat="46.51441" lon="5.80488">
        <ele>793</ele>
        <time>2020-07-29T19:56:16Z</time>
      </trkpt>
      <trkpt lat="46.51445" lon="5.80493">
        <ele>793</ele>
        <time>2020-07-29T19:56:17Z</time>
      </trkpt>
      <trkpt lat="46.51457" lon="5.80498">
        <ele>793</ele>
        <time>2020-07-29T19:56:19Z</time>
      </trkpt>
      <trkpt lat="46.51425" lon="5.80643">
        <ele>802</ele>
        <time>2020-07-29T19:56:38Z</time>
      </trkpt>
      <trkpt lat="46.51373" lon="5.80874">
        <ele>807</ele>
        <time>2020-07-29T19:57:08Z</time>
      </trkpt>
      <trkpt lat="46.51368" lon="5.80902">
        <ele>810</ele>
        <time>2020-07-29T19:57:11Z</time>
      </trkpt>
      <trkpt lat="46.51368" lon="5.80922">
        <ele>814</ele>
        <time>2020-07-29T19:57:14Z</time>
      </trkpt>
      <trkpt lat="46.51371" lon="5.80939">
        <ele>818</ele>
        <time>2020-07-29T19:57:16Z</time>
      </trkpt>
      <trkpt lat="46.51384" lon="5.80974">
        <ele>825</ele>
        <time>2020-07-29T19:57:21Z</time>
      </trkpt>
      <trkpt lat="46.51403" lon="5.80999">
        <ele>828</ele>
        <time>2020-07-29T19:57:25Z</time>
      </trkpt>
      <trkpt lat="46.51458" lon="5.81062">
        <ele>835</ele>
        <time>2020-07-29T19:57:38Z</time>
      </trkpt>
      <trkpt lat="46.5149" lon="5.8111">
        <ele>835</ele>
        <time>2020-07-29T19:57:46Z</time>
      </trkpt>
      <trkpt lat="46.51513" lon="5.81163">
        <ele>843</ele>
        <time>2020-07-29T19:57:54Z</time>
      </trkpt>
      <trkpt lat="46.51522" lon="5.81177">
        <ele>846</ele>
        <time>2020-07-29T19:57:56Z</time>
      </trkpt>
      <trkpt lat="46.51574" lon="5.81226">
        <ele>847</ele>
        <time>2020-07-29T19:58:07Z</time>
      </trkpt>
      <trkpt lat="46.51604" lon="5.81261">
        <ele>850</ele>
        <time>2020-07-29T19:58:14Z</time>
      </trkpt>
      <trkpt lat="46.51632" lon="5.81292">
        <ele>853</ele>
        <time>2020-07-29T19:58:20Z</time>
      </trkpt>
      <trkpt lat="46.51666" lon="5.81342">
        <ele>857</ele>
        <time>2020-07-29T19:58:29Z</time>
      </trkpt>
      <trkpt lat="46.51683" lon="5.81354">
        <ele>857</ele>
        <time>2020-07-29T19:58:32Z</time>
      </trkpt>
      <trkpt lat="46.51706" lon="5.81367">
        <ele>857</ele>
        <time>2020-07-29T19:58:36Z</time>
      </trkpt>
      <trkpt lat="46.51727" lon="5.81384">
        <ele>859</ele>
        <time>2020-07-29T19:58:41Z</time>
      </trkpt>
      <trkpt lat="46.51756" lon="5.81413">
        <ele>863</ele>
        <time>2020-07-29T19:58:47Z</time>
      </trkpt>
      <trkpt lat="46.51805" lon="5.81448">
        <ele>861</ele>
        <time>2020-07-29T19:58:57Z</time>
      </trkpt>
      <trkpt lat="46.51842" lon="5.81471">
        <ele>857</ele>
        <time>2020-07-29T19:59:04Z</time>
      </trkpt>
      <trkpt lat="46.51858" lon="5.8149">
        <ele>858</ele>
        <time>2020-07-29T19:59:08Z</time>
      </trkpt>
      <trkpt lat="46.51873" lon="5.81524">
        <ele>862</ele>
        <time>2020-07-29T19:59:12Z</time>
      </trkpt>
      <trkpt lat="46.51881" lon="5.81552">
        <ele>867</ele>
        <time>2020-07-29T19:59:16Z</time>
      </trkpt>
      <trkpt lat="46.51893" lon="5.81573">
        <ele>869</ele>
        <time>2020-07-29T19:59:20Z</time>
      </trkpt>
      <trkpt lat="46.5191" lon="5.81592">
        <ele>867</ele>
        <time>2020-07-29T19:59:23Z</time>
      </trkpt>
      <trkpt lat="46.51933" lon="5.81608">
        <ele>863</ele>
        <time>2020-07-29T19:59:28Z</time>
      </trkpt>
      <trkpt lat="46.51947" lon="5.81621">
        <ele>862</ele>
        <time>2020-07-29T19:59:31Z</time>
      </trkpt>
      <trkpt lat="46.51994" lon="5.81689">
        <ele>868</ele>
        <time>2020-07-29T19:59:43Z</time>
      </trkpt>
      <trkpt lat="46.52042" lon="5.81787">
        <ele>874</ele>
        <time>2020-07-29T19:59:57Z</time>
      </trkpt>
      <trkpt lat="46.52069" lon="5.81853">
        <ele>883</ele>
        <time>2020-07-29T20:00:07Z</time>
      </trkpt>
      <trkpt lat="46.52083" lon="5.81877">
        <ele>886</ele>
        <time>2020-07-29T20:00:11Z</time>
      </trkpt>
      <trkpt lat="46.52095" lon="5.81884">
        <ele>885</ele>
        <time>2020-07-29T20:00:13Z</time>
      </trkpt>
      <trkpt lat="46.52122" lon="5.81885">
        <ele>881</ele>
        <time>2020-07-29T20:00:18Z</time>
      </trkpt>
      <trkpt lat="46.52149" lon="5.81896">
        <ele>881</ele>
        <time>2020-07-29T20:00:23Z</time>
      </trkpt>
      <trkpt lat="46.52178" lon="5.81893">
        <ele>875</ele>
        <time>2020-07-29T20:00:28Z</time>
      </trkpt>
      <trkpt lat="46.52194" lon="5.81896">
        <ele>874</ele>
        <time>2020-07-29T20:00:31Z</time>
      </trkpt>
      <trkpt lat="46.52201" lon="5.81899">
        <ele>874</ele>
        <time>2020-07-29T20:00:32Z</time>
      </trkpt>
      <trkpt lat="46.52222" lon="5.81913">
        <ele>877</ele>
        <time>2020-07-29T20:00:36Z</time>
      </trkpt>
      <trkpt lat="46.52242" lon="5.81935">
        <ele>881</ele>
        <time>2020-07-29T20:00:41Z</time>
      </trkpt>
      <trkpt lat="46.52272" lon="5.81984">
        <ele>891</ele>
        <time>2020-07-29T20:00:49Z</time>
      </trkpt>
      <trkpt lat="46.52281" lon="5.8199">
        <ele>892</ele>
        <time>2020-07-29T20:00:50Z</time>
      </trkpt>
      <trkpt lat="46.52302" lon="5.81989">
        <ele>888</ele>
        <time>2020-07-29T20:00:54Z</time>
      </trkpt>
      <trkpt lat="46.52314" lon="5.81992">
        <ele>887</ele>
        <time>2020-07-29T20:00:56Z</time>
      </trkpt>
      <trkpt lat="46.52325" lon="5.82004">
        <ele>889</ele>
        <time>2020-07-29T20:00:59Z</time>
      </trkpt>
      <trkpt lat="46.5233" lon="5.82025">
        <ele>892</ele>
        <time>2020-07-29T20:01:02Z</time>
      </trkpt>
      <trkpt lat="46.5233" lon="5.82031">
        <ele>893</ele>
        <time>2020-07-29T20:01:02Z</time>
      </trkpt>
      <trkpt lat="46.52326" lon="5.82045">
        <ele>897</ele>
        <time>2020-07-29T20:01:04Z</time>
      </trkpt>
      <trkpt lat="46.52317" lon="5.82053">
        <ele>899</ele>
        <time>2020-07-29T20:01:06Z</time>
      </trkpt>
      <trkpt lat="46.52306" lon="5.82054">
        <ele>901</ele>
        <time>2020-07-29T20:01:08Z</time>
      </trkpt>
      <trkpt lat="46.523" lon="5.82052">
        <ele>901</ele>
        <time>2020-07-29T20:01:09Z</time>
      </trkpt>
      <trkpt lat="46.52285" lon="5.82034">
        <ele>900</ele>
        <time>2020-07-29T20:01:12Z</time>
      </trkpt>
      <trkpt lat="46.52257" lon="5.81991">
        <ele>896</ele>
        <time>2020-07-29T20:01:20Z</time>
      </trkpt>
      <trkpt lat="46.52245" lon="5.81983">
        <ele>895</ele>
        <time>2020-07-29T20:01:22Z</time>
      </trkpt>
      <trkpt lat="46.5223" lon="5.81981">
        <ele>895</ele>
        <time>2020-07-29T20:01:25Z</time>
      </trkpt>
      <trkpt lat="46.52212" lon="5.81987">
        <ele>898</ele>
        <time>2020-07-29T20:01:28Z</time>
      </trkpt>
      <trkpt lat="46.52193" lon="5.82001">
        <ele>903</ele>
        <time>2020-07-29T20:01:32Z</time>
      </trkpt>
      <trkpt lat="46.52175" lon="5.82009">
        <ele>905</ele>
        <time>2020-07-29T20:01:35Z</time>
      </trkpt>
      <trkpt lat="46.52122" lon="5.82017">
        <ele>908</ele>
        <time>2020-07-29T20:01:45Z</time>
      </trkpt>
      <trkpt lat="46.52103" lon="5.82023">
        <ele>910</ele>
        <time>2020-07-29T20:01:48Z</time>
      </trkpt>
      <trkpt lat="46.52049" lon="5.82059">
        <ele>916</ele>
        <time>2020-07-29T20:01:59Z</time>
      </trkpt>
      <trkpt lat="46.52027" lon="5.82067">
        <ele>918</ele>
        <time>2020-07-29T20:02:03Z</time>
      </trkpt>
      <trkpt lat="46.5201" lon="5.82066">
        <ele>918</ele>
        <time>2020-07-29T20:02:06Z</time>
      </trkpt>
      <trkpt lat="46.51915" lon="5.82042">
        <ele>922</ele>
        <time>2020-07-29T20:02:23Z</time>
      </trkpt>
      <trkpt lat="46.51877" lon="5.82037">
        <ele>923</ele>
        <time>2020-07-29T20:02:30Z</time>
      </trkpt>
      <trkpt lat="46.51826" lon="5.82048">
        <ele>926</ele>
        <time>2020-07-29T20:02:39Z</time>
      </trkpt>
      <trkpt lat="46.51805" lon="5.8205">
        <ele>927</ele>
        <time>2020-07-29T20:02:43Z</time>
      </trkpt>
      <trkpt lat="46.51794" lon="5.82047">
        <ele>927</ele>
        <time>2020-07-29T20:02:45Z</time>
      </trkpt>
      <trkpt lat="46.51759" lon="5.82027">
        <ele>927</ele>
        <time>2020-07-29T20:02:51Z</time>
      </trkpt>
      <trkpt lat="46.51744" lon="5.82026">
        <ele>927</ele>
        <time>2020-07-29T20:02:54Z</time>
      </trkpt>
      <trkpt lat="46.51738" lon="5.82028">
        <ele>927</ele>
        <time>2020-07-29T20:02:55Z</time>
      </trkpt>
      <trkpt lat="46.51728" lon="5.82035">
        <ele>928</ele>
        <time>2020-07-29T20:02:57Z</time>
      </trkpt>
      <trkpt lat="46.517" lon="5.82067">
        <ele>932</ele>
        <time>2020-07-29T20:03:03Z</time>
      </trkpt>
      <trkpt lat="46.51682" lon="5.82086">
        <ele>934</ele>
        <time>2020-07-29T20:03:07Z</time>
      </trkpt>
      <trkpt lat="46.51651" lon="5.82104">
        <ele>936</ele>
        <time>2020-07-29T20:03:13Z</time>
      </trkpt>
      <trkpt lat="46.5164" lon="5.82106">
        <ele>937</ele>
        <time>2020-07-29T20:03:15Z</time>
      </trkpt>
      <trkpt lat="46.51608" lon="5.82106">
        <ele>938</ele>
        <time>2020-07-29T20:03:21Z</time>
      </trkpt>
      <trkpt lat="46.51575" lon="5.82103">
        <ele>940</ele>
        <time>2020-07-29T20:03:27Z</time>
      </trkpt>
      <trkpt lat="46.51553" lon="5.82098">
        <ele>944</ele>
        <time>2020-07-29T20:03:31Z</time>
      </trkpt>
      <trkpt lat="46.51543" lon="5.8209">
        <ele>946</ele>
        <time>2020-07-29T20:03:33Z</time>
      </trkpt>
      <trkpt lat="46.51534" lon="5.82071">
        <ele>947</ele>
        <time>2020-07-29T20:03:36Z</time>
      </trkpt>
      <trkpt lat="46.51521" lon="5.81995">
        <ele>945</ele>
        <time>2020-07-29T20:03:45Z</time>
      </trkpt>
      <trkpt lat="46.51513" lon="5.8197">
        <ele>945</ele>
        <time>2020-07-29T20:03:49Z</time>
      </trkpt>
      <trkpt lat="46.51502" lon="5.8195">
        <ele>945</ele>
        <time>2020-07-29T20:03:52Z</time>
      </trkpt>
      <trkpt lat="46.51492" lon="5.81941">
        <ele>946</ele>
        <time>2020-07-29T20:03:54Z</time>
      </trkpt>
      <trkpt lat="46.51473" lon="5.81933">
        <ele>948</ele>
        <time>2020-07-29T20:03:57Z</time>
      </trkpt>
      <trkpt lat="46.51399" lon="5.81907">
        <ele>954</ele>
        <time>2020-07-29T20:04:11Z</time>
      </trkpt>
      <trkpt lat="46.51377" lon="5.81903">
        <ele>956</ele>
        <time>2020-07-29T20:04:15Z</time>
      </trkpt>
      <trkpt lat="46.51361" lon="5.81904">
        <ele>958</ele>
        <time>2020-07-29T20:04:18Z</time>
      </trkpt>
      <trkpt lat="46.51347" lon="5.81907">
        <ele>960</ele>
        <time>2020-07-29T20:04:20Z</time>
      </trkpt>
      <trkpt lat="46.51325" lon="5.8192">
        <ele>962</ele>
        <time>2020-07-29T20:04:24Z</time>
      </trkpt>
      <trkpt lat="46.51311" lon="5.81936">
        <ele>963</ele>
        <time>2020-07-29T20:04:28Z</time>
      </trkpt>
      <trkpt lat="46.51283" lon="5.8198">
        <ele>964</ele>
        <time>2020-07-29T20:04:35Z</time>
      </trkpt>
      <trkpt lat="46.51263" lon="5.82008">
        <ele>964</ele>
        <time>2020-07-29T20:04:40Z</time>
      </trkpt>
      <trkpt lat="46.51252" lon="5.8202">
        <ele>963</ele>
        <time>2020-07-29T20:04:42Z</time>
      </trkpt>
      <trkpt lat="46.51228" lon="5.82036">
        <ele>962</ele>
        <time>2020-07-29T20:04:47Z</time>
      </trkpt>
      <trkpt lat="46.5121" lon="5.82056">
        <ele>961</ele>
        <time>2020-07-29T20:04:51Z</time>
      </trkpt>
      <trkpt lat="46.51204" lon="5.82069">
        <ele>961</ele>
        <time>2020-07-29T20:04:53Z</time>
      </trkpt>
      <trkpt lat="46.51194" lon="5.82102">
        <ele>960</ele>
        <time>2020-07-29T20:04:57Z</time>
      </trkpt>
      <trkpt lat="46.51181" lon="5.82138">
        <ele>961</ele>
        <time>2020-07-29T20:05:02Z</time>
      </trkpt>
      <trkpt lat="46.51176" lon="5.82149">
        <ele>961</ele>
        <time>2020-07-29T20:05:04Z</time>
      </trkpt>
      <trkpt lat="46.51162" lon="5.82169">
        <ele>961</ele>
        <time>2020-07-29T20:05:07Z</time>
      </trkpt>
      <trkpt lat="46.51135" lon="5.82193">
        <ele>961</ele>
        <time>2020-07-29T20:05:13Z</time>
      </trkpt>
      <trkpt lat="46.51107" lon="5.82227">
        <ele>961</ele>
        <time>2020-07-29T20:05:20Z</time>
      </trkpt>
      <trkpt lat="46.51056" lon="5.82269">
        <ele>961</ele>
        <time>2020-07-29T20:05:30Z</time>
      </trkpt>
      <trkpt lat="46.51044" lon="5.82284">
        <ele>961</ele>
        <time>2020-07-29T20:05:33Z</time>
      </trkpt>
      <trkpt lat="46.51028" lon="5.82319">
        <ele>962</ele>
        <time>2020-07-29T20:05:38Z</time>
      </trkpt>
      <trkpt lat="46.51019" lon="5.82352">
        <ele>962</ele>
        <time>2020-07-29T20:05:42Z</time>
      </trkpt>
      <trkpt lat="46.51017" lon="5.82386">
        <ele>963</ele>
        <time>2020-07-29T20:05:47Z</time>
      </trkpt>
      <trkpt lat="46.5102" lon="5.82411">
        <ele>964</ele>
        <time>2020-07-29T20:05:50Z</time>
      </trkpt>
      <trkpt lat="46.51029" lon="5.82434">
        <ele>964</ele>
        <time>2020-07-29T20:05:53Z</time>
      </trkpt>
      <trkpt lat="46.51045" lon="5.8246">
        <ele>965</ele>
        <time>2020-07-29T20:05:57Z</time>
      </trkpt>
      <trkpt lat="46.51056" lon="5.82483">
        <ele>965</ele>
        <time>2020-07-29T20:06:01Z</time>
      </trkpt>
      <trkpt lat="46.51076" lon="5.82556">
        <ele>962</ele>
        <time>2020-07-29T20:06:10Z</time>
      </trkpt>
      <trkpt lat="46.51084" lon="5.82574">
        <ele>961</ele>
        <time>2020-07-29T20:06:13Z</time>
      </trkpt>
      <trkpt lat="46.51097" lon="5.82588">
        <ele>960</ele>
        <time>2020-07-29T20:06:16Z</time>
      </trkpt>
      <trkpt lat="46.51115" lon="5.82596">
        <ele>959</ele>
        <time>2020-07-29T20:06:19Z</time>
      </trkpt>
      <trkpt lat="46.51158" lon="5.82601">
        <ele>959</ele>
        <time>2020-07-29T20:06:27Z</time>
      </trkpt>
      <trkpt lat="46.51187" lon="5.82611">
        <ele>960</ele>
        <time>2020-07-29T20:06:32Z</time>
      </trkpt>
      <trkpt lat="46.51213" lon="5.82627">
        <ele>960</ele>
        <time>2020-07-29T20:06:37Z</time>
      </trkpt>
      <trkpt lat="46.5123" lon="5.82647">
        <ele>960</ele>
        <time>2020-07-29T20:06:41Z</time>
      </trkpt>
      <trkpt lat="46.51248" lon="5.82675">
        <ele>959</ele>
        <time>2020-07-29T20:06:46Z</time>
      </trkpt>
      <trkpt lat="46.51273" lon="5.8273">
        <ele>958</ele>
        <time>2020-07-29T20:06:54Z</time>
      </trkpt>
      <trkpt lat="46.51295" lon="5.82764">
        <ele>959</ele>
        <time>2020-07-29T20:06:59Z</time>
      </trkpt>
      <trkpt lat="46.5131" lon="5.82793">
        <ele>960</ele>
        <time>2020-07-29T20:07:04Z</time>
      </trkpt>
      <trkpt lat="46.51323" lon="5.82832">
        <ele>960</ele>
        <time>2020-07-29T20:07:09Z</time>
      </trkpt>
      <trkpt lat="46.5133" lon="5.82864">
        <ele>959</ele>
        <time>2020-07-29T20:07:13Z</time>
      </trkpt>
      <trkpt lat="46.51331" lon="5.82875">
        <ele>959</ele>
        <time>2020-07-29T20:07:15Z</time>
      </trkpt>
      <trkpt lat="46.5133" lon="5.82898">
        <ele>958</ele>
        <time>2020-07-29T20:07:17Z</time>
      </trkpt>
      <trkpt lat="46.51326" lon="5.82937">
        <ele>957</ele>
        <time>2020-07-29T20:07:22Z</time>
      </trkpt>
      <trkpt lat="46.51325" lon="5.82958">
        <ele>956</ele>
        <time>2020-07-29T20:07:25Z</time>
      </trkpt>
      <trkpt lat="46.5133" lon="5.82985">
        <ele>954</ele>
        <time>2020-07-29T20:07:28Z</time>
      </trkpt>
      <trkpt lat="46.51336" lon="5.83001">
        <ele>953</ele>
        <time>2020-07-29T20:07:31Z</time>
      </trkpt>
      <trkpt lat="46.51345" lon="5.83015">
        <ele>955</ele>
        <time>2020-07-29T20:07:33Z</time>
      </trkpt>
      <trkpt lat="46.51378" lon="5.83044">
        <ele>957</ele>
        <time>2020-07-29T20:07:40Z</time>
      </trkpt>
      <trkpt lat="46.51388" lon="5.83055">
        <ele>957</ele>
        <time>2020-07-29T20:07:42Z</time>
      </trkpt>
      <trkpt lat="46.51396" lon="5.83067">
        <ele>957</ele>
        <time>2020-07-29T20:07:44Z</time>
      </trkpt>
      <trkpt lat="46.51406" lon="5.83089">
        <ele>956</ele>
        <time>2020-07-29T20:07:47Z</time>
      </trkpt>
      <trkpt lat="46.51409" lon="5.83115">
        <ele>955</ele>
        <time>2020-07-29T20:07:50Z</time>
      </trkpt>
      <trkpt lat="46.51408" lon="5.83134">
        <ele>954</ele>
        <time>2020-07-29T20:07:53Z</time>
      </trkpt>
      <trkpt lat="46.51402" lon="5.83169">
        <ele>953</ele>
        <time>2020-07-29T20:07:57Z</time>
      </trkpt>
      <trkpt lat="46.51358" lon="5.83317">
        <ele>950</ele>
        <time>2020-07-29T20:08:17Z</time>
      </trkpt>
      <trkpt lat="46.51333" lon="5.83379">
        <ele>953</ele>
        <time>2020-07-29T20:08:26Z</time>
      </trkpt>
      <trkpt lat="46.51306" lon="5.8342">
        <ele>951</ele>
        <time>2020-07-29T20:08:33Z</time>
      </trkpt>
      <trkpt lat="46.51287" lon="5.83461">
        <ele>950</ele>
        <time>2020-07-29T20:08:39Z</time>
      </trkpt>
      <trkpt lat="46.51272" lon="5.8349">
        <ele>949</ele>
        <time>2020-07-29T20:08:43Z</time>
      </trkpt>
      <trkpt lat="46.5124" lon="5.8353">
        <ele>946</ele>
        <time>2020-07-29T20:08:51Z</time>
      </trkpt>
      <trkpt lat="46.51209" lon="5.83585">
        <ele>943</ele>
        <time>2020-07-29T20:08:59Z</time>
      </trkpt>
      <trkpt lat="46.512" lon="5.83596">
        <ele>942</ele>
        <time>2020-07-29T20:09:02Z</time>
      </trkpt>
      <trkpt lat="46.51162" lon="5.83637">
        <ele>942</ele>
        <time>2020-07-29T20:09:10Z</time>
      </trkpt>
      <trkpt lat="46.51148" lon="5.83657">
        <ele>942</ele>
        <time>2020-07-29T20:09:13Z</time>
      </trkpt>
      <trkpt lat="46.51118" lon="5.8371">
        <ele>936</ele>
        <time>2020-07-29T20:09:22Z</time>
      </trkpt>
      <trkpt lat="46.51112" lon="5.83729">
        <ele>933</ele>
        <time>2020-07-29T20:09:24Z</time>
      </trkpt>
      <trkpt lat="46.51111" lon="5.83739">
        <ele>931</ele>
        <time>2020-07-29T20:09:26Z</time>
      </trkpt>
      <trkpt lat="46.51115" lon="5.83756">
        <ele>929</ele>
        <time>2020-07-29T20:09:28Z</time>
      </trkpt>
      <trkpt lat="46.5112" lon="5.83768">
        <ele>928</ele>
        <time>2020-07-29T20:09:30Z</time>
      </trkpt>
      <trkpt lat="46.51129" lon="5.83779">
        <ele>927</ele>
        <time>2020-07-29T20:09:32Z</time>
      </trkpt>
      <trkpt lat="46.51135" lon="5.83781">
        <ele>927</ele>
        <time>2020-07-29T20:09:33Z</time>
      </trkpt>
      <trkpt lat="46.5117" lon="5.83787">
        <ele>930</ele>
        <time>2020-07-29T20:09:39Z</time>
      </trkpt>
      <trkpt lat="46.51184" lon="5.83799">
        <ele>929</ele>
        <time>2020-07-29T20:09:42Z</time>
      </trkpt>
      <trkpt lat="46.51193" lon="5.83818">
        <ele>927</ele>
        <time>2020-07-29T20:09:45Z</time>
      </trkpt>
      <trkpt lat="46.51194" lon="5.83841">
        <ele>924</ele>
        <time>2020-07-29T20:09:48Z</time>
      </trkpt>
      <trkpt lat="46.51192" lon="5.83855">
        <ele>922</ele>
        <time>2020-07-29T20:09:49Z</time>
      </trkpt>
      <trkpt lat="46.51168" lon="5.83926">
        <ele>913</ele>
        <time>2020-07-29T20:09:59Z</time>
      </trkpt>
      <trkpt lat="46.51162" lon="5.83951">
        <ele>911</ele>
        <time>2020-07-29T20:10:02Z</time>
      </trkpt>
      <trkpt lat="46.51161" lon="5.83965">
        <ele>911</ele>
        <time>2020-07-29T20:10:04Z</time>
      </trkpt>
      <trkpt lat="46.51159" lon="5.83965">
        <ele>911</ele>
        <time>2020-07-29T20:10:04Z</time>
      </trkpt>
      <trkpt lat="46.51155" lon="5.83968">
        <ele>910</ele>
        <time>2020-07-29T20:10:05Z</time>
      </trkpt>
      <trkpt lat="46.51154" lon="5.83974">
        <ele>910</ele>
        <time>2020-07-29T20:10:06Z</time>
      </trkpt>
      <trkpt lat="46.51154" lon="5.83977">
        <ele>910</ele>
        <time>2020-07-29T20:10:06Z</time>
      </trkpt>
      <trkpt lat="46.51155" lon="5.8398">
        <ele>910</ele>
        <time>2020-07-29T20:10:07Z</time>
      </trkpt>
      <trkpt lat="46.51159" lon="5.83983">
        <ele>910</ele>
        <time>2020-07-29T20:10:07Z</time>
      </trkpt>
      <trkpt lat="46.51163" lon="5.83982">
        <ele>910</ele>
        <time>2020-07-29T20:10:08Z</time>
      </trkpt>
      <trkpt lat="46.51166" lon="5.83975">
        <ele>910</ele>
        <time>2020-07-29T20:10:09Z</time>
      </trkpt>
      <trkpt lat="46.51166" lon="5.83974">
        <ele>910</ele>
        <time>2020-07-29T20:10:09Z</time>
      </trkpt>
      <trkpt lat="46.51173" lon="5.83972">
        <ele>910</ele>
        <time>2020-07-29T20:10:11Z</time>
      </trkpt>
      <trkpt lat="46.51183" lon="5.83969">
        <ele>911</ele>
        <time>2020-07-29T20:10:12Z</time>
      </trkpt>
      <trkpt lat="46.51195" lon="5.83963">
        <ele>911</ele>
        <time>2020-07-29T20:10:15Z</time>
      </trkpt>
      <trkpt lat="46.51216" lon="5.83946">
        <ele>913</ele>
        <time>2020-07-29T20:10:19Z</time>
      </trkpt>
      <trkpt lat="46.51222" lon="5.83942">
        <ele>914</ele>
        <time>2020-07-29T20:10:20Z</time>
      </trkpt>
      <trkpt lat="46.51235" lon="5.83939">
        <ele>915</ele>
        <time>2020-07-29T20:10:22Z</time>
      </trkpt>
      <trkpt lat="46.51249" lon="5.83943">
        <ele>915</ele>
        <time>2020-07-29T20:10:25Z</time>
      </trkpt>
      <trkpt lat="46.51258" lon="5.83947">
        <ele>915</ele>
        <time>2020-07-29T20:10:27Z</time>
      </trkpt>
      <trkpt lat="46.51282" lon="5.83958">
        <ele>916</ele>
        <time>2020-07-29T20:10:31Z</time>
      </trkpt>
      <trkpt lat="46.51297" lon="5.83967">
        <ele>917</ele>
        <time>2020-07-29T20:10:34Z</time>
      </trkpt>
      <trkpt lat="46.51307" lon="5.83979">
        <ele>916</ele>
        <time>2020-07-29T20:10:36Z</time>
      </trkpt>
      <trkpt lat="46.51315" lon="5.83994">
        <ele>915</ele>
        <time>2020-07-29T20:10:39Z</time>
      </trkpt>
      <trkpt lat="46.51319" lon="5.8401">
        <ele>914</ele>
        <time>2020-07-29T20:10:41Z</time>
      </trkpt>
      <trkpt lat="46.5132" lon="5.84019">
        <ele>913</ele>
        <time>2020-07-29T20:10:42Z</time>
      </trkpt>
      <trkpt lat="46.5132" lon="5.84025">
        <ele>912</ele>
        <time>2020-07-29T20:10:43Z</time>
      </trkpt>
      <trkpt lat="46.51318" lon="5.84056">
        <ele>909</ele>
        <time>2020-07-29T20:10:46Z</time>
      </trkpt>
      <trkpt lat="46.51319" lon="5.84073">
        <ele>907</ele>
        <time>2020-07-29T20:10:48Z</time>
      </trkpt>
      <trkpt lat="46.51322" lon="5.8408">
        <ele>906</ele>
        <time>2020-07-29T20:10:49Z</time>
      </trkpt>
      <trkpt lat="46.51325" lon="5.84086">
        <ele>906</ele>
        <time>2020-07-29T20:10:50Z</time>
      </trkpt>
      <trkpt lat="46.51329" lon="5.84093">
        <ele>906</ele>
        <time>2020-07-29T20:10:52Z</time>
      </trkpt>
      <trkpt lat="46.51341" lon="5.84103">
        <ele>907</ele>
        <time>2020-07-29T20:10:54Z</time>
      </trkpt>
      <trkpt lat="46.51395" lon="5.84137">
        <ele>914</ele>
        <time>2020-07-29T20:11:04Z</time>
      </trkpt>
      <trkpt lat="46.51417" lon="5.84157">
        <ele>915</ele>
        <time>2020-07-29T20:11:09Z</time>
      </trkpt>
      <trkpt lat="46.51428" lon="5.84165">
        <ele>915</ele>
        <time>2020-07-29T20:11:11Z</time>
      </trkpt>
      <trkpt lat="46.51436" lon="5.8417">
        <ele>915</ele>
        <time>2020-07-29T20:11:13Z</time>
      </trkpt>
      <trkpt lat="46.51463" lon="5.8418">
        <ele>917</ele>
        <time>2020-07-29T20:11:18Z</time>
      </trkpt>
      <trkpt lat="46.51498" lon="5.84184">
        <ele>919</ele>
        <time>2020-07-29T20:11:24Z</time>
      </trkpt>
      <trkpt lat="46.51512" lon="5.84191">
        <ele>918</ele>
        <time>2020-07-29T20:11:27Z</time>
      </trkpt>
      <trkpt lat="46.51545" lon="5.84241">
        <ele>914</ele>
        <time>2020-07-29T20:11:35Z</time>
      </trkpt>
      <trkpt lat="46.51596" lon="5.84282">
        <ele>914</ele>
        <time>2020-07-29T20:11:45Z</time>
      </trkpt>
      <trkpt lat="46.5164" lon="5.84324">
        <ele>912</ele>
        <time>2020-07-29T20:11:55Z</time>
      </trkpt>
      <trkpt lat="46.51675" lon="5.84358">
        <ele>911</ele>
        <time>2020-07-29T20:12:02Z</time>
      </trkpt>
      <trkpt lat="46.51677" lon="5.8436">
        <ele>911</ele>
        <time>2020-07-29T20:12:03Z</time>
      </trkpt>
      <trkpt lat="46.51699" lon="5.84376">
        <ele>912</ele>
        <time>2020-07-29T20:12:07Z</time>
      </trkpt>
      <trkpt lat="46.51725" lon="5.84405">
        <ele>912</ele>
        <time>2020-07-29T20:12:13Z</time>
      </trkpt>
      <trkpt lat="46.51738" lon="5.84447">
        <ele>912</ele>
        <time>2020-07-29T20:12:19Z</time>
      </trkpt>
      <trkpt lat="46.51736" lon="5.84544">
        <ele>911</ele>
        <time>2020-07-29T20:12:31Z</time>
      </trkpt>
      <trkpt lat="46.51725" lon="5.84622">
        <ele>909</ele>
        <time>2020-07-29T20:12:40Z</time>
      </trkpt>
      <trkpt lat="46.51727" lon="5.84671">
        <ele>909</ele>
        <time>2020-07-29T20:12:46Z</time>
      </trkpt>
      <trkpt lat="46.51742" lon="5.84738">
        <ele>908</ele>
        <time>2020-07-29T20:12:55Z</time>
      </trkpt>
      <trkpt lat="46.51767" lon="5.84775">
        <ele>908</ele>
        <time>2020-07-29T20:13:01Z</time>
      </trkpt>
      <trkpt lat="46.51869" lon="5.84869">
        <ele>908</ele>
        <time>2020-07-29T20:13:23Z</time>
      </trkpt>
      <trkpt lat="46.51892" lon="5.84886">
        <ele>907</ele>
        <time>2020-07-29T20:13:27Z</time>
      </trkpt>
      <trkpt lat="46.51905" lon="5.84894">
        <ele>906</ele>
        <time>2020-07-29T20:13:30Z</time>
      </trkpt>
      <trkpt lat="46.51915" lon="5.84899">
        <ele>906</ele>
        <time>2020-07-29T20:13:32Z</time>
      </trkpt>
      <trkpt lat="46.51938" lon="5.84904">
        <ele>907</ele>
        <time>2020-07-29T20:13:36Z</time>
      </trkpt>
      <trkpt lat="46.51954" lon="5.84901">
        <ele>908</ele>
        <time>2020-07-29T20:13:39Z</time>
      </trkpt>
      <trkpt lat="46.51969" lon="5.84894">
        <ele>909</ele>
        <time>2020-07-29T20:13:42Z</time>
      </trkpt>
      <trkpt lat="46.51988" lon="5.84879">
        <ele>912</ele>
        <time>2020-07-29T20:13:45Z</time>
      </trkpt>
      <trkpt lat="46.52006" lon="5.84858">
        <ele>914</ele>
        <time>2020-07-29T20:13:49Z</time>
      </trkpt>
      <trkpt lat="46.52058" lon="5.84771">
        <ele>916</ele>
        <time>2020-07-29T20:14:04Z</time>
      </trkpt>
      <trkpt lat="46.52074" lon="5.84754">
        <ele>916</ele>
        <time>2020-07-29T20:14:07Z</time>
      </trkpt>
      <trkpt lat="46.52079" lon="5.8475">
        <ele>915</ele>
        <time>2020-07-29T20:14:08Z</time>
      </trkpt>
      <trkpt lat="46.52093" lon="5.84741">
        <ele>917</ele>
        <time>2020-07-29T20:14:11Z</time>
      </trkpt>
      <trkpt lat="46.52106" lon="5.84737">
        <ele>918</ele>
        <time>2020-07-29T20:14:13Z</time>
      </trkpt>
      <trkpt lat="46.52121" lon="5.84735">
        <ele>919</ele>
        <time>2020-07-29T20:14:16Z</time>
      </trkpt>
      <trkpt lat="46.52136" lon="5.84739">
        <ele>919</ele>
        <time>2020-07-29T20:14:19Z</time>
      </trkpt>
      <trkpt lat="46.52145" lon="5.84743">
        <ele>919</ele>
        <time>2020-07-29T20:14:20Z</time>
      </trkpt>
      <trkpt lat="46.52158" lon="5.8475">
        <ele>919</ele>
        <time>2020-07-29T20:14:23Z</time>
      </trkpt>
      <trkpt lat="46.52236" lon="5.8479">
        <ele>919</ele>
        <time>2020-07-29T20:14:37Z</time>
      </trkpt>
      <trkpt lat="46.52252" lon="5.84798">
        <ele>919</ele>
        <time>2020-07-29T20:14:40Z</time>
      </trkpt>
      <trkpt lat="46.52261" lon="5.84804">
        <ele>920</ele>
        <time>2020-07-29T20:14:42Z</time>
      </trkpt>
      <trkpt lat="46.52272" lon="5.84813">
        <ele>920</ele>
        <time>2020-07-29T20:14:44Z</time>
      </trkpt>
      <trkpt lat="46.52277" lon="5.8482">
        <ele>920</ele>
        <time>2020-07-29T20:14:46Z</time>
      </trkpt>
      <trkpt lat="46.5228" lon="5.84824">
        <ele>920</ele>
        <time>2020-07-29T20:14:46Z</time>
      </trkpt>
      <trkpt lat="46.52283" lon="5.84832">
        <ele>919</ele>
        <time>2020-07-29T20:14:48Z</time>
      </trkpt>
      <trkpt lat="46.52286" lon="5.8484">
        <ele>919</ele>
        <time>2020-07-29T20:14:49Z</time>
      </trkpt>
      <trkpt lat="46.52287" lon="5.84842">
        <ele>919</ele>
        <time>2020-07-29T20:14:49Z</time>
      </trkpt>
      <trkpt lat="46.52292" lon="5.84831">
        <ele>921</ele>
        <time>2020-07-29T20:14:51Z</time>
      </trkpt>
      <trkpt lat="46.52299" lon="5.84816">
        <ele>924</ele>
        <time>2020-07-29T20:14:53Z</time>
      </trkpt>
      <trkpt lat="46.52305" lon="5.84817">
        <ele>925</ele>
        <time>2020-07-29T20:14:54Z</time>
      </trkpt>
      <trkpt lat="46.52321" lon="5.84831">
        <ele>925</ele>
        <time>2020-07-29T20:14:57Z</time>
      </trkpt>
      <trkpt lat="46.52365" lon="5.84886">
        <ele>923</ele>
        <time>2020-07-29T20:15:08Z</time>
      </trkpt>
      <trkpt lat="46.52375" lon="5.84895">
        <ele>923</ele>
        <time>2020-07-29T20:15:10Z</time>
      </trkpt>
      <trkpt lat="46.52388" lon="5.849">
        <ele>925</ele>
        <time>2020-07-29T20:15:12Z</time>
      </trkpt>
      <trkpt lat="46.52425" lon="5.849">
        <ele>930</ele>
        <time>2020-07-29T20:15:19Z</time>
      </trkpt>
      <trkpt lat="46.52509" lon="5.84894">
        <ele>938</ele>
        <time>2020-07-29T20:15:34Z</time>
      </trkpt>
      <trkpt lat="46.52522" lon="5.84888">
        <ele>940</ele>
        <time>2020-07-29T20:15:36Z</time>
      </trkpt>
      <trkpt lat="46.52547" lon="5.84867">
        <ele>946</ele>
        <time>2020-07-29T20:15:41Z</time>
      </trkpt>
      <trkpt lat="46.52578" lon="5.84825">
        <ele>953</ele>
        <time>2020-07-29T20:15:49Z</time>
      </trkpt>
      <trkpt lat="46.52593" lon="5.84816">
        <ele>954</ele>
        <time>2020-07-29T20:15:52Z</time>
      </trkpt>
      <trkpt lat="46.52606" lon="5.8481">
        <ele>954</ele>
        <time>2020-07-29T20:15:54Z</time>
      </trkpt>
      <trkpt lat="46.52641" lon="5.848">
        <ele>953</ele>
        <time>2020-07-29T20:16:00Z</time>
      </trkpt>
      <trkpt lat="46.5269" lon="5.8479">
        <ele>951</ele>
        <time>2020-07-29T20:16:09Z</time>
      </trkpt>
      <trkpt lat="46.52725" lon="5.84781">
        <ele>951</ele>
        <time>2020-07-29T20:16:15Z</time>
      </trkpt>
      <trkpt lat="46.52749" lon="5.84769">
        <ele>950</ele>
        <time>2020-07-29T20:16:20Z</time>
      </trkpt>
      <trkpt lat="46.52779" lon="5.84739">
        <ele>949</ele>
        <time>2020-07-29T20:16:26Z</time>
      </trkpt>
      <trkpt lat="46.5279" lon="5.84732">
        <ele>950</ele>
        <time>2020-07-29T20:16:29Z</time>
      </trkpt>
      <trkpt lat="46.52799" lon="5.84727">
        <ele>951</ele>
        <time>2020-07-29T20:16:30Z</time>
      </trkpt>
      <trkpt lat="46.52816" lon="5.84725">
        <ele>953</ele>
        <time>2020-07-29T20:16:33Z</time>
      </trkpt>
      <trkpt lat="46.52826" lon="5.84727">
        <ele>953</ele>
        <time>2020-07-29T20:16:35Z</time>
      </trkpt>
      <trkpt lat="46.5295" lon="5.84778">
        <ele>954</ele>
        <time>2020-07-29T20:16:58Z</time>
      </trkpt>
      <trkpt lat="46.52963" lon="5.84787">
        <ele>954</ele>
        <time>2020-07-29T20:17:01Z</time>
      </trkpt>
      <trkpt lat="46.53044" lon="5.84852">
        <ele>954</ele>
        <time>2020-07-29T20:17:17Z</time>
      </trkpt>
      <trkpt lat="46.53146" lon="5.8491">
        <ele>958</ele>
        <time>2020-07-29T20:17:37Z</time>
      </trkpt>
      <trkpt lat="46.53396" lon="5.85056">
        <ele>970</ele>
        <time>2020-07-29T20:18:25Z</time>
      </trkpt>
      <trkpt lat="46.53601" lon="5.85169">
        <ele>981</ele>
        <time>2020-07-29T20:19:04Z</time>
      </trkpt>
      <trkpt lat="46.53758" lon="5.85283">
        <ele>986</ele>
        <time>2020-07-29T20:19:35Z</time>
      </trkpt>
      <trkpt lat="46.53848" lon="5.85326">
        <ele>992</ele>
        <time>2020-07-29T20:19:52Z</time>
      </trkpt>
      <trkpt lat="46.53872" lon="5.85335">
        <ele>994</ele>
        <time>2020-07-29T20:19:56Z</time>
      </trkpt>
      <trkpt lat="46.53884" lon="5.85338">
        <ele>995</ele>
        <time>2020-07-29T20:19:58Z</time>
      </trkpt>
      <trkpt lat="46.53931" lon="5.85342">
        <ele>999</ele>
        <time>2020-07-29T20:20:07Z</time>
      </trkpt>
      <trkpt lat="46.53936" lon="5.85346">
        <ele>1000</ele>
        <time>2020-07-29T20:20:08Z</time>
      </trkpt>
      <trkpt lat="46.53946" lon="5.85362">
        <ele>1000</ele>
        <time>2020-07-29T20:20:10Z</time>
      </trkpt>
      <trkpt lat="46.53957" lon="5.85386">
        <ele>1000</ele>
        <time>2020-07-29T20:20:14Z</time>
      </trkpt>
      <trkpt lat="46.53965" lon="5.85399">
        <ele>1001</ele>
        <time>2020-07-29T20:20:16Z</time>
      </trkpt>
      <trkpt lat="46.53975" lon="5.85406">
        <ele>1002</ele>
        <time>2020-07-29T20:20:18Z</time>
      </trkpt>
      <trkpt lat="46.5401" lon="5.85425">
        <ele>1005</ele>
        <time>2020-07-29T20:20:25Z</time>
      </trkpt>
      <trkpt lat="46.54055" lon="5.8544">
        <ele>1008</ele>
        <time>2020-07-29T20:20:33Z</time>
      </trkpt>
      <trkpt lat="46.54074" lon="5.85449">
        <ele>1010</ele>
        <time>2020-07-29T20:20:36Z</time>
      </trkpt>
      <trkpt lat="46.54097" lon="5.85464">
        <ele>1012</ele>
        <time>2020-07-29T20:20:41Z</time>
      </trkpt>
      <trkpt lat="46.54134" lon="5.85492">
        <ele>1013</ele>
        <time>2020-07-29T20:20:48Z</time>
      </trkpt>
      <trkpt lat="46.5416" lon="5.85501">
        <ele>1014</ele>
        <time>2020-07-29T20:20:53Z</time>
      </trkpt>
      <trkpt lat="46.54185" lon="5.85514">
        <ele>1016</ele>
        <time>2020-07-29T20:20:58Z</time>
      </trkpt>
      <trkpt lat="46.54208" lon="5.85537">
        <ele>1017</ele>
        <time>2020-07-29T20:21:03Z</time>
      </trkpt>
      <trkpt lat="46.54219" lon="5.85543">
        <ele>1018</ele>
        <time>2020-07-29T20:21:05Z</time>
      </trkpt>
      <trkpt lat="46.5423" lon="5.85543">
        <ele>1020</ele>
        <time>2020-07-29T20:21:07Z</time>
      </trkpt>
      <trkpt lat="46.54235" lon="5.85538">
        <ele>1021</ele>
        <time>2020-07-29T20:21:08Z</time>
      </trkpt>
      <trkpt lat="46.5424" lon="5.85525">
        <ele>1022</ele>
        <time>2020-07-29T20:21:10Z</time>
      </trkpt>
      <trkpt lat="46.5424" lon="5.85517">
        <ele>1023</ele>
        <time>2020-07-29T20:21:11Z</time>
      </trkpt>
      <trkpt lat="46.54235" lon="5.85503">
        <ele>1023</ele>
        <time>2020-07-29T20:21:13Z</time>
      </trkpt>
      <trkpt lat="46.54155" lon="5.85412">
        <ele>1022</ele>
        <time>2020-07-29T20:21:31Z</time>
      </trkpt>
      <trkpt lat="46.54146" lon="5.85396">
        <ele>1022</ele>
        <time>2020-07-29T20:21:33Z</time>
      </trkpt>
      <trkpt lat="46.54144" lon="5.85388">
        <ele>1023</ele>
        <time>2020-07-29T20:21:34Z</time>
      </trkpt>
      <trkpt lat="46.54145" lon="5.85378">
        <ele>1024</ele>
        <time>2020-07-29T20:21:35Z</time>
      </trkpt>
      <trkpt lat="46.54153" lon="5.8535">
        <ele>1027</ele>
        <time>2020-07-29T20:21:39Z</time>
      </trkpt>
      <trkpt lat="46.54154" lon="5.85343">
        <ele>1028</ele>
        <time>2020-07-29T20:21:40Z</time>
      </trkpt>
      <trkpt lat="46.54153" lon="5.85335">
        <ele>1029</ele>
        <time>2020-07-29T20:21:41Z</time>
      </trkpt>
      <trkpt lat="46.54149" lon="5.85322">
        <ele>1030</ele>
        <time>2020-07-29T20:21:43Z</time>
      </trkpt>
      <trkpt lat="46.54141" lon="5.85313">
        <ele>1029</ele>
        <time>2020-07-29T20:21:45Z</time>
      </trkpt>
      <trkpt lat="46.54125" lon="5.85308">
        <ele>1027</ele>
        <time>2020-07-29T20:21:47Z</time>
      </trkpt>
      <trkpt lat="46.54109" lon="5.853">
        <ele>1025</ele>
        <time>2020-07-29T20:21:50Z</time>
      </trkpt>
      <trkpt lat="46.54104" lon="5.85295">
        <ele>1025</ele>
        <time>2020-07-29T20:21:52Z</time>
      </trkpt>
      <trkpt lat="46.541" lon="5.85282">
        <ele>1025</ele>
        <time>2020-07-29T20:21:53Z</time>
      </trkpt>
      <trkpt lat="46.54102" lon="5.85265">
        <ele>1027</ele>
        <time>2020-07-29T20:21:55Z</time>
      </trkpt>
      <trkpt lat="46.54119" lon="5.85215">
        <ele>1035</ele>
        <time>2020-07-29T20:22:02Z</time>
      </trkpt>
      <trkpt lat="46.54126" lon="5.85187">
        <ele>1039</ele>
        <time>2020-07-29T20:22:06Z</time>
      </trkpt>
      <trkpt lat="46.54134" lon="5.85126">
        <ele>1042</ele>
        <time>2020-07-29T20:22:13Z</time>
      </trkpt>
      <trkpt lat="46.54139" lon="5.8511">
        <ele>1043</ele>
        <time>2020-07-29T20:22:16Z</time>
      </trkpt>
      <trkpt lat="46.54145" lon="5.85102">
        <ele>1043</ele>
        <time>2020-07-29T20:22:17Z</time>
      </trkpt>
      <trkpt lat="46.5418" lon="5.85071">
        <ele>1042</ele>
        <time>2020-07-29T20:22:24Z</time>
      </trkpt>
      <trkpt lat="46.54188" lon="5.85067">
        <ele>1041</ele>
        <time>2020-07-29T20:22:26Z</time>
      </trkpt>
      <trkpt lat="46.542" lon="5.85065">
        <ele>1040</ele>
        <time>2020-07-29T20:22:28Z</time>
      </trkpt>
      <trkpt lat="46.54208" lon="5.85068">
        <ele>1041</ele>
        <time>2020-07-29T20:22:29Z</time>
      </trkpt>
      <trkpt lat="46.54222" lon="5.85082">
        <ele>1044</ele>
        <time>2020-07-29T20:22:32Z</time>
      </trkpt>
      <trkpt lat="46.54261" lon="5.85112">
        <ele>1047</ele>
        <time>2020-07-29T20:22:40Z</time>
      </trkpt>
      <trkpt lat="46.54287" lon="5.85125">
        <ele>1047</ele>
        <time>2020-07-29T20:22:45Z</time>
      </trkpt>
      <trkpt lat="46.54299" lon="5.85126">
        <ele>1046</ele>
        <time>2020-07-29T20:22:47Z</time>
      </trkpt>
      <trkpt lat="46.54306" lon="5.85124">
        <ele>1046</ele>
        <time>2020-07-29T20:22:49Z</time>
      </trkpt>
      <trkpt lat="46.54311" lon="5.85121">
        <ele>1045</ele>
        <time>2020-07-29T20:22:50Z</time>
      </trkpt>
      <trkpt lat="46.54329" lon="5.85101">
        <ele>1039</ele>
        <time>2020-07-29T20:22:54Z</time>
      </trkpt>
      <trkpt lat="46.54335" lon="5.85097">
        <ele>1038</ele>
        <time>2020-07-29T20:22:55Z</time>
      </trkpt>
      <trkpt lat="46.5435" lon="5.85096">
        <ele>1037</ele>
        <time>2020-07-29T20:22:57Z</time>
      </trkpt>
      <trkpt lat="46.54378" lon="5.85104">
        <ele>1036</ele>
        <time>2020-07-29T20:23:03Z</time>
      </trkpt>
      <trkpt lat="46.54417" lon="5.85123">
        <ele>1040</ele>
        <time>2020-07-29T20:23:10Z</time>
      </trkpt>
      <trkpt lat="46.54459" lon="5.85148">
        <ele>1043</ele>
        <time>2020-07-29T20:23:18Z</time>
      </trkpt>
      <trkpt lat="46.54524" lon="5.85174">
        <ele>1044</ele>
        <time>2020-07-29T20:23:30Z</time>
      </trkpt>
      <trkpt lat="46.54568" lon="5.85163">
        <ele>1037</ele>
        <time>2020-07-29T20:23:38Z</time>
      </trkpt>
      <trkpt lat="46.54581" lon="5.85163">
        <ele>1036</ele>
        <time>2020-07-29T20:23:40Z</time>
      </trkpt>
      <trkpt lat="46.54615" lon="5.85171">
        <ele>1037</ele>
        <time>2020-07-29T20:23:46Z</time>
      </trkpt>
      <trkpt lat="46.54632" lon="5.85171">
        <ele>1037</ele>
        <time>2020-07-29T20:23:49Z</time>
      </trkpt>
      <trkpt lat="46.54646" lon="5.85165">
        <ele>1036</ele>
        <time>2020-07-29T20:23:52Z</time>
      </trkpt>
      <trkpt lat="46.54654" lon="5.85159">
        <ele>1035</ele>
        <time>2020-07-29T20:23:54Z</time>
      </trkpt>
      <trkpt lat="46.54678" lon="5.85132">
        <ele>1032</ele>
        <time>2020-07-29T20:23:59Z</time>
      </trkpt>
      <trkpt lat="46.54701" lon="5.85095">
        <ele>1030</ele>
        <time>2020-07-29T20:24:05Z</time>
      </trkpt>
      <trkpt lat="46.54714" lon="5.85084">
        <ele>1030</ele>
        <time>2020-07-29T20:24:08Z</time>
      </trkpt>
      <trkpt lat="46.54722" lon="5.85081">
        <ele>1030</ele>
        <time>2020-07-29T20:24:09Z</time>
      </trkpt>
      <trkpt lat="46.54767" lon="5.85084">
        <ele>1030</ele>
        <time>2020-07-29T20:24:17Z</time>
      </trkpt>
      <trkpt lat="46.54783" lon="5.85079">
        <ele>1029</ele>
        <time>2020-07-29T20:24:20Z</time>
      </trkpt>
      <trkpt lat="46.54802" lon="5.85069">
        <ele>1029</ele>
        <time>2020-07-29T20:24:24Z</time>
      </trkpt>
      <trkpt lat="46.54833" lon="5.85045">
        <ele>1031</ele>
        <time>2020-07-29T20:24:30Z</time>
      </trkpt>
      <trkpt lat="46.54845" lon="5.85038">
        <ele>1031</ele>
        <time>2020-07-29T20:24:32Z</time>
      </trkpt>
      <trkpt lat="46.54875" lon="5.85029">
        <ele>1030</ele>
        <time>2020-07-29T20:24:38Z</time>
      </trkpt>
      <trkpt lat="46.54913" lon="5.85019">
        <ele>1027</ele>
        <time>2020-07-29T20:24:45Z</time>
      </trkpt>
      <trkpt lat="46.54924" lon="5.85015">
        <ele>1027</ele>
        <time>2020-07-29T20:24:47Z</time>
      </trkpt>
      <trkpt lat="46.54956" lon="5.84997">
        <ele>1028</ele>
        <time>2020-07-29T20:24:53Z</time>
      </trkpt>
      <trkpt lat="46.54969" lon="5.84994">
        <ele>1028</ele>
        <time>2020-07-29T20:24:55Z</time>
      </trkpt>
      <trkpt lat="46.54983" lon="5.84995">
        <ele>1028</ele>
        <time>2020-07-29T20:24:58Z</time>
      </trkpt>
      <trkpt lat="46.55021" lon="5.85005">
        <ele>1031</ele>
        <time>2020-07-29T20:25:04Z</time>
      </trkpt>
      <trkpt lat="46.55048" lon="5.85026">
        <ele>1036</ele>
        <time>2020-07-29T20:25:10Z</time>
      </trkpt>
      <trkpt lat="46.55055" lon="5.85027">
        <ele>1036</ele>
        <time>2020-07-29T20:25:11Z</time>
      </trkpt>
      <trkpt lat="46.5506" lon="5.85026">
        <ele>1037</ele>
        <time>2020-07-29T20:25:12Z</time>
      </trkpt>
      <trkpt lat="46.55066" lon="5.85014">
        <ele>1036</ele>
        <time>2020-07-29T20:25:14Z</time>
      </trkpt>
      <trkpt lat="46.55067" lon="5.85006">
        <ele>1036</ele>
        <time>2020-07-29T20:25:15Z</time>
      </trkpt>
      <trkpt lat="46.55066" lon="5.84999">
        <ele>1035</ele>
        <time>2020-07-29T20:25:16Z</time>
      </trkpt>
      <trkpt lat="46.55058" lon="5.84984">
        <ele>1033</ele>
        <time>2020-07-29T20:25:18Z</time>
      </trkpt>
      <trkpt lat="46.55046" lon="5.84977">
        <ele>1031</ele>
        <time>2020-07-29T20:25:20Z</time>
      </trkpt>
      <trkpt lat="46.54987" lon="5.84954">
        <ele>1024</ele>
        <time>2020-07-29T20:25:31Z</time>
      </trkpt>
      <trkpt lat="46.54965" lon="5.84943">
        <ele>1023</ele>
        <time>2020-07-29T20:25:35Z</time>
      </trkpt>
      <trkpt lat="46.54935" lon="5.8492">
        <ele>1022</ele>
        <time>2020-07-29T20:25:41Z</time>
      </trkpt>
      <trkpt lat="46.5492" lon="5.84894">
        <ele>1020</ele>
        <time>2020-07-29T20:25:46Z</time>
      </trkpt>
      <trkpt lat="46.54906" lon="5.84863">
        <ele>1021</ele>
        <time>2020-07-29T20:25:50Z</time>
      </trkpt>
      <trkpt lat="46.54898" lon="5.8485">
        <ele>1022</ele>
        <time>2020-07-29T20:25:52Z</time>
      </trkpt>
      <trkpt lat="46.54875" lon="5.84824">
        <ele>1028</ele>
        <time>2020-07-29T20:25:57Z</time>
      </trkpt>
      <trkpt lat="46.54874" lon="5.84814">
        <ele>1028</ele>
        <time>2020-07-29T20:25:59Z</time>
      </trkpt>
      <trkpt lat="46.54876" lon="5.84806">
        <ele>1028</ele>
        <time>2020-07-29T20:26:00Z</time>
      </trkpt>
      <trkpt lat="46.54883" lon="5.84798">
        <ele>1027</ele>
        <time>2020-07-29T20:26:01Z</time>
      </trkpt>
      <trkpt lat="46.54889" lon="5.84796">
        <ele>1025</ele>
        <time>2020-07-29T20:26:02Z</time>
      </trkpt>
      <trkpt lat="46.54968" lon="5.84815">
        <ele>1012</ele>
        <time>2020-07-29T20:26:17Z</time>
      </trkpt>
      <trkpt lat="46.5498" lon="5.84814">
        <ele>1011</ele>
        <time>2020-07-29T20:26:19Z</time>
      </trkpt>
      <trkpt lat="46.54992" lon="5.84803">
        <ele>1009</ele>
        <time>2020-07-29T20:26:21Z</time>
      </trkpt>
      <trkpt lat="46.55007" lon="5.84783">
        <ele>1007</ele>
        <time>2020-07-29T20:26:25Z</time>
      </trkpt>
      <trkpt lat="46.55032" lon="5.8476">
        <ele>1003</ele>
        <time>2020-07-29T20:26:30Z</time>
      </trkpt>
      <trkpt lat="46.55056" lon="5.84733">
        <ele>997</ele>
        <time>2020-07-29T20:26:36Z</time>
      </trkpt>
      <trkpt lat="46.55088" lon="5.84687">
        <ele>985</ele>
        <time>2020-07-29T20:26:44Z</time>
      </trkpt>
      <trkpt lat="46.55102" lon="5.84672">
        <ele>982</ele>
        <time>2020-07-29T20:26:47Z</time>
      </trkpt>
      <trkpt lat="46.55109" lon="5.84668">
        <ele>981</ele>
        <time>2020-07-29T20:26:48Z</time>
      </trkpt>
      <trkpt lat="46.55128" lon="5.84664">
        <ele>980</ele>
        <time>2020-07-29T20:26:51Z</time>
      </trkpt>
      <trkpt lat="46.55166" lon="5.84665">
        <ele>980</ele>
        <time>2020-07-29T20:26:58Z</time>
      </trkpt>
      <trkpt lat="46.55201" lon="5.84669">
        <ele>979</ele>
        <time>2020-07-29T20:27:04Z</time>
      </trkpt>
      <trkpt lat="46.55245" lon="5.84668">
        <ele>977</ele>
        <time>2020-07-29T20:27:12Z</time>
      </trkpt>
      <trkpt lat="46.55252" lon="5.84665">
        <ele>977</ele>
        <time>2020-07-29T20:27:14Z</time>
      </trkpt>
      <trkpt lat="46.55259" lon="5.8466">
        <ele>976</ele>
        <time>2020-07-29T20:27:15Z</time>
      </trkpt>
      <trkpt lat="46.55265" lon="5.8465">
        <ele>975</ele>
        <time>2020-07-29T20:27:17Z</time>
      </trkpt>
      <trkpt lat="46.5528" lon="5.84614">
        <ele>972</ele>
        <time>2020-07-29T20:27:22Z</time>
      </trkpt>
      <trkpt lat="46.55301" lon="5.84557">
        <ele>966</ele>
        <time>2020-07-29T20:27:30Z</time>
      </trkpt>
      <trkpt lat="46.55315" lon="5.8453">
        <ele>964</ele>
        <time>2020-07-29T20:27:34Z</time>
      </trkpt>
      <trkpt lat="46.55333" lon="5.84509">
        <ele>962</ele>
        <time>2020-07-29T20:27:38Z</time>
      </trkpt>
      <trkpt lat="46.55346" lon="5.845">
        <ele>960</ele>
        <time>2020-07-29T20:27:40Z</time>
      </trkpt>
      <trkpt lat="46.55361" lon="5.84498">
        <ele>958</ele>
        <time>2020-07-29T20:27:43Z</time>
      </trkpt>
      <trkpt lat="46.5538" lon="5.845">
        <ele>957</ele>
        <time>2020-07-29T20:27:46Z</time>
      </trkpt>
      <trkpt lat="46.55408" lon="5.84513">
        <ele>956</ele>
        <time>2020-07-29T20:27:52Z</time>
      </trkpt>
      <trkpt lat="46.55498" lon="5.84567">
        <ele>960</ele>
        <time>2020-07-29T20:28:09Z</time>
      </trkpt>
      <trkpt lat="46.55534" lon="5.84577">
        <ele>958</ele>
        <time>2020-07-29T20:28:16Z</time>
      </trkpt>
      <trkpt lat="46.55541" lon="5.84571">
        <ele>956</ele>
        <time>2020-07-29T20:28:17Z</time>
      </trkpt>
      <trkpt lat="46.55544" lon="5.84561">
        <ele>954</ele>
        <time>2020-07-29T20:28:18Z</time>
      </trkpt>
      <trkpt lat="46.55543" lon="5.8455">
        <ele>953</ele>
        <time>2020-07-29T20:28:20Z</time>
      </trkpt>
      <trkpt lat="46.55533" lon="5.8454">
        <ele>952</ele>
        <time>2020-07-29T20:28:22Z</time>
      </trkpt>
      <trkpt lat="46.55516" lon="5.84526">
        <ele>952</ele>
        <time>2020-07-29T20:28:25Z</time>
      </trkpt>
      <trkpt lat="46.55454" lon="5.8444">
        <ele>945</ele>
        <time>2020-07-29T20:28:41Z</time>
      </trkpt>
      <trkpt lat="46.55415" lon="5.84406">
        <ele>943</ele>
        <time>2020-07-29T20:28:49Z</time>
      </trkpt>
      <trkpt lat="46.55409" lon="5.84397">
        <ele>943</ele>
        <time>2020-07-29T20:28:50Z</time>
      </trkpt>
      <trkpt lat="46.55404" lon="5.84381">
        <ele>942</ele>
        <time>2020-07-29T20:28:52Z</time>
      </trkpt>
      <trkpt lat="46.55402" lon="5.84367">
        <ele>941</ele>
        <time>2020-07-29T20:28:54Z</time>
      </trkpt>
      <trkpt lat="46.55401" lon="5.84351">
        <ele>940</ele>
        <time>2020-07-29T20:28:56Z</time>
      </trkpt>
      <trkpt lat="46.55404" lon="5.84329">
        <ele>939</ele>
        <time>2020-07-29T20:28:59Z</time>
      </trkpt>
      <trkpt lat="46.5541" lon="5.84311">
        <ele>938</ele>
        <time>2020-07-29T20:29:01Z</time>
      </trkpt>
      <trkpt lat="46.55423" lon="5.84293">
        <ele>936</ele>
        <time>2020-07-29T20:29:04Z</time>
      </trkpt>
      <trkpt lat="46.55451" lon="5.84276">
        <ele>935</ele>
        <time>2020-07-29T20:29:10Z</time>
      </trkpt>
      <trkpt lat="46.55487" lon="5.8425">
        <ele>932</ele>
        <time>2020-07-29T20:29:17Z</time>
      </trkpt>
      <trkpt lat="46.55582" lon="5.84172">
        <ele>925</ele>
        <time>2020-07-29T20:29:36Z</time>
      </trkpt>
      <trkpt lat="46.55607" lon="5.84162">
        <ele>920</ele>
        <time>2020-07-29T20:29:41Z</time>
      </trkpt>
      <trkpt lat="46.55634" lon="5.84158">
        <ele>916</ele>
        <time>2020-07-29T20:29:46Z</time>
      </trkpt>
      <trkpt lat="46.55648" lon="5.84163">
        <ele>914</ele>
        <time>2020-07-29T20:29:48Z</time>
      </trkpt>
      <trkpt lat="46.55672" lon="5.84174">
        <ele>912</ele>
        <time>2020-07-29T20:29:53Z</time>
      </trkpt>
      <trkpt lat="46.55729" lon="5.84209">
        <ele>907</ele>
        <time>2020-07-29T20:30:04Z</time>
      </trkpt>
      <trkpt lat="46.55755" lon="5.84221">
        <ele>906</ele>
        <time>2020-07-29T20:30:09Z</time>
      </trkpt>
      <trkpt lat="46.55818" lon="5.8424">
        <ele>899</ele>
        <time>2020-07-29T20:30:20Z</time>
      </trkpt>
      <trkpt lat="46.55842" lon="5.84254">
        <ele>898</ele>
        <time>2020-07-29T20:30:25Z</time>
      </trkpt>
      <trkpt lat="46.55877" lon="5.84296">
        <ele>904</ele>
        <time>2020-07-29T20:30:33Z</time>
      </trkpt>
      <trkpt lat="46.55891" lon="5.84309">
        <ele>905</ele>
        <time>2020-07-29T20:30:36Z</time>
      </trkpt>
      <trkpt lat="46.5591" lon="5.84313">
        <ele>901</ele>
        <time>2020-07-29T20:30:39Z</time>
      </trkpt>
      <trkpt lat="46.5596" lon="5.8433">
        <ele>899</ele>
        <time>2020-07-29T20:30:48Z</time>
      </trkpt>
      <trkpt lat="46.55985" lon="5.84329">
        <ele>896</ele>
        <time>2020-07-29T20:30:53Z</time>
      </trkpt>
      <trkpt lat="46.56056" lon="5.8431">
        <ele>889</ele>
        <time>2020-07-29T20:31:06Z</time>
      </trkpt>
      <trkpt lat="46.5609" lon="5.84283">
        <ele>883</ele>
        <time>2020-07-29T20:31:13Z</time>
      </trkpt>
      <trkpt lat="46.56124" lon="5.84272">
        <ele>883</ele>
        <time>2020-07-29T20:31:19Z</time>
      </trkpt>
      <trkpt lat="46.56133" lon="5.84264">
        <ele>882</ele>
        <time>2020-07-29T20:31:21Z</time>
      </trkpt>
      <trkpt lat="46.5614" lon="5.84254">
        <ele>880</ele>
        <time>2020-07-29T20:31:22Z</time>
      </trkpt>
      <trkpt lat="46.56146" lon="5.84243">
        <ele>879</ele>
        <time>2020-07-29T20:31:24Z</time>
      </trkpt>
      <trkpt lat="46.56148" lon="5.84229">
        <ele>879</ele>
        <time>2020-07-29T20:31:26Z</time>
      </trkpt>
      <trkpt lat="46.56146" lon="5.84212">
        <ele>878</ele>
        <time>2020-07-29T20:31:28Z</time>
      </trkpt>
      <trkpt lat="46.56142" lon="5.84194">
        <ele>877</ele>
        <time>2020-07-29T20:31:30Z</time>
      </trkpt>
      <trkpt lat="46.56128" lon="5.84176">
        <ele>875</ele>
        <time>2020-07-29T20:31:34Z</time>
      </trkpt>
      <trkpt lat="46.5606" lon="5.84098">
        <ele>868</ele>
        <time>2020-07-29T20:31:49Z</time>
      </trkpt>
      <trkpt lat="46.55952" lon="5.83985">
        <ele>862</ele>
        <time>2020-07-29T20:32:13Z</time>
      </trkpt>
      <trkpt lat="46.55934" lon="5.83976">
        <ele>859</ele>
        <time>2020-07-29T20:32:16Z</time>
      </trkpt>
      <trkpt lat="46.55924" lon="5.83974">
        <ele>858</ele>
        <time>2020-07-29T20:32:18Z</time>
      </trkpt>
      <trkpt lat="46.55876" lon="5.83973">
        <ele>856</ele>
        <time>2020-07-29T20:32:26Z</time>
      </trkpt>
      <trkpt lat="46.55799" lon="5.83977">
        <ele>855</ele>
        <time>2020-07-29T20:32:40Z</time>
      </trkpt>
      <trkpt lat="46.55763" lon="5.83977">
        <ele>855</ele>
        <time>2020-07-29T20:32:47Z</time>
      </trkpt>
      <trkpt lat="46.55752" lon="5.83975">
        <ele>855</ele>
        <time>2020-07-29T20:32:48Z</time>
      </trkpt>
      <trkpt lat="46.55727" lon="5.8396">
        <ele>858</ele>
        <time>2020-07-29T20:32:53Z</time>
      </trkpt>
      <trkpt lat="46.55715" lon="5.83949">
        <ele>859</ele>
        <time>2020-07-29T20:32:56Z</time>
      </trkpt>
      <trkpt lat="46.55708" lon="5.83939">
        <ele>859</ele>
        <time>2020-07-29T20:32:58Z</time>
      </trkpt>
      <trkpt lat="46.55697" lon="5.83916">
        <ele>857</ele>
        <time>2020-07-29T20:33:01Z</time>
      </trkpt>
      <trkpt lat="46.55691" lon="5.83892">
        <ele>856</ele>
        <time>2020-07-29T20:33:04Z</time>
      </trkpt>
      <trkpt lat="46.55692" lon="5.8387">
        <ele>855</ele>
        <time>2020-07-29T20:33:07Z</time>
      </trkpt>
      <trkpt lat="46.55696" lon="5.83857">
        <ele>854</ele>
        <time>2020-07-29T20:33:09Z</time>
      </trkpt>
      <trkpt lat="46.5571" lon="5.8383">
        <ele>852</ele>
        <time>2020-07-29T20:33:13Z</time>
      </trkpt>
      <trkpt lat="46.55819" lon="5.83711">
        <ele>853</ele>
        <time>2020-07-29T20:33:37Z</time>
      </trkpt>
      <trkpt lat="46.55837" lon="5.83697">
        <ele>854</ele>
        <time>2020-07-29T20:33:41Z</time>
      </trkpt>
      <trkpt lat="46.55857" lon="5.8369">
        <ele>853</ele>
        <time>2020-07-29T20:33:44Z</time>
      </trkpt>
      <trkpt lat="46.55868" lon="5.83688">
        <ele>853</ele>
        <time>2020-07-29T20:33:46Z</time>
      </trkpt>
      <trkpt lat="46.55983" lon="5.8369">
        <ele>852</ele>
        <time>2020-07-29T20:34:07Z</time>
      </trkpt>
      <trkpt lat="46.55998" lon="5.83684">
        <ele>850</ele>
        <time>2020-07-29T20:34:09Z</time>
      </trkpt>
      <trkpt lat="46.56017" lon="5.83672">
        <ele>847</ele>
        <time>2020-07-29T20:34:13Z</time>
      </trkpt>
      <trkpt lat="46.56069" lon="5.83622">
        <ele>841</ele>
        <time>2020-07-29T20:34:24Z</time>
      </trkpt>
      <trkpt lat="46.56078" lon="5.83617">
        <ele>840</ele>
        <time>2020-07-29T20:34:26Z</time>
      </trkpt>
      <trkpt lat="46.56087" lon="5.83615">
        <ele>840</ele>
        <time>2020-07-29T20:34:28Z</time>
      </trkpt>
      <trkpt lat="46.56108" lon="5.83618">
        <ele>840</ele>
        <time>2020-07-29T20:34:31Z</time>
      </trkpt>
      <trkpt lat="46.5619" lon="5.83657">
        <ele>838</ele>
        <time>2020-07-29T20:34:47Z</time>
      </trkpt>
      <trkpt lat="46.56205" lon="5.83661">
        <ele>835</ele>
        <time>2020-07-29T20:34:49Z</time>
      </trkpt>
      <trkpt lat="46.56226" lon="5.8366">
        <ele>833</ele>
        <time>2020-07-29T20:34:53Z</time>
      </trkpt>
      <trkpt lat="46.56352" lon="5.83599">
        <ele>822</ele>
        <time>2020-07-29T20:35:17Z</time>
      </trkpt>
      <trkpt lat="46.56419" lon="5.83556">
        <ele>813</ele>
        <time>2020-07-29T20:35:30Z</time>
      </trkpt>
      <trkpt lat="46.56466" lon="5.83522">
        <ele>811</ele>
        <time>2020-07-29T20:35:39Z</time>
      </trkpt>
      <trkpt lat="46.56552" lon="5.83423">
        <ele>809</ele>
        <time>2020-07-29T20:35:59Z</time>
      </trkpt>
      <trkpt lat="46.56641" lon="5.83348">
        <ele>806</ele>
        <time>2020-07-29T20:36:17Z</time>
      </trkpt>
      <trkpt lat="46.56692" lon="5.83311">
        <ele>803</ele>
        <time>2020-07-29T20:36:27Z</time>
      </trkpt>
      <trkpt lat="46.56731" lon="5.83287">
        <ele>800</ele>
        <time>2020-07-29T20:36:35Z</time>
      </trkpt>
      <trkpt lat="46.56746" lon="5.83279">
        <ele>799</ele>
        <time>2020-07-29T20:36:37Z</time>
      </trkpt>
      <trkpt lat="46.56771" lon="5.83272">
        <ele>799</ele>
        <time>2020-07-29T20:36:42Z</time>
      </trkpt>
      <trkpt lat="46.56883" lon="5.83252">
        <ele>795</ele>
        <time>2020-07-29T20:37:02Z</time>
      </trkpt>
      <trkpt lat="46.56913" lon="5.83233">
        <ele>792</ele>
        <time>2020-07-29T20:37:08Z</time>
      </trkpt>
      <trkpt lat="46.5695" lon="5.83216">
        <ele>790</ele>
        <time>2020-07-29T20:37:15Z</time>
      </trkpt>
      <trkpt lat="46.56978" lon="5.83201">
        <ele>788</ele>
        <time>2020-07-29T20:37:20Z</time>
      </trkpt>
      <trkpt lat="46.56997" lon="5.83178">
        <ele>785</ele>
        <time>2020-07-29T20:37:24Z</time>
      </trkpt>
      <trkpt lat="46.5702" lon="5.83146">
        <ele>782</ele>
        <time>2020-07-29T20:37:30Z</time>
      </trkpt>
      <trkpt lat="46.57033" lon="5.83123">
        <ele>781</ele>
        <time>2020-07-29T20:37:34Z</time>
      </trkpt>
      <trkpt lat="46.57048" lon="5.83106">
        <ele>779</ele>
        <time>2020-07-29T20:37:37Z</time>
      </trkpt>
      <trkpt lat="46.57057" lon="5.83087">
        <ele>777</ele>
        <time>2020-07-29T20:37:40Z</time>
      </trkpt>
      <trkpt lat="46.57098" lon="5.83041">
        <ele>775</ele>
        <time>2020-07-29T20:37:49Z</time>
      </trkpt>
      <trkpt lat="46.57108" lon="5.83026">
        <ele>774</ele>
        <time>2020-07-29T20:37:52Z</time>
      </trkpt>
      <trkpt lat="46.57111" lon="5.83018">
        <ele>774</ele>
        <time>2020-07-29T20:37:53Z</time>
      </trkpt>
      <trkpt lat="46.57114" lon="5.8301">
        <ele>773</ele>
        <time>2020-07-29T20:37:54Z</time>
      </trkpt>
      <trkpt lat="46.57117" lon="5.82989">
        <ele>772</ele>
        <time>2020-07-29T20:37:57Z</time>
      </trkpt>
      <trkpt lat="46.57121" lon="5.82968">
        <ele>770</ele>
        <time>2020-07-29T20:37:59Z</time>
      </trkpt>
      <trkpt lat="46.57126" lon="5.82945">
        <ele>769</ele>
        <time>2020-07-29T20:38:02Z</time>
      </trkpt>
      <trkpt lat="46.57127" lon="5.82927">
        <ele>767</ele>
        <time>2020-07-29T20:38:04Z</time>
      </trkpt>
      <trkpt lat="46.5718" lon="5.82915">
        <ele>766</ele>
        <time>2020-07-29T20:38:14Z</time>
      </trkpt>
      <trkpt lat="46.57181" lon="5.82896">
        <ele>765</ele>
        <time>2020-07-29T20:38:16Z</time>
      </trkpt>
      <trkpt lat="46.57181" lon="5.82872">
        <ele>764</ele>
        <time>2020-07-29T20:38:19Z</time>
      </trkpt>
      <trkpt lat="46.57189" lon="5.82865">
        <ele>764</ele>
        <time>2020-07-29T20:38:21Z</time>
      </trkpt>
      <trkpt lat="46.57199" lon="5.8286">
        <ele>764</ele>
        <time>2020-07-29T20:38:23Z</time>
      </trkpt>
      <trkpt lat="46.57281" lon="5.8286">
        <ele>764</ele>
        <time>2020-07-29T20:38:37Z</time>
      </trkpt>
      <trkpt lat="46.57299" lon="5.82843">
        <ele>763</ele>
        <time>2020-07-29T20:38:41Z</time>
      </trkpt>
      <trkpt lat="46.57317" lon="5.82816">
        <ele>762</ele>
        <time>2020-07-29T20:38:46Z</time>
      </trkpt>
      <trkpt lat="46.57355" lon="5.82749">
        <ele>760</ele>
        <time>2020-07-29T20:38:56Z</time>
      </trkpt>
      <trkpt lat="46.57378" lon="5.82707">
        <ele>759</ele>
        <time>2020-07-29T20:39:03Z</time>
      </trkpt>
      <trkpt lat="46.57437" lon="5.82558">
        <ele>756</ele>
        <time>2020-07-29T20:39:24Z</time>
      </trkpt>
      <trkpt lat="46.57445" lon="5.82546">
        <ele>756</ele>
        <time>2020-07-29T20:39:26Z</time>
      </trkpt>
      <trkpt lat="46.57456" lon="5.82533">
        <ele>757</ele>
        <time>2020-07-29T20:39:29Z</time>
      </trkpt>
      <trkpt lat="46.57499" lon="5.82499">
        <ele>757</ele>
        <time>2020-07-29T20:39:37Z</time>
      </trkpt>
      <trkpt lat="46.57543" lon="5.8246">
        <ele>757</ele>
        <time>2020-07-29T20:39:46Z</time>
      </trkpt>
      <trkpt lat="46.57551" lon="5.82448">
        <ele>757</ele>
        <time>2020-07-29T20:39:49Z</time>
      </trkpt>
      <trkpt lat="46.57563" lon="5.82424">
        <ele>757</ele>
        <time>2020-07-29T20:39:52Z</time>
      </trkpt>
      <trkpt lat="46.57574" lon="5.82406">
        <ele>757</ele>
        <time>2020-07-29T20:39:55Z</time>
      </trkpt>
      <trkpt lat="46.57582" lon="5.82398">
        <ele>757</ele>
        <time>2020-07-29T20:39:57Z</time>
      </trkpt>
      <trkpt lat="46.57591" lon="5.82391">
        <ele>757</ele>
        <time>2020-07-29T20:39:59Z</time>
      </trkpt>
      <trkpt lat="46.57618" lon="5.82384">
        <ele>758</ele>
        <time>2020-07-29T20:40:04Z</time>
      </trkpt>
      <trkpt lat="46.57631" lon="5.82377">
        <ele>759</ele>
        <time>2020-07-29T20:40:06Z</time>
      </trkpt>
      <trkpt lat="46.57673" lon="5.82348">
        <ele>762</ele>
        <time>2020-07-29T20:40:14Z</time>
      </trkpt>
      <trkpt lat="46.57687" lon="5.82336">
        <ele>763</ele>
        <time>2020-07-29T20:40:17Z</time>
      </trkpt>
      <trkpt lat="46.57712" lon="5.82301">
        <ele>764</ele>
        <time>2020-07-29T20:40:23Z</time>
      </trkpt>
      <trkpt lat="46.57734" lon="5.8225">
        <ele>764</ele>
        <time>2020-07-29T20:40:31Z</time>
      </trkpt>
      <trkpt lat="46.5774" lon="5.82243">
        <ele>764</ele>
        <time>2020-07-29T20:40:32Z</time>
      </trkpt>
      <trkpt lat="46.57764" lon="5.82224">
        <ele>765</ele>
        <time>2020-07-29T20:40:37Z</time>
      </trkpt>
      <trkpt lat="46.57786" lon="5.82199">
        <ele>765</ele>
        <time>2020-07-29T20:40:42Z</time>
      </trkpt>
      <trkpt lat="46.57793" lon="5.82193">
        <ele>765</ele>
        <time>2020-07-29T20:40:43Z</time>
      </trkpt>
      <trkpt lat="46.57806" lon="5.82192">
        <ele>766</ele>
        <time>2020-07-29T20:40:46Z</time>
      </trkpt>
      <trkpt lat="46.57819" lon="5.82202">
        <ele>767</ele>
        <time>2020-07-29T20:40:48Z</time>
      </trkpt>
      <trkpt lat="46.57831" lon="5.82226">
        <ele>769</ele>
        <time>2020-07-29T20:40:52Z</time>
      </trkpt>
      <trkpt lat="46.57842" lon="5.82243">
        <ele>771</ele>
        <time>2020-07-29T20:40:55Z</time>
      </trkpt>
      <trkpt lat="46.5786" lon="5.82254">
        <ele>772</ele>
        <time>2020-07-29T20:40:58Z</time>
      </trkpt>
      <trkpt lat="46.57868" lon="5.82255">
        <ele>773</ele>
        <time>2020-07-29T20:41:00Z</time>
      </trkpt>
      <trkpt lat="46.57942" lon="5.82239">
        <ele>773</ele>
        <time>2020-07-29T20:41:13Z</time>
      </trkpt>
      <trkpt lat="46.57963" lon="5.82238">
        <ele>771</ele>
        <time>2020-07-29T20:41:17Z</time>
      </trkpt>
      <trkpt lat="46.57969" lon="5.82242">
        <ele>770</ele>
        <time>2020-07-29T20:41:18Z</time>
      </trkpt>
      <trkpt lat="46.57981" lon="5.82254">
        <ele>768</ele>
        <time>2020-07-29T20:41:20Z</time>
      </trkpt>
      <trkpt lat="46.57986" lon="5.82273">
        <ele>767</ele>
        <time>2020-07-29T20:41:23Z</time>
      </trkpt>
      <trkpt lat="46.57988" lon="5.82287">
        <ele>766</ele>
        <time>2020-07-29T20:41:25Z</time>
      </trkpt>
      <trkpt lat="46.57988" lon="5.82323">
        <ele>765</ele>
        <time>2020-07-29T20:41:29Z</time>
      </trkpt>
      <trkpt lat="46.57984" lon="5.82352">
        <ele>764</ele>
        <time>2020-07-29T20:41:33Z</time>
      </trkpt>
      <trkpt lat="46.57979" lon="5.82371">
        <ele>764</ele>
        <time>2020-07-29T20:41:35Z</time>
      </trkpt>
      <trkpt lat="46.57957" lon="5.82424">
        <ele>767</ele>
        <time>2020-07-29T20:41:43Z</time>
      </trkpt>
      <trkpt lat="46.57946" lon="5.82468">
        <ele>767</ele>
        <time>2020-07-29T20:41:49Z</time>
      </trkpt>
      <trkpt lat="46.57927" lon="5.82576">
        <ele>765</ele>
        <time>2020-07-29T20:42:02Z</time>
      </trkpt>
      <trkpt lat="46.57927" lon="5.82606">
        <ele>764</ele>
        <time>2020-07-29T20:42:06Z</time>
      </trkpt>
      <trkpt lat="46.57931" lon="5.82627">
        <ele>763</ele>
        <time>2020-07-29T20:42:08Z</time>
      </trkpt>
      <trkpt lat="46.57942" lon="5.82664">
        <ele>760</ele>
        <time>2020-07-29T20:42:13Z</time>
      </trkpt>
      <trkpt lat="46.57969" lon="5.82741">
        <ele>756</ele>
        <time>2020-07-29T20:42:24Z</time>
      </trkpt>
      <trkpt lat="46.58011" lon="5.82801">
        <ele>756</ele>
        <time>2020-07-29T20:42:34Z</time>
      </trkpt>
      <trkpt lat="46.58017" lon="5.8282">
        <ele>757</ele>
        <time>2020-07-29T20:42:37Z</time>
      </trkpt>
      <trkpt lat="46.58017" lon="5.8284">
        <ele>757</ele>
        <time>2020-07-29T20:42:39Z</time>
      </trkpt>
      <trkpt lat="46.58015" lon="5.8285">
        <ele>757</ele>
        <time>2020-07-29T20:42:41Z</time>
      </trkpt>
      <trkpt lat="46.5799" lon="5.82907">
        <ele>760</ele>
        <time>2020-07-29T20:42:49Z</time>
      </trkpt>
      <trkpt lat="46.57987" lon="5.82927">
        <ele>760</ele>
        <time>2020-07-29T20:42:51Z</time>
      </trkpt>
      <trkpt lat="46.5799" lon="5.82963">
        <ele>759</ele>
        <time>2020-07-29T20:42:56Z</time>
      </trkpt>
      <trkpt lat="46.58002" lon="5.83014">
        <ele>757</ele>
        <time>2020-07-29T20:43:03Z</time>
      </trkpt>
      <trkpt lat="46.58004" lon="5.83027">
        <ele>757</ele>
        <time>2020-07-29T20:43:04Z</time>
      </trkpt>
      <trkpt lat="46.58019" lon="5.83031">
        <ele>756</ele>
        <time>2020-07-29T20:43:07Z</time>
      </trkpt>
      <trkpt lat="46.58027" lon="5.83029">
        <ele>755</ele>
        <time>2020-07-29T20:43:08Z</time>
      </trkpt>
      <trkpt lat="46.58039" lon="5.83019">
        <ele>754</ele>
        <time>2020-07-29T20:43:11Z</time>
      </trkpt>
      <trkpt lat="46.5806" lon="5.82996">
        <ele>752</ele>
        <time>2020-07-29T20:43:15Z</time>
      </trkpt>
      <trkpt lat="46.58078" lon="5.82969">
        <ele>751</ele>
        <time>2020-07-29T20:43:20Z</time>
      </trkpt>
      <trkpt lat="46.58116" lon="5.82895">
        <ele>751</ele>
        <time>2020-07-29T20:43:31Z</time>
      </trkpt>
      <trkpt lat="46.58123" lon="5.82887">
        <ele>751</ele>
        <time>2020-07-29T20:43:33Z</time>
      </trkpt>
      <trkpt lat="46.58142" lon="5.82875">
        <ele>750</ele>
        <time>2020-07-29T20:43:37Z</time>
      </trkpt>
      <trkpt lat="46.58156" lon="5.82871">
        <ele>750</ele>
        <time>2020-07-29T20:43:39Z</time>
      </trkpt>
      <trkpt lat="46.58182" lon="5.82854">
        <ele>749</ele>
        <time>2020-07-29T20:43:44Z</time>
      </trkpt>
      <trkpt lat="46.58266" lon="5.82772">
        <ele>747</ele>
        <time>2020-07-29T20:44:02Z</time>
      </trkpt>
      <trkpt lat="46.58292" lon="5.8274">
        <ele>744</ele>
        <time>2020-07-29T20:44:08Z</time>
      </trkpt>
      <trkpt lat="46.58336" lon="5.82657">
        <ele>741</ele>
        <time>2020-07-29T20:44:21Z</time>
      </trkpt>
      <trkpt lat="46.58362" lon="5.82611">
        <ele>736</ele>
        <time>2020-07-29T20:44:28Z</time>
      </trkpt>
      <trkpt lat="46.58379" lon="5.82592">
        <ele>733</ele>
        <time>2020-07-29T20:44:32Z</time>
      </trkpt>
      <trkpt lat="46.58404" lon="5.82576">
        <ele>730</ele>
        <time>2020-07-29T20:44:37Z</time>
      </trkpt>
      <trkpt lat="46.58411" lon="5.82577">
        <ele>729</ele>
        <time>2020-07-29T20:44:38Z</time>
      </trkpt>
      <trkpt lat="46.58418" lon="5.8258">
        <ele>727</ele>
        <time>2020-07-29T20:44:40Z</time>
      </trkpt>
      <trkpt lat="46.58422" lon="5.82586">
        <ele>725</ele>
        <time>2020-07-29T20:44:41Z</time>
      </trkpt>
      <trkpt lat="46.58424" lon="5.82594">
        <ele>724</ele>
        <time>2020-07-29T20:44:42Z</time>
      </trkpt>
      <trkpt lat="46.58424" lon="5.82608">
        <ele>723</ele>
        <time>2020-07-29T20:44:43Z</time>
      </trkpt>
      <trkpt lat="46.58407" lon="5.82718">
        <ele>721</ele>
        <time>2020-07-29T20:44:57Z</time>
      </trkpt>
      <trkpt lat="46.58406" lon="5.82742">
        <ele>720</ele>
        <time>2020-07-29T20:45:00Z</time>
      </trkpt>
      <trkpt lat="46.58411" lon="5.82773">
        <ele>717</ele>
        <time>2020-07-29T20:45:04Z</time>
      </trkpt>
      <trkpt lat="46.58411" lon="5.82796">
        <ele>715</ele>
        <time>2020-07-29T20:45:07Z</time>
      </trkpt>
      <trkpt lat="46.58408" lon="5.82817">
        <ele>714</ele>
        <time>2020-07-29T20:45:09Z</time>
      </trkpt>
      <trkpt lat="46.584" lon="5.82849">
        <ele>714</ele>
        <time>2020-07-29T20:45:14Z</time>
      </trkpt>
      <trkpt lat="46.58398" lon="5.82864">
        <ele>713</ele>
        <time>2020-07-29T20:45:15Z</time>
      </trkpt>
      <trkpt lat="46.58399" lon="5.8288">
        <ele>711</ele>
        <time>2020-07-29T20:45:17Z</time>
      </trkpt>
      <trkpt lat="46.58409" lon="5.82947">
        <ele>706</ele>
        <time>2020-07-29T20:45:26Z</time>
      </trkpt>
      <trkpt lat="46.58433" lon="5.83037">
        <ele>701</ele>
        <time>2020-07-29T20:45:38Z</time>
      </trkpt>
      <trkpt lat="46.58437" lon="5.83057">
        <ele>701</ele>
        <time>2020-07-29T20:45:40Z</time>
      </trkpt>
      <trkpt lat="46.5844" lon="5.83088">
        <ele>702</ele>
        <time>2020-07-29T20:45:44Z</time>
      </trkpt>
      <trkpt lat="46.58435" lon="5.83152">
        <ele>704</ele>
        <time>2020-07-29T20:45:52Z</time>
      </trkpt>
      <trkpt lat="46.58437" lon="5.83164">
        <ele>704</ele>
        <time>2020-07-29T20:45:53Z</time>
      </trkpt>
      <trkpt lat="46.58446" lon="5.83174">
        <ele>703</ele>
        <time>2020-07-29T20:45:55Z</time>
      </trkpt>
      <trkpt lat="46.58446" lon="5.83183">
        <ele>704</ele>
        <time>2020-07-29T20:45:57Z</time>
      </trkpt>
      <trkpt lat="46.58454" lon="5.83214">
        <ele>704</ele>
        <time>2020-07-29T20:46:01Z</time>
      </trkpt>
      <trkpt lat="46.58462" lon="5.83235">
        <ele>704</ele>
        <time>2020-07-29T20:46:03Z</time>
      </trkpt>
      <trkpt lat="46.58469" lon="5.83248">
        <ele>704</ele>
        <time>2020-07-29T20:46:06Z</time>
      </trkpt>
      <trkpt lat="46.58478" lon="5.83258">
        <ele>703</ele>
        <time>2020-07-29T20:46:08Z</time>
      </trkpt>
      <trkpt lat="46.58485" lon="5.83263">
        <ele>703</ele>
        <time>2020-07-29T20:46:09Z</time>
      </trkpt>
      <trkpt lat="46.58503" lon="5.83266">
        <ele>700</ele>
        <time>2020-07-29T20:46:12Z</time>
      </trkpt>
      <trkpt lat="46.58513" lon="5.83264">
        <ele>701</ele>
        <time>2020-07-29T20:46:14Z</time>
      </trkpt>
      <trkpt lat="46.5856" lon="5.8324">
        <ele>702</ele>
        <time>2020-07-29T20:46:23Z</time>
      </trkpt>
      <trkpt lat="46.58597" lon="5.83184">
        <ele>699</ele>
        <time>2020-07-29T20:46:32Z</time>
      </trkpt>
      <trkpt lat="46.58642" lon="5.83102">
        <ele>699</ele>
        <time>2020-07-29T20:46:45Z</time>
      </trkpt>
      <trkpt lat="46.58654" lon="5.83094">
        <ele>701</ele>
        <time>2020-07-29T20:46:47Z</time>
      </trkpt>
      <trkpt lat="46.58657" lon="5.83088">
        <ele>701</ele>
        <time>2020-07-29T20:46:48Z</time>
      </trkpt>
      <trkpt lat="46.58667" lon="5.83057">
        <ele>700</ele>
        <time>2020-07-29T20:46:53Z</time>
      </trkpt>
      <trkpt lat="46.58671" lon="5.83053">
        <ele>701</ele>
        <time>2020-07-29T20:46:53Z</time>
      </trkpt>
      <trkpt lat="46.58687" lon="5.83033">
        <ele>702</ele>
        <time>2020-07-29T20:46:57Z</time>
      </trkpt>
      <trkpt lat="46.58693" lon="5.83004">
        <ele>702</ele>
        <time>2020-07-29T20:47:01Z</time>
      </trkpt>
      <trkpt lat="46.58696" lon="5.82947">
        <ele>696</ele>
        <time>2020-07-29T20:47:08Z</time>
      </trkpt>
      <trkpt lat="46.58716" lon="5.82894">
        <ele>694</ele>
        <time>2020-07-29T20:47:15Z</time>
      </trkpt>
      <trkpt lat="46.5876" lon="5.82817">
        <ele>691</ele>
        <time>2020-07-29T20:47:28Z</time>
      </trkpt>
      <trkpt lat="46.588" lon="5.82776">
        <ele>691</ele>
        <time>2020-07-29T20:47:36Z</time>
      </trkpt>
      <trkpt lat="46.58837" lon="5.82764">
        <ele>693</ele>
        <time>2020-07-29T20:47:43Z</time>
      </trkpt>
      <trkpt lat="46.58849" lon="5.82748">
        <ele>692</ele>
        <time>2020-07-29T20:47:46Z</time>
      </trkpt>
      <trkpt lat="46.5888" lon="5.82713">
        <ele>692</ele>
        <time>2020-07-29T20:47:53Z</time>
      </trkpt>
      <trkpt lat="46.58898" lon="5.8266">
        <ele>684</ele>
        <time>2020-07-29T20:48:00Z</time>
      </trkpt>
      <trkpt lat="46.58922" lon="5.82579">
        <ele>679</ele>
        <time>2020-07-29T20:48:11Z</time>
      </trkpt>
      <trkpt lat="46.58944" lon="5.82545">
        <ele>680</ele>
        <time>2020-07-29T20:48:17Z</time>
      </trkpt>
      <trkpt lat="46.58955" lon="5.82538">
        <ele>680</ele>
        <time>2020-07-29T20:48:19Z</time>
      </trkpt>
      <trkpt lat="46.5898" lon="5.82513">
        <ele>680</ele>
        <time>2020-07-29T20:48:24Z</time>
      </trkpt>
      <trkpt lat="46.58987" lon="5.82505">
        <ele>679</ele>
        <time>2020-07-29T20:48:26Z</time>
      </trkpt>
      <trkpt lat="46.5899" lon="5.82501">
        <ele>679</ele>
        <time>2020-07-29T20:48:26Z</time>
      </trkpt>
      <trkpt lat="46.58997" lon="5.82491">
        <ele>678</ele>
        <time>2020-07-29T20:48:28Z</time>
      </trkpt>
      <trkpt lat="46.59036" lon="5.82438">
        <ele>679</ele>
        <time>2020-07-29T20:48:38Z</time>
      </trkpt>
      <trkpt lat="46.59081" lon="5.82413">
        <ele>679</ele>
        <time>2020-07-29T20:48:46Z</time>
      </trkpt>
      <trkpt lat="46.59116" lon="5.82389">
        <ele>679</ele>
        <time>2020-07-29T20:48:53Z</time>
      </trkpt>
      <trkpt lat="46.59127" lon="5.82385">
        <ele>679</ele>
        <time>2020-07-29T20:48:55Z</time>
      </trkpt>
      <trkpt lat="46.59131" lon="5.82386">
        <ele>679</ele>
        <time>2020-07-29T20:48:56Z</time>
      </trkpt>
      <trkpt lat="46.59162" lon="5.824">
        <ele>682</ele>
        <time>2020-07-29T20:49:02Z</time>
      </trkpt>
      <trkpt lat="46.5918" lon="5.82405">
        <ele>683</ele>
        <time>2020-07-29T20:49:05Z</time>
      </trkpt>
      <trkpt lat="46.59201" lon="5.82407">
        <ele>683</ele>
        <time>2020-07-29T20:49:09Z</time>
      </trkpt>
      <trkpt lat="46.59272" lon="5.82412">
        <ele>684</ele>
        <time>2020-07-29T20:49:21Z</time>
      </trkpt>
      <trkpt lat="46.59283" lon="5.8241">
        <ele>684</ele>
        <time>2020-07-29T20:49:23Z</time>
      </trkpt>
      <trkpt lat="46.59307" lon="5.82405">
        <ele>685</ele>
        <time>2020-07-29T20:49:28Z</time>
      </trkpt>
      <trkpt lat="46.59335" lon="5.82403">
        <ele>686</ele>
        <time>2020-07-29T20:49:33Z</time>
      </trkpt>
      <trkpt lat="46.59385" lon="5.82406">
        <ele>685</ele>
        <time>2020-07-29T20:49:41Z</time>
      </trkpt>
      <trkpt lat="46.59422" lon="5.82405">
        <ele>684</ele>
        <time>2020-07-29T20:49:48Z</time>
      </trkpt>
      <trkpt lat="46.59449" lon="5.82404">
        <ele>683</ele>
        <time>2020-07-29T20:49:53Z</time>
      </trkpt>
      <trkpt lat="46.59482" lon="5.82394">
        <ele>682</ele>
        <time>2020-07-29T20:49:59Z</time>
      </trkpt>
      <trkpt lat="46.59494" lon="5.82387">
        <ele>681</ele>
        <time>2020-07-29T20:50:01Z</time>
      </trkpt>
      <trkpt lat="46.59505" lon="5.82376">
        <ele>679</ele>
        <time>2020-07-29T20:50:04Z</time>
      </trkpt>
      <trkpt lat="46.59524" lon="5.82341">
        <ele>675</ele>
        <time>2020-07-29T20:50:09Z</time>
      </trkpt>
      <trkpt lat="46.59537" lon="5.82328">
        <ele>673</ele>
        <time>2020-07-29T20:50:12Z</time>
      </trkpt>
      <trkpt lat="46.59544" lon="5.82326">
        <ele>673</ele>
        <time>2020-07-29T20:50:13Z</time>
      </trkpt>
      <trkpt lat="46.59548" lon="5.82327">
        <ele>673</ele>
        <time>2020-07-29T20:50:14Z</time>
      </trkpt>
      <trkpt lat="46.59559" lon="5.82334">
        <ele>672</ele>
        <time>2020-07-29T20:50:16Z</time>
      </trkpt>
      <trkpt lat="46.59565" lon="5.82344">
        <ele>672</ele>
        <time>2020-07-29T20:50:18Z</time>
      </trkpt>
      <trkpt lat="46.59576" lon="5.82367">
        <ele>672</ele>
        <time>2020-07-29T20:50:21Z</time>
      </trkpt>
      <trkpt lat="46.59586" lon="5.82397">
        <ele>671</ele>
        <time>2020-07-29T20:50:25Z</time>
      </trkpt>
      <trkpt lat="46.5959" lon="5.82416">
        <ele>671</ele>
        <time>2020-07-29T20:50:27Z</time>
      </trkpt>
      <trkpt lat="46.59593" lon="5.82439">
        <ele>670</ele>
        <time>2020-07-29T20:50:30Z</time>
      </trkpt>
      <trkpt lat="46.596" lon="5.82606">
        <ele>670</ele>
        <time>2020-07-29T20:50:51Z</time>
      </trkpt>
      <trkpt lat="46.59603" lon="5.82627">
        <ele>669</ele>
        <time>2020-07-29T20:50:53Z</time>
      </trkpt>
      <trkpt lat="46.59611" lon="5.8267">
        <ele>668</ele>
        <time>2020-07-29T20:50:59Z</time>
      </trkpt>
      <trkpt lat="46.5962" lon="5.8271">
        <ele>668</ele>
        <time>2020-07-29T20:51:04Z</time>
      </trkpt>
      <trkpt lat="46.59634" lon="5.82754">
        <ele>667</ele>
        <time>2020-07-29T20:51:10Z</time>
      </trkpt>
      <trkpt lat="46.59649" lon="5.82789">
        <ele>665</ele>
        <time>2020-07-29T20:51:15Z</time>
      </trkpt>
      <trkpt lat="46.59674" lon="5.82833">
        <ele>662</ele>
        <time>2020-07-29T20:51:22Z</time>
      </trkpt>
      <trkpt lat="46.59686" lon="5.8286">
        <ele>661</ele>
        <time>2020-07-29T20:51:26Z</time>
      </trkpt>
      <trkpt lat="46.59692" lon="5.82881">
        <ele>660</ele>
        <time>2020-07-29T20:51:29Z</time>
      </trkpt>
      <trkpt lat="46.59698" lon="5.82909">
        <ele>659</ele>
        <time>2020-07-29T20:51:32Z</time>
      </trkpt>
      <trkpt lat="46.59708" lon="5.82992">
        <ele>658</ele>
        <time>2020-07-29T20:51:43Z</time>
      </trkpt>
      <trkpt lat="46.59722" lon="5.83057">
        <ele>656</ele>
        <time>2020-07-29T20:51:51Z</time>
      </trkpt>
      <trkpt lat="46.59724" lon="5.83062">
        <ele>656</ele>
        <time>2020-07-29T20:51:52Z</time>
      </trkpt>
      <trkpt lat="46.59728" lon="5.83073">
        <ele>656</ele>
        <time>2020-07-29T20:51:53Z</time>
      </trkpt>
      <trkpt lat="46.59734" lon="5.83085">
        <ele>655</ele>
        <time>2020-07-29T20:51:55Z</time>
      </trkpt>
      <trkpt lat="46.59741" lon="5.83092">
        <ele>655</ele>
        <time>2020-07-29T20:51:56Z</time>
      </trkpt>
      <trkpt lat="46.59748" lon="5.83095">
        <ele>654</ele>
        <time>2020-07-29T20:51:58Z</time>
      </trkpt>
      <trkpt lat="46.59752" lon="5.83097">
        <ele>654</ele>
        <time>2020-07-29T20:51:58Z</time>
      </trkpt>
      <trkpt lat="46.59764" lon="5.83099">
        <ele>655</ele>
        <time>2020-07-29T20:52:01Z</time>
      </trkpt>
      <trkpt lat="46.59804" lon="5.8309">
        <ele>655</ele>
        <time>2020-07-29T20:52:08Z</time>
      </trkpt>
      <trkpt lat="46.59825" lon="5.83077">
        <ele>655</ele>
        <time>2020-07-29T20:52:12Z</time>
      </trkpt>
      <trkpt lat="46.59832" lon="5.83068">
        <ele>655</ele>
        <time>2020-07-29T20:52:14Z</time>
      </trkpt>
      <trkpt lat="46.59843" lon="5.83045">
        <ele>656</ele>
        <time>2020-07-29T20:52:17Z</time>
      </trkpt>
      <trkpt lat="46.59883" lon="5.82918">
        <ele>661</ele>
        <time>2020-07-29T20:52:34Z</time>
      </trkpt>
      <trkpt lat="46.59895" lon="5.82892">
        <ele>662</ele>
        <time>2020-07-29T20:52:38Z</time>
      </trkpt>
      <trkpt lat="46.59896" lon="5.82889">
        <ele>662</ele>
        <time>2020-07-29T20:52:38Z</time>
      </trkpt>
      <trkpt lat="46.59902" lon="5.82878">
        <ele>663</ele>
        <time>2020-07-29T20:52:40Z</time>
      </trkpt>
      <trkpt lat="46.59906" lon="5.82872">
        <ele>664</ele>
        <time>2020-07-29T20:52:41Z</time>
      </trkpt>
      <trkpt lat="46.59911" lon="5.82867">
        <ele>664</ele>
        <time>2020-07-29T20:52:42Z</time>
      </trkpt>
      <trkpt lat="46.59931" lon="5.8283">
        <ele>666</ele>
        <time>2020-07-29T20:52:48Z</time>
      </trkpt>
      <trkpt lat="46.59957" lon="5.82764">
        <ele>666</ele>
        <time>2020-07-29T20:52:57Z</time>
      </trkpt>
      <trkpt lat="46.59971" lon="5.82734">
        <ele>667</ele>
        <time>2020-07-29T20:53:02Z</time>
      </trkpt>
      <trkpt lat="46.59975" lon="5.82729">
        <ele>667</ele>
        <time>2020-07-29T20:53:03Z</time>
      </trkpt>
      <trkpt lat="46.59983" lon="5.82725">
        <ele>668</ele>
        <time>2020-07-29T20:53:04Z</time>
      </trkpt>
      <trkpt lat="46.59986" lon="5.82725">
        <ele>668</ele>
        <time>2020-07-29T20:53:05Z</time>
      </trkpt>
      <trkpt lat="46.59991" lon="5.82726">
        <ele>669</ele>
        <time>2020-07-29T20:53:05Z</time>
      </trkpt>
      <trkpt lat="46.60005" lon="5.82735">
        <ele>669</ele>
        <time>2020-07-29T20:53:08Z</time>
      </trkpt>
      <trkpt lat="46.60024" lon="5.82751">
        <ele>670</ele>
        <time>2020-07-29T20:53:12Z</time>
      </trkpt>
      <trkpt lat="46.60047" lon="5.8278">
        <ele>671</ele>
        <time>2020-07-29T20:53:18Z</time>
      </trkpt>
      <trkpt lat="46.60052" lon="5.82786">
        <ele>671</ele>
        <time>2020-07-29T20:53:19Z</time>
      </trkpt>
      <trkpt lat="46.60088" lon="5.8282">
        <ele>674</ele>
        <time>2020-07-29T20:53:26Z</time>
      </trkpt>
      <trkpt lat="46.60144" lon="5.82857">
        <ele>676</ele>
        <time>2020-07-29T20:53:37Z</time>
      </trkpt>
      <trkpt lat="46.60174" lon="5.82892">
        <ele>678</ele>
        <time>2020-07-29T20:53:44Z</time>
      </trkpt>
      <trkpt lat="46.60181" lon="5.82904">
        <ele>679</ele>
        <time>2020-07-29T20:53:46Z</time>
      </trkpt>
      <trkpt lat="46.60198" lon="5.82895">
        <ele>682</ele>
        <time>2020-07-29T20:53:49Z</time>
      </trkpt>
      <trkpt lat="46.60205" lon="5.82886">
        <ele>683</ele>
        <time>2020-07-29T20:53:51Z</time>
      </trkpt>
      <trkpt lat="46.60221" lon="5.82861">
        <ele>684</ele>
        <time>2020-07-29T20:53:55Z</time>
      </trkpt>
      <trkpt lat="46.60238" lon="5.82823">
        <ele>684</ele>
        <time>2020-07-29T20:54:01Z</time>
      </trkpt>
      <trkpt lat="46.60268" lon="5.82778">
        <ele>685</ele>
        <time>2020-07-29T20:54:08Z</time>
      </trkpt>
      <trkpt lat="46.60304" lon="5.82743">
        <ele>685</ele>
        <time>2020-07-29T20:54:16Z</time>
      </trkpt>
      <trkpt lat="46.60354" lon="5.82713">
        <ele>688</ele>
        <time>2020-07-29T20:54:26Z</time>
      </trkpt>
      <trkpt lat="46.60395" lon="5.82675">
        <ele>685</ele>
        <time>2020-07-29T20:54:34Z</time>
      </trkpt>
      <trkpt lat="46.60422" lon="5.82625">
        <ele>681</ele>
        <time>2020-07-29T20:54:42Z</time>
      </trkpt>
      <trkpt lat="46.60448" lon="5.82566">
        <ele>676</ele>
        <time>2020-07-29T20:54:51Z</time>
      </trkpt>
      <trkpt lat="46.6047" lon="5.82478">
        <ele>673</ele>
        <time>2020-07-29T20:55:02Z</time>
      </trkpt>
      <trkpt lat="46.60485" lon="5.8239">
        <ele>672</ele>
        <time>2020-07-29T20:55:13Z</time>
      </trkpt>
      <trkpt lat="46.60494" lon="5.82315">
        <ele>672</ele>
        <time>2020-07-29T20:55:22Z</time>
      </trkpt>
      <trkpt lat="46.60495" lon="5.82295">
        <ele>672</ele>
        <time>2020-07-29T20:55:25Z</time>
      </trkpt>
      <trkpt lat="46.60494" lon="5.82275">
        <ele>671</ele>
        <time>2020-07-29T20:55:27Z</time>
      </trkpt>
      <trkpt lat="46.6049" lon="5.82256">
        <ele>671</ele>
        <time>2020-07-29T20:55:30Z</time>
      </trkpt>
      <trkpt lat="46.60468" lon="5.82204">
        <ele>668</ele>
        <time>2020-07-29T20:55:37Z</time>
      </trkpt>
      <trkpt lat="46.60462" lon="5.82186">
        <ele>667</ele>
        <time>2020-07-29T20:55:40Z</time>
      </trkpt>
      <trkpt lat="46.60458" lon="5.82167">
        <ele>666</ele>
        <time>2020-07-29T20:55:42Z</time>
      </trkpt>
      <trkpt lat="46.60457" lon="5.82136">
        <ele>665</ele>
        <time>2020-07-29T20:55:46Z</time>
      </trkpt>
      <trkpt lat="46.60467" lon="5.82057">
        <ele>663</ele>
        <time>2020-07-29T20:55:56Z</time>
      </trkpt>
      <trkpt lat="46.60466" lon="5.82016">
        <ele>663</ele>
        <time>2020-07-29T20:56:01Z</time>
      </trkpt>
      <trkpt lat="46.60459" lon="5.81977">
        <ele>662</ele>
        <time>2020-07-29T20:56:06Z</time>
      </trkpt>
      <trkpt lat="46.6044" lon="5.81901">
        <ele>659</ele>
        <time>2020-07-29T20:56:16Z</time>
      </trkpt>
      <trkpt lat="46.60434" lon="5.81867">
        <ele>659</ele>
        <time>2020-07-29T20:56:20Z</time>
      </trkpt>
      <trkpt lat="46.60437" lon="5.81821">
        <ele>659</ele>
        <time>2020-07-29T20:56:25Z</time>
      </trkpt>
      <trkpt lat="46.60456" lon="5.81712">
        <ele>659</ele>
        <time>2020-07-29T20:56:39Z</time>
      </trkpt>
      <trkpt lat="46.60462" lon="5.81688">
        <ele>659</ele>
        <time>2020-07-29T20:56:42Z</time>
      </trkpt>
      <trkpt lat="46.60468" lon="5.81673">
        <ele>659</ele>
        <time>2020-07-29T20:56:44Z</time>
      </trkpt>
      <trkpt lat="46.60473" lon="5.81666">
        <ele>660</ele>
        <time>2020-07-29T20:56:46Z</time>
      </trkpt>
      <trkpt lat="46.60527" lon="5.81618">
        <ele>661</ele>
        <time>2020-07-29T20:56:57Z</time>
      </trkpt>
      <trkpt lat="46.60578" lon="5.81579">
        <ele>661</ele>
        <time>2020-07-29T20:57:07Z</time>
      </trkpt>
      <trkpt lat="46.60594" lon="5.81561">
        <ele>660</ele>
        <time>2020-07-29T20:57:11Z</time>
      </trkpt>
      <trkpt lat="46.60609" lon="5.81539">
        <ele>659</ele>
        <time>2020-07-29T20:57:15Z</time>
      </trkpt>
      <trkpt lat="46.60619" lon="5.81512">
        <ele>658</ele>
        <time>2020-07-29T20:57:18Z</time>
      </trkpt>
      <trkpt lat="46.60665" lon="5.81342">
        <ele>657</ele>
        <time>2020-07-29T20:57:41Z</time>
      </trkpt>
      <trkpt lat="46.60678" lon="5.81274">
        <ele>655</ele>
        <time>2020-07-29T20:57:49Z</time>
      </trkpt>
      <trkpt lat="46.60684" lon="5.81255">
        <ele>654</ele>
        <time>2020-07-29T20:57:52Z</time>
      </trkpt>
      <trkpt lat="46.6069" lon="5.81243">
        <ele>653</ele>
        <time>2020-07-29T20:57:54Z</time>
      </trkpt>
      <trkpt lat="46.60711" lon="5.81223">
        <ele>652</ele>
        <time>2020-07-29T20:57:58Z</time>
      </trkpt>
      <trkpt lat="46.60875" lon="5.81109">
        <ele>649</ele>
        <time>2020-07-29T20:58:30Z</time>
      </trkpt>
      <trkpt lat="46.60888" lon="5.81102">
        <ele>649</ele>
        <time>2020-07-29T20:58:33Z</time>
      </trkpt>
      <trkpt lat="46.60902" lon="5.811">
        <ele>648</ele>
        <time>2020-07-29T20:58:35Z</time>
      </trkpt>
      <trkpt lat="46.60944" lon="5.81098">
        <ele>646</ele>
        <time>2020-07-29T20:58:43Z</time>
      </trkpt>
      <trkpt lat="46.60958" lon="5.81096">
        <ele>645</ele>
        <time>2020-07-29T20:58:45Z</time>
      </trkpt>
      <trkpt lat="46.60971" lon="5.81091">
        <ele>645</ele>
        <time>2020-07-29T20:58:48Z</time>
      </trkpt>
      <trkpt lat="46.6099" lon="5.81081">
        <ele>645</ele>
        <time>2020-07-29T20:58:51Z</time>
      </trkpt>
      <trkpt lat="46.61014" lon="5.8106">
        <ele>643</ele>
        <time>2020-07-29T20:58:56Z</time>
      </trkpt>
      <trkpt lat="46.6103" lon="5.81042">
        <ele>641</ele>
        <time>2020-07-29T20:59:00Z</time>
      </trkpt>
      <trkpt lat="46.6104" lon="5.81027">
        <ele>641</ele>
        <time>2020-07-29T20:59:03Z</time>
      </trkpt>
      <trkpt lat="46.61056" lon="5.80994">
        <ele>640</ele>
        <time>2020-07-29T20:59:08Z</time>
      </trkpt>
      <trkpt lat="46.61062" lon="5.80976">
        <ele>639</ele>
        <time>2020-07-29T20:59:10Z</time>
      </trkpt>
      <trkpt lat="46.61064" lon="5.80956">
        <ele>639</ele>
        <time>2020-07-29T20:59:12Z</time>
      </trkpt>
      <trkpt lat="46.61062" lon="5.80937">
        <ele>640</ele>
        <time>2020-07-29T20:59:15Z</time>
      </trkpt>
      <trkpt lat="46.61056" lon="5.80918">
        <ele>640</ele>
        <time>2020-07-29T20:59:17Z</time>
      </trkpt>
      <trkpt lat="46.61048" lon="5.80902">
        <ele>640</ele>
        <time>2020-07-29T20:59:20Z</time>
      </trkpt>
      <trkpt lat="46.60975" lon="5.80781">
        <ele>636</ele>
        <time>2020-07-29T20:59:39Z</time>
      </trkpt>
      <trkpt lat="46.60975" lon="5.80775">
        <ele>636</ele>
        <time>2020-07-29T20:59:40Z</time>
      </trkpt>
      <trkpt lat="46.60978" lon="5.80764">
        <ele>635</ele>
        <time>2020-07-29T20:59:42Z</time>
      </trkpt>
      <trkpt lat="46.60983" lon="5.80756">
        <ele>634</ele>
        <time>2020-07-29T20:59:43Z</time>
      </trkpt>
      <trkpt lat="46.60987" lon="5.80754">
        <ele>634</ele>
        <time>2020-07-29T20:59:44Z</time>
      </trkpt>
      <trkpt lat="46.61005" lon="5.8076">
        <ele>633</ele>
        <time>2020-07-29T20:59:47Z</time>
      </trkpt>
      <trkpt lat="46.61055" lon="5.80782">
        <ele>631</ele>
        <time>2020-07-29T20:59:56Z</time>
      </trkpt>
      <trkpt lat="46.61076" lon="5.80788">
        <ele>630</ele>
        <time>2020-07-29T21:00:00Z</time>
      </trkpt>
      <trkpt lat="46.61084" lon="5.80789">
        <ele>630</ele>
        <time>2020-07-29T21:00:01Z</time>
      </trkpt>
      <trkpt lat="46.61088" lon="5.8079">
        <ele>630</ele>
        <time>2020-07-29T21:00:02Z</time>
      </trkpt>
      <trkpt lat="46.61106" lon="5.80791">
        <ele>629</ele>
        <time>2020-07-29T21:00:05Z</time>
      </trkpt>
      <trkpt lat="46.61124" lon="5.80793">
        <ele>629</ele>
        <time>2020-07-29T21:00:09Z</time>
      </trkpt>
      <trkpt lat="46.61135" lon="5.80794">
        <ele>629</ele>
        <time>2020-07-29T21:00:11Z</time>
      </trkpt>
      <trkpt lat="46.61144" lon="5.80793">
        <ele>628</ele>
        <time>2020-07-29T21:00:12Z</time>
      </trkpt>
      <trkpt lat="46.61155" lon="5.80787">
        <ele>628</ele>
        <time>2020-07-29T21:00:14Z</time>
      </trkpt>
      <trkpt lat="46.61169" lon="5.8077">
        <ele>626</ele>
        <time>2020-07-29T21:00:18Z</time>
      </trkpt>
      <trkpt lat="46.61176" lon="5.80765">
        <ele>626</ele>
        <time>2020-07-29T21:00:19Z</time>
      </trkpt>
      <trkpt lat="46.61181" lon="5.80763">
        <ele>626</ele>
        <time>2020-07-29T21:00:20Z</time>
      </trkpt>
      <trkpt lat="46.61191" lon="5.80763">
        <ele>626</ele>
        <time>2020-07-29T21:00:22Z</time>
      </trkpt>
      <trkpt lat="46.61201" lon="5.80767">
        <ele>627</ele>
        <time>2020-07-29T21:00:23Z</time>
      </trkpt>
      <trkpt lat="46.61224" lon="5.80783">
        <ele>627</ele>
        <time>2020-07-29T21:00:28Z</time>
      </trkpt>
      <trkpt lat="46.61239" lon="5.80797">
        <ele>628</ele>
        <time>2020-07-29T21:00:31Z</time>
      </trkpt>
      <trkpt lat="46.61267" lon="5.80825">
        <ele>629</ele>
        <time>2020-07-29T21:00:37Z</time>
      </trkpt>
      <trkpt lat="46.61274" lon="5.80831">
        <ele>629</ele>
        <time>2020-07-29T21:00:39Z</time>
      </trkpt>
      <trkpt lat="46.61285" lon="5.80839">
        <ele>629</ele>
        <time>2020-07-29T21:00:41Z</time>
      </trkpt>
      <trkpt lat="46.61304" lon="5.8085">
        <ele>631</ele>
        <time>2020-07-29T21:00:44Z</time>
      </trkpt>
      <trkpt lat="46.61313" lon="5.80854">
        <ele>631</ele>
        <time>2020-07-29T21:00:46Z</time>
      </trkpt>
      <trkpt lat="46.61328" lon="5.8086">
        <ele>632</ele>
        <time>2020-07-29T21:00:49Z</time>
      </trkpt>
      <trkpt lat="46.61349" lon="5.80866">
        <ele>633</ele>
        <time>2020-07-29T21:00:53Z</time>
      </trkpt>
      <trkpt lat="46.61405" lon="5.80879">
        <ele>634</ele>
        <time>2020-07-29T21:01:03Z</time>
      </trkpt>
      <trkpt lat="46.61426" lon="5.80888">
        <ele>635</ele>
        <time>2020-07-29T21:01:07Z</time>
      </trkpt>
      <trkpt lat="46.61443" lon="5.80896">
        <ele>635</ele>
        <time>2020-07-29T21:01:10Z</time>
      </trkpt>
      <trkpt lat="46.6145" lon="5.809">
        <ele>636</ele>
        <time>2020-07-29T21:01:11Z</time>
      </trkpt>
      <trkpt lat="46.61458" lon="5.80905">
        <ele>636</ele>
        <time>2020-07-29T21:01:13Z</time>
      </trkpt>
      <trkpt lat="46.61477" lon="5.80912">
        <ele>636</ele>
        <time>2020-07-29T21:01:16Z</time>
      </trkpt>
      <trkpt lat="46.61485" lon="5.80912">
        <ele>637</ele>
        <time>2020-07-29T21:01:18Z</time>
      </trkpt>
      <trkpt lat="46.61492" lon="5.8091">
        <ele>637</ele>
        <time>2020-07-29T21:01:19Z</time>
      </trkpt>
      <trkpt lat="46.61504" lon="5.80901">
        <ele>637</ele>
        <time>2020-07-29T21:01:21Z</time>
      </trkpt>
      <trkpt lat="46.61509" lon="5.80897">
        <ele>637</ele>
        <time>2020-07-29T21:01:22Z</time>
      </trkpt>
      <trkpt lat="46.61514" lon="5.8089">
        <ele>637</ele>
        <time>2020-07-29T21:01:24Z</time>
      </trkpt>
      <trkpt lat="46.61528" lon="5.80879">
        <ele>636</ele>
        <time>2020-07-29T21:01:26Z</time>
      </trkpt>
      <trkpt lat="46.61548" lon="5.80869">
        <ele>636</ele>
        <time>2020-07-29T21:01:30Z</time>
      </trkpt>
      <trkpt lat="46.61589" lon="5.80872">
        <ele>636</ele>
        <time>2020-07-29T21:01:38Z</time>
      </trkpt>
      <trkpt lat="46.61603" lon="5.80868">
        <ele>636</ele>
        <time>2020-07-29T21:01:40Z</time>
      </trkpt>
      <trkpt lat="46.61609" lon="5.80863">
        <ele>637</ele>
        <time>2020-07-29T21:01:41Z</time>
      </trkpt>
      <trkpt lat="46.61619" lon="5.80851">
        <ele>637</ele>
        <time>2020-07-29T21:01:44Z</time>
      </trkpt>
      <trkpt lat="46.61626" lon="5.80838">
        <ele>637</ele>
        <time>2020-07-29T21:01:46Z</time>
      </trkpt>
      <trkpt lat="46.61629" lon="5.8083">
        <ele>636</ele>
        <time>2020-07-29T21:01:47Z</time>
      </trkpt>
      <trkpt lat="46.61656" lon="5.80746">
        <ele>634</ele>
        <time>2020-07-29T21:01:58Z</time>
      </trkpt>
      <trkpt lat="46.61664" lon="5.80714">
        <ele>635</ele>
        <time>2020-07-29T21:02:02Z</time>
      </trkpt>
      <trkpt lat="46.61688" lon="5.80601">
        <ele>639</ele>
        <time>2020-07-29T21:02:17Z</time>
      </trkpt>
      <trkpt lat="46.61697" lon="5.80568">
        <ele>640</ele>
        <time>2020-07-29T21:02:21Z</time>
      </trkpt>
      <trkpt lat="46.61703" lon="5.80552">
        <ele>640</ele>
        <time>2020-07-29T21:02:23Z</time>
      </trkpt>
      <trkpt lat="46.61712" lon="5.80531">
        <ele>641</ele>
        <time>2020-07-29T21:02:26Z</time>
      </trkpt>
      <trkpt lat="46.61728" lon="5.80492">
        <ele>642</ele>
        <time>2020-07-29T21:02:32Z</time>
      </trkpt>
      <trkpt lat="46.61732" lon="5.8048">
        <ele>642</ele>
        <time>2020-07-29T21:02:33Z</time>
      </trkpt>
      <trkpt lat="46.61736" lon="5.80465">
        <ele>642</ele>
        <time>2020-07-29T21:02:35Z</time>
      </trkpt>
      <trkpt lat="46.61766" lon="5.80361">
        <ele>642</ele>
        <time>2020-07-29T21:02:49Z</time>
      </trkpt>
      <trkpt lat="46.61772" lon="5.80341">
        <ele>642</ele>
        <time>2020-07-29T21:02:52Z</time>
      </trkpt>
      <trkpt lat="46.61776" lon="5.8033">
        <ele>642</ele>
        <time>2020-07-29T21:02:53Z</time>
      </trkpt>
      <trkpt lat="46.61778" lon="5.80321">
        <ele>642</ele>
        <time>2020-07-29T21:02:55Z</time>
      </trkpt>
      <trkpt lat="46.6178" lon="5.80309">
        <ele>641</ele>
        <time>2020-07-29T21:02:56Z</time>
      </trkpt>
      <trkpt lat="46.6178" lon="5.80237">
        <ele>640</ele>
        <time>2020-07-29T21:03:05Z</time>
      </trkpt>
      <trkpt lat="46.6179" lon="5.80161">
        <ele>639</ele>
        <time>2020-07-29T21:03:14Z</time>
      </trkpt>
      <trkpt lat="46.61817" lon="5.80097">
        <ele>636</ele>
        <time>2020-07-29T21:03:23Z</time>
      </trkpt>
      <trkpt lat="46.61884" lon="5.79976">
        <ele>628</ele>
        <time>2020-07-29T21:03:42Z</time>
      </trkpt>
      <trkpt lat="46.61974" lon="5.79896">
        <ele>620</ele>
        <time>2020-07-29T21:04:01Z</time>
      </trkpt>
      <trkpt lat="46.61992" lon="5.79885">
        <ele>619</ele>
        <time>2020-07-29T21:04:05Z</time>
      </trkpt>
      <trkpt lat="46.62071" lon="5.79834">
        <ele>616</ele>
        <time>2020-07-29T21:04:20Z</time>
      </trkpt>
      <trkpt lat="46.62266" lon="5.79731">
        <ele>610</ele>
        <time>2020-07-29T21:04:57Z</time>
      </trkpt>
      <trkpt lat="46.62297" lon="5.79694">
        <ele>609</ele>
        <time>2020-07-29T21:05:04Z</time>
      </trkpt>
      <trkpt lat="46.6236" lon="5.79599">
        <ele>605</ele>
        <time>2020-07-29T21:05:20Z</time>
      </trkpt>
      <trkpt lat="46.62382" lon="5.79567">
        <ele>604</ele>
        <time>2020-07-29T21:05:26Z</time>
      </trkpt>
      <trkpt lat="46.62396" lon="5.79525">
        <ele>604</ele>
        <time>2020-07-29T21:05:32Z</time>
      </trkpt>
      <trkpt lat="46.62407" lon="5.79464">
        <ele>603</ele>
        <time>2020-07-29T21:05:39Z</time>
      </trkpt>
      <trkpt lat="46.6244" lon="5.79375">
        <ele>602</ele>
        <time>2020-07-29T21:05:52Z</time>
      </trkpt>
      <trkpt lat="46.625" lon="5.79239">
        <ele>604</ele>
        <time>2020-07-29T21:06:11Z</time>
      </trkpt>
      <trkpt lat="46.62518" lon="5.79186">
        <ele>605</ele>
        <time>2020-07-29T21:06:19Z</time>
      </trkpt>
      <trkpt lat="46.62522" lon="5.79162">
        <ele>606</ele>
        <time>2020-07-29T21:06:22Z</time>
      </trkpt>
      <trkpt lat="46.62524" lon="5.79146">
        <ele>606</ele>
        <time>2020-07-29T21:06:24Z</time>
      </trkpt>
      <trkpt lat="46.62541" lon="5.79108">
        <ele>607</ele>
        <time>2020-07-29T21:06:29Z</time>
      </trkpt>
      <trkpt lat="46.6262" lon="5.78974">
        <ele>609</ele>
        <time>2020-07-29T21:06:51Z</time>
      </trkpt>
      <trkpt lat="46.6267" lon="5.78874">
        <ele>612</ele>
        <time>2020-07-29T21:07:06Z</time>
      </trkpt>
      <trkpt lat="46.62748" lon="5.78708">
        <ele>613</ele>
        <time>2020-07-29T21:07:30Z</time>
      </trkpt>
      <trkpt lat="46.62782" lon="5.78597">
        <ele>615</ele>
        <time>2020-07-29T21:07:45Z</time>
      </trkpt>
      <trkpt lat="46.62802" lon="5.78571">
        <ele>615</ele>
        <time>2020-07-29T21:07:50Z</time>
      </trkpt>
      <trkpt lat="46.62835" lon="5.78541">
        <ele>611</ele>
        <time>2020-07-29T21:07:57Z</time>
      </trkpt>
      <trkpt lat="46.62847" lon="5.78527">
        <ele>611</ele>
        <time>2020-07-29T21:08:00Z</time>
      </trkpt>
      <trkpt lat="46.6286" lon="5.78505">
        <ele>610</ele>
        <time>2020-07-29T21:08:03Z</time>
      </trkpt>
      <trkpt lat="46.62905" lon="5.78448">
        <ele>608</ele>
        <time>2020-07-29T21:08:14Z</time>
      </trkpt>
      <trkpt lat="46.62928" lon="5.78413">
        <ele>606</ele>
        <time>2020-07-29T21:08:20Z</time>
      </trkpt>
      <trkpt lat="46.62954" lon="5.78341">
        <ele>607</ele>
        <time>2020-07-29T21:08:30Z</time>
      </trkpt>
      <trkpt lat="46.62965" lon="5.78303">
        <ele>606</ele>
        <time>2020-07-29T21:08:35Z</time>
      </trkpt>
      <trkpt lat="46.62985" lon="5.78252">
        <ele>605</ele>
        <time>2020-07-29T21:08:42Z</time>
      </trkpt>
      <trkpt lat="46.63011" lon="5.782">
        <ele>605</ele>
        <time>2020-07-29T21:08:50Z</time>
      </trkpt>
      <trkpt lat="46.63023" lon="5.78183">
        <ele>605</ele>
        <time>2020-07-29T21:08:53Z</time>
      </trkpt>
      <trkpt lat="46.63038" lon="5.78169">
        <ele>605</ele>
        <time>2020-07-29T21:08:56Z</time>
      </trkpt>
      <trkpt lat="46.63079" lon="5.78142">
        <ele>605</ele>
        <time>2020-07-29T21:09:04Z</time>
      </trkpt>
      <trkpt lat="46.63117" lon="5.78114">
        <ele>604</ele>
        <time>2020-07-29T21:09:11Z</time>
      </trkpt>
      <trkpt lat="46.63171" lon="5.78089">
        <ele>604</ele>
        <time>2020-07-29T21:09:22Z</time>
      </trkpt>
      <trkpt lat="46.63228" lon="5.7804">
        <ele>606</ele>
        <time>2020-07-29T21:09:33Z</time>
      </trkpt>
      <trkpt lat="46.63254" lon="5.78027">
        <ele>606</ele>
        <time>2020-07-29T21:09:38Z</time>
      </trkpt>
      <trkpt lat="46.63269" lon="5.78022">
        <ele>607</ele>
        <time>2020-07-29T21:09:41Z</time>
      </trkpt>
      <trkpt lat="46.63286" lon="5.78021">
        <ele>607</ele>
        <time>2020-07-29T21:09:44Z</time>
      </trkpt>
      <trkpt lat="46.63337" lon="5.78025">
        <ele>609</ele>
        <time>2020-07-29T21:09:53Z</time>
      </trkpt>
      <trkpt lat="46.63448" lon="5.77987">
        <ele>607</ele>
        <time>2020-07-29T21:10:13Z</time>
      </trkpt>
      <trkpt lat="46.6357" lon="5.77965">
        <ele>605</ele>
        <time>2020-07-29T21:10:35Z</time>
      </trkpt>
      <trkpt lat="46.6358" lon="5.77963">
        <ele>605</ele>
        <time>2020-07-29T21:10:37Z</time>
      </trkpt>
      <trkpt lat="46.63616" lon="5.77948">
        <ele>604</ele>
        <time>2020-07-29T21:10:44Z</time>
      </trkpt>
      <trkpt lat="46.63671" lon="5.77931">
        <ele>602</ele>
        <time>2020-07-29T21:10:54Z</time>
      </trkpt>
      <trkpt lat="46.63776" lon="5.77882">
        <ele>601</ele>
        <time>2020-07-29T21:11:13Z</time>
      </trkpt>
      <trkpt lat="46.63843" lon="5.77814">
        <ele>603</ele>
        <time>2020-07-29T21:11:28Z</time>
      </trkpt>
      <trkpt lat="46.63864" lon="5.77798">
        <ele>603</ele>
        <time>2020-07-29T21:11:32Z</time>
      </trkpt>
      <trkpt lat="46.63894" lon="5.7777">
        <ele>604</ele>
        <time>2020-07-29T21:11:38Z</time>
      </trkpt>
      <trkpt lat="46.63913" lon="5.7772">
        <ele>605</ele>
        <time>2020-07-29T21:11:45Z</time>
      </trkpt>
      <trkpt lat="46.63933" lon="5.77683">
        <ele>605</ele>
        <time>2020-07-29T21:11:51Z</time>
      </trkpt>
      <trkpt lat="46.63957" lon="5.7761">
        <ele>606</ele>
        <time>2020-07-29T21:12:01Z</time>
      </trkpt>
      <trkpt lat="46.63964" lon="5.77589">
        <ele>606</ele>
        <time>2020-07-29T21:12:04Z</time>
      </trkpt>
      <trkpt lat="46.63975" lon="5.77566">
        <ele>606</ele>
        <time>2020-07-29T21:12:07Z</time>
      </trkpt>
      <trkpt lat="46.64009" lon="5.77516">
        <ele>603</ele>
        <time>2020-07-29T21:12:16Z</time>
      </trkpt>
      <trkpt lat="46.64026" lon="5.77485">
        <ele>603</ele>
        <time>2020-07-29T21:12:21Z</time>
      </trkpt>
      <trkpt lat="46.64063" lon="5.77423">
        <ele>601</ele>
        <time>2020-07-29T21:12:31Z</time>
      </trkpt>
      <trkpt lat="46.64068" lon="5.77409">
        <ele>600</ele>
        <time>2020-07-29T21:12:33Z</time>
      </trkpt>
      <trkpt lat="46.64076" lon="5.77359">
        <ele>599</ele>
        <time>2020-07-29T21:12:39Z</time>
      </trkpt>
      <trkpt lat="46.64101" lon="5.77289">
        <ele>598</ele>
        <time>2020-07-29T21:12:49Z</time>
      </trkpt>
      <trkpt lat="46.64109" lon="5.77241">
        <ele>597</ele>
        <time>2020-07-29T21:12:55Z</time>
      </trkpt>
      <trkpt lat="46.64112" lon="5.7723">
        <ele>597</ele>
        <time>2020-07-29T21:12:56Z</time>
      </trkpt>
      <trkpt lat="46.64117" lon="5.77217">
        <ele>596</ele>
        <time>2020-07-29T21:12:58Z</time>
      </trkpt>
      <trkpt lat="46.64124" lon="5.77205">
        <ele>596</ele>
        <time>2020-07-29T21:13:00Z</time>
      </trkpt>
      <trkpt lat="46.64138" lon="5.77191">
        <ele>595</ele>
        <time>2020-07-29T21:13:03Z</time>
      </trkpt>
      <trkpt lat="46.64151" lon="5.77186">
        <ele>594</ele>
        <time>2020-07-29T21:13:05Z</time>
      </trkpt>
      <trkpt lat="46.6416" lon="5.77186">
        <ele>593</ele>
        <time>2020-07-29T21:13:07Z</time>
      </trkpt>
      <trkpt lat="46.64194" lon="5.77196">
        <ele>590</ele>
        <time>2020-07-29T21:13:13Z</time>
      </trkpt>
      <trkpt lat="46.6426" lon="5.77221">
        <ele>585</ele>
        <time>2020-07-29T21:13:25Z</time>
      </trkpt>
      <trkpt lat="46.64277" lon="5.77221">
        <ele>585</ele>
        <time>2020-07-29T21:13:28Z</time>
      </trkpt>
      <trkpt lat="46.64294" lon="5.77215">
        <ele>585</ele>
        <time>2020-07-29T21:13:31Z</time>
      </trkpt>
      <trkpt lat="46.64323" lon="5.77197">
        <ele>584</ele>
        <time>2020-07-29T21:13:37Z</time>
      </trkpt>
      <trkpt lat="46.64375" lon="5.77155">
        <ele>582</ele>
        <time>2020-07-29T21:13:48Z</time>
      </trkpt>
      <trkpt lat="46.64395" lon="5.77142">
        <ele>581</ele>
        <time>2020-07-29T21:13:51Z</time>
      </trkpt>
      <trkpt lat="46.64422" lon="5.77121">
        <ele>579</ele>
        <time>2020-07-29T21:13:57Z</time>
      </trkpt>
      <trkpt lat="46.64431" lon="5.77113">
        <ele>579</ele>
        <time>2020-07-29T21:13:59Z</time>
      </trkpt>
      <trkpt lat="46.64445" lon="5.77094">
        <ele>579</ele>
        <time>2020-07-29T21:14:02Z</time>
      </trkpt>
      <trkpt lat="46.64472" lon="5.7705">
        <ele>579</ele>
        <time>2020-07-29T21:14:09Z</time>
      </trkpt>
      <trkpt lat="46.64484" lon="5.77036">
        <ele>579</ele>
        <time>2020-07-29T21:14:12Z</time>
      </trkpt>
      <trkpt lat="46.64499" lon="5.77023">
        <ele>578</ele>
        <time>2020-07-29T21:14:15Z</time>
      </trkpt>
      <trkpt lat="46.64532" lon="5.77004">
        <ele>577</ele>
        <time>2020-07-29T21:14:21Z</time>
      </trkpt>
      <trkpt lat="46.64559" lon="5.76981">
        <ele>575</ele>
        <time>2020-07-29T21:14:27Z</time>
      </trkpt>
      <trkpt lat="46.64595" lon="5.76931">
        <ele>570</ele>
        <time>2020-07-29T21:14:36Z</time>
      </trkpt>
      <trkpt lat="46.6461" lon="5.76915">
        <ele>569</ele>
        <time>2020-07-29T21:14:39Z</time>
      </trkpt>
      <trkpt lat="46.64623" lon="5.76909">
        <ele>570</ele>
        <time>2020-07-29T21:14:42Z</time>
      </trkpt>
      <trkpt lat="46.64631" lon="5.76907">
        <ele>570</ele>
        <time>2020-07-29T21:14:43Z</time>
      </trkpt>
      <trkpt lat="46.64663" lon="5.76909">
        <ele>571</ele>
        <time>2020-07-29T21:14:49Z</time>
      </trkpt>
      <trkpt lat="46.64671" lon="5.76911">
        <ele>570</ele>
        <time>2020-07-29T21:14:50Z</time>
      </trkpt>
      <trkpt lat="46.64685" lon="5.76918">
        <ele>567</ele>
        <time>2020-07-29T21:14:53Z</time>
      </trkpt>
      <trkpt lat="46.647" lon="5.76935">
        <ele>564</ele>
        <time>2020-07-29T21:14:56Z</time>
      </trkpt>
      <trkpt lat="46.64704" lon="5.76944">
        <ele>564</ele>
        <time>2020-07-29T21:14:58Z</time>
      </trkpt>
      <trkpt lat="46.64708" lon="5.76959">
        <ele>565</ele>
        <time>2020-07-29T21:15:00Z</time>
      </trkpt>
      <trkpt lat="46.64715" lon="5.77006">
        <ele>569</ele>
        <time>2020-07-29T21:15:05Z</time>
      </trkpt>
      <trkpt lat="46.64766" lon="5.77037">
        <ele>563</ele>
        <time>2020-07-29T21:15:15Z</time>
      </trkpt>
      <trkpt lat="46.64771" lon="5.77038">
        <ele>561</ele>
        <time>2020-07-29T21:15:16Z</time>
      </trkpt>
      <trkpt lat="46.64774" lon="5.7703">
        <ele>559</ele>
        <time>2020-07-29T21:15:17Z</time>
      </trkpt>
      <trkpt lat="46.64774" lon="5.77022">
        <ele>558</ele>
        <time>2020-07-29T21:15:18Z</time>
      </trkpt>
      <trkpt lat="46.64771" lon="5.77015">
        <ele>558</ele>
        <time>2020-07-29T21:15:19Z</time>
      </trkpt>
      <trkpt lat="46.64736" lon="5.76996">
        <ele>563</ele>
        <time>2020-07-29T21:15:26Z</time>
      </trkpt>
      <trkpt lat="46.64728" lon="5.76983">
        <ele>563</ele>
        <time>2020-07-29T21:15:28Z</time>
      </trkpt>
      <trkpt lat="46.64724" lon="5.76957">
        <ele>561</ele>
        <time>2020-07-29T21:15:31Z</time>
      </trkpt>
      <trkpt lat="46.64726" lon="5.76851">
        <ele>555</ele>
        <time>2020-07-29T21:15:44Z</time>
      </trkpt>
      <trkpt lat="46.6472" lon="5.7681">
        <ele>555</ele>
        <time>2020-07-29T21:15:49Z</time>
      </trkpt>
      <trkpt lat="46.64708" lon="5.76773">
        <ele>557</ele>
        <time>2020-07-29T21:15:54Z</time>
      </trkpt>
      <trkpt lat="46.64702" lon="5.76747">
        <ele>557</ele>
        <time>2020-07-29T21:15:58Z</time>
      </trkpt>
      <trkpt lat="46.64705" lon="5.76736">
        <ele>555</ele>
        <time>2020-07-29T21:15:59Z</time>
      </trkpt>
      <trkpt lat="46.64714" lon="5.76734">
        <ele>552</ele>
        <time>2020-07-29T21:16:01Z</time>
      </trkpt>
      <trkpt lat="46.64726" lon="5.76751">
        <ele>550</ele>
        <time>2020-07-29T21:16:04Z</time>
      </trkpt>
      <trkpt lat="46.64742" lon="5.76781">
        <ele>547</ele>
        <time>2020-07-29T21:16:08Z</time>
      </trkpt>
      <trkpt lat="46.64752" lon="5.76791">
        <ele>545</ele>
        <time>2020-07-29T21:16:11Z</time>
      </trkpt>
      <trkpt lat="46.64769" lon="5.7679">
        <ele>543</ele>
        <time>2020-07-29T21:16:14Z</time>
      </trkpt>
      <trkpt lat="46.64788" lon="5.76784">
        <ele>541</ele>
        <time>2020-07-29T21:16:17Z</time>
      </trkpt>
      <trkpt lat="46.64781" lon="5.76748">
        <ele>540</ele>
        <time>2020-07-29T21:16:22Z</time>
      </trkpt>
      <trkpt lat="46.64755" lon="5.76673">
        <ele>537</ele>
        <time>2020-07-29T21:16:32Z</time>
      </trkpt>
      <trkpt lat="46.64733" lon="5.766">
        <ele>539</ele>
        <time>2020-07-29T21:16:42Z</time>
      </trkpt>
      <trkpt lat="46.64723" lon="5.76547">
        <ele>542</ele>
        <time>2020-07-29T21:16:48Z</time>
      </trkpt>
      <trkpt lat="46.6472" lon="5.7648">
        <ele>542</ele>
        <time>2020-07-29T21:16:56Z</time>
      </trkpt>
      <trkpt lat="46.64723" lon="5.76417">
        <ele>541</ele>
        <time>2020-07-29T21:17:04Z</time>
      </trkpt>
      <trkpt lat="46.64776" lon="5.76145">
        <ele>523</ele>
        <time>2020-07-29T21:17:39Z</time>
      </trkpt>
      <trkpt lat="46.64778" lon="5.76115">
        <ele>523</ele>
        <time>2020-07-29T21:17:42Z</time>
      </trkpt>
      <trkpt lat="46.64775" lon="5.76092">
        <ele>523</ele>
        <time>2020-07-29T21:17:45Z</time>
      </trkpt>
      <trkpt lat="46.64768" lon="5.76062">
        <ele>523</ele>
        <time>2020-07-29T21:17:49Z</time>
      </trkpt>
      <trkpt lat="46.6476" lon="5.76035">
        <ele>522</ele>
        <time>2020-07-29T21:17:53Z</time>
      </trkpt>
      <trkpt lat="46.6472" lon="5.75941">
        <ele>520</ele>
        <time>2020-07-29T21:18:06Z</time>
      </trkpt>
      <trkpt lat="46.64696" lon="5.75905">
        <ele>521</ele>
        <time>2020-07-29T21:18:12Z</time>
      </trkpt>
      <trkpt lat="46.64682" lon="5.75886">
        <ele>521</ele>
        <time>2020-07-29T21:18:16Z</time>
      </trkpt>
      <trkpt lat="46.64639" lon="5.75816">
        <ele>522</ele>
        <time>2020-07-29T21:18:27Z</time>
      </trkpt>
      <trkpt lat="46.64607" lon="5.75771">
        <ele>521</ele>
        <time>2020-07-29T21:18:35Z</time>
      </trkpt>
      <trkpt lat="46.64593" lon="5.75745">
        <ele>520</ele>
        <time>2020-07-29T21:18:39Z</time>
      </trkpt>
      <trkpt lat="46.64572" lon="5.75685">
        <ele>517</ele>
        <time>2020-07-29T21:18:47Z</time>
      </trkpt>
      <trkpt lat="46.64576" lon="5.75681">
        <ele>516</ele>
        <time>2020-07-29T21:18:48Z</time>
      </trkpt>
      <trkpt lat="46.64578" lon="5.75673">
        <ele>515</ele>
        <time>2020-07-29T21:18:49Z</time>
      </trkpt>
      <trkpt lat="46.64579" lon="5.75663">
        <ele>514</ele>
        <time>2020-07-29T21:18:51Z</time>
      </trkpt>
      <trkpt lat="46.64575" lon="5.75646">
        <ele>513</ele>
        <time>2020-07-29T21:18:53Z</time>
      </trkpt>
      <trkpt lat="46.64573" lon="5.75642">
        <ele>512</ele>
        <time>2020-07-29T21:18:53Z</time>
      </trkpt>
      <trkpt lat="46.64571" lon="5.75638">
        <ele>512</ele>
        <time>2020-07-29T21:18:54Z</time>
      </trkpt>
      <trkpt lat="46.6456" lon="5.75622">
        <ele>511</ele>
        <time>2020-07-29T21:18:57Z</time>
      </trkpt>
      <trkpt lat="46.64547" lon="5.75612">
        <ele>511</ele>
        <time>2020-07-29T21:18:59Z</time>
      </trkpt>
      <trkpt lat="46.64532" lon="5.7561">
        <ele>512</ele>
        <time>2020-07-29T21:19:02Z</time>
      </trkpt>
      <trkpt lat="46.64512" lon="5.75616">
        <ele>514</ele>
        <time>2020-07-29T21:19:06Z</time>
      </trkpt>
      <trkpt lat="46.64507" lon="5.75617">
        <ele>515</ele>
        <time>2020-07-29T21:19:07Z</time>
      </trkpt>
      <trkpt lat="46.64499" lon="5.75617">
        <ele>515</ele>
        <time>2020-07-29T21:19:08Z</time>
      </trkpt>
      <trkpt lat="46.64478" lon="5.75608">
        <ele>518</ele>
        <time>2020-07-29T21:19:12Z</time>
      </trkpt>
      <trkpt lat="46.64461" lon="5.75591">
        <ele>517</ele>
        <time>2020-07-29T21:19:16Z</time>
      </trkpt>
      <trkpt lat="46.64433" lon="5.75546">
        <ele>513</ele>
        <time>2020-07-29T21:19:23Z</time>
      </trkpt>
      <trkpt lat="46.64347" lon="5.75418">
        <ele>501</ele>
        <time>2020-07-29T21:19:45Z</time>
      </trkpt>
      <trkpt lat="46.64324" lon="5.75393">
        <ele>500</ele>
        <time>2020-07-29T21:19:50Z</time>
      </trkpt>
      <trkpt lat="46.64298" lon="5.75373">
        <ele>500</ele>
        <time>2020-07-29T21:19:55Z</time>
      </trkpt>
      <trkpt lat="46.64291" lon="5.75365">
        <ele>499</ele>
        <time>2020-07-29T21:19:57Z</time>
      </trkpt>
      <trkpt lat="46.64288" lon="5.7536">
        <ele>498</ele>
        <time>2020-07-29T21:19:58Z</time>
      </trkpt>
      <trkpt lat="46.64285" lon="5.75353">
        <ele>497</ele>
        <time>2020-07-29T21:19:59Z</time>
      </trkpt>
      <trkpt lat="46.64283" lon="5.75339">
        <ele>494</ele>
        <time>2020-07-29T21:20:00Z</time>
      </trkpt>
      <trkpt lat="46.64284" lon="5.75333">
        <ele>493</ele>
        <time>2020-07-29T21:20:01Z</time>
      </trkpt>
      <trkpt lat="46.64285" lon="5.7533">
        <ele>492</ele>
        <time>2020-07-29T21:20:02Z</time>
      </trkpt>
      <trkpt lat="46.64286" lon="5.75326">
        <ele>492</ele>
        <time>2020-07-29T21:20:02Z</time>
      </trkpt>
      <trkpt lat="46.64291" lon="5.75313">
        <ele>490</ele>
        <time>2020-07-29T21:20:04Z</time>
      </trkpt>
      <trkpt lat="46.64311" lon="5.75283">
        <ele>487</ele>
        <time>2020-07-29T21:20:09Z</time>
      </trkpt>
      <trkpt lat="46.64331" lon="5.7525">
        <ele>485</ele>
        <time>2020-07-29T21:20:14Z</time>
      </trkpt>
      <trkpt lat="46.64357" lon="5.7521">
        <ele>485</ele>
        <time>2020-07-29T21:20:21Z</time>
      </trkpt>
      <trkpt lat="46.64401" lon="5.75144">
        <ele>485</ele>
        <time>2020-07-29T21:20:32Z</time>
      </trkpt>
      <trkpt lat="46.64423" lon="5.75105">
        <ele>485</ele>
        <time>2020-07-29T21:20:38Z</time>
      </trkpt>
      <trkpt lat="46.64436" lon="5.75079">
        <ele>484</ele>
        <time>2020-07-29T21:20:42Z</time>
      </trkpt>
      <trkpt lat="46.64455" lon="5.75035">
        <ele>483</ele>
        <time>2020-07-29T21:20:49Z</time>
      </trkpt>
      <trkpt lat="46.64458" lon="5.75032">
        <ele>483</ele>
        <time>2020-07-29T21:20:49Z</time>
      </trkpt>
      <trkpt lat="46.64461" lon="5.7503">
        <ele>483</ele>
        <time>2020-07-29T21:20:50Z</time>
      </trkpt>
      <trkpt lat="46.6448" lon="5.75026">
        <ele>483</ele>
        <time>2020-07-29T21:20:53Z</time>
      </trkpt>
      <trkpt lat="46.6452" lon="5.75026">
        <ele>484</ele>
        <time>2020-07-29T21:21:01Z</time>
      </trkpt>
      <trkpt lat="46.64529" lon="5.75027">
        <ele>484</ele>
        <time>2020-07-29T21:21:02Z</time>
      </trkpt>
      <trkpt lat="46.64535" lon="5.75026">
        <ele>484</ele>
        <time>2020-07-29T21:21:03Z</time>
      </trkpt>
      <trkpt lat="46.64618" lon="5.75017">
        <ele>484</ele>
        <time>2020-07-29T21:21:18Z</time>
      </trkpt>
      <trkpt lat="46.64669" lon="5.75014">
        <ele>485</ele>
        <time>2020-07-29T21:21:27Z</time>
      </trkpt>
      <trkpt lat="46.64691" lon="5.75016">
        <ele>485</ele>
        <time>2020-07-29T21:21:31Z</time>
      </trkpt>
      <trkpt lat="46.64702" lon="5.75012">
        <ele>485</ele>
        <time>2020-07-29T21:21:33Z</time>
      </trkpt>
      <trkpt lat="46.64737" lon="5.74988">
        <ele>485</ele>
        <time>2020-07-29T21:21:40Z</time>
      </trkpt>
      <trkpt lat="46.64749" lon="5.74976">
        <ele>484</ele>
        <time>2020-07-29T21:21:42Z</time>
      </trkpt>
      <trkpt lat="46.64756" lon="5.74963">
        <ele>483</ele>
        <time>2020-07-29T21:21:45Z</time>
      </trkpt>
      <trkpt lat="46.64771" lon="5.74926">
        <ele>480</ele>
        <time>2020-07-29T21:21:50Z</time>
      </trkpt>
      <trkpt lat="46.64777" lon="5.74919">
        <ele>479</ele>
        <time>2020-07-29T21:21:51Z</time>
      </trkpt>
      <trkpt lat="46.64783" lon="5.74915">
        <ele>478</ele>
        <time>2020-07-29T21:21:52Z</time>
      </trkpt>
      <trkpt lat="46.64791" lon="5.74914">
        <ele>477</ele>
        <time>2020-07-29T21:21:54Z</time>
      </trkpt>
      <trkpt lat="46.64797" lon="5.74916">
        <ele>476</ele>
        <time>2020-07-29T21:21:55Z</time>
      </trkpt>
      <trkpt lat="46.64803" lon="5.74921">
        <ele>476</ele>
        <time>2020-07-29T21:21:56Z</time>
      </trkpt>
      <trkpt lat="46.6481" lon="5.74931">
        <ele>475</ele>
        <time>2020-07-29T21:21:58Z</time>
      </trkpt>
      <trkpt lat="46.64823" lon="5.74958">
        <ele>475</ele>
        <time>2020-07-29T21:22:02Z</time>
      </trkpt>
      <trkpt lat="46.64829" lon="5.74967">
        <ele>475</ele>
        <time>2020-07-29T21:22:03Z</time>
      </trkpt>
      <trkpt lat="46.64837" lon="5.74975">
        <ele>475</ele>
        <time>2020-07-29T21:22:05Z</time>
      </trkpt>
      <trkpt lat="46.64879" lon="5.75">
        <ele>472</ele>
        <time>2020-07-29T21:22:13Z</time>
      </trkpt>
      <trkpt lat="46.64887" lon="5.75007">
        <ele>472</ele>
        <time>2020-07-29T21:22:15Z</time>
      </trkpt>
      <trkpt lat="46.64894" lon="5.75016">
        <ele>471</ele>
        <time>2020-07-29T21:22:16Z</time>
      </trkpt>
      <trkpt lat="46.64916" lon="5.75055">
        <ele>471</ele>
        <time>2020-07-29T21:22:23Z</time>
      </trkpt>
      <trkpt lat="46.64923" lon="5.75063">
        <ele>471</ele>
        <time>2020-07-29T21:22:24Z</time>
      </trkpt>
      <trkpt lat="46.64937" lon="5.75074">
        <ele>471</ele>
        <time>2020-07-29T21:22:27Z</time>
      </trkpt>
      <trkpt lat="46.64943" lon="5.75074">
        <ele>470</ele>
        <time>2020-07-29T21:22:28Z</time>
      </trkpt>
      <trkpt lat="46.64948" lon="5.7507">
        <ele>469</ele>
        <time>2020-07-29T21:22:29Z</time>
      </trkpt>
      <trkpt lat="46.64952" lon="5.75064">
        <ele>469</ele>
        <time>2020-07-29T21:22:30Z</time>
      </trkpt>
      <trkpt lat="46.64955" lon="5.75053">
        <ele>468</ele>
        <time>2020-07-29T21:22:32Z</time>
      </trkpt>
      <trkpt lat="46.64957" lon="5.75037">
        <ele>467</ele>
        <time>2020-07-29T21:22:34Z</time>
      </trkpt>
      <trkpt lat="46.64961" lon="5.75013">
        <ele>466</ele>
        <time>2020-07-29T21:22:37Z</time>
      </trkpt>
      <trkpt lat="46.64967" lon="5.74995">
        <ele>466</ele>
        <time>2020-07-29T21:22:39Z</time>
      </trkpt>
      <trkpt lat="46.64977" lon="5.74974">
        <ele>465</ele>
        <time>2020-07-29T21:22:42Z</time>
      </trkpt>
      <trkpt lat="46.65006" lon="5.74935">
        <ele>465</ele>
        <time>2020-07-29T21:22:49Z</time>
      </trkpt>
      <trkpt lat="46.65034" lon="5.74904">
        <ele>467</ele>
        <time>2020-07-29T21:22:55Z</time>
      </trkpt>
      <trkpt lat="46.65043" lon="5.74892">
        <ele>467</ele>
        <time>2020-07-29T21:22:58Z</time>
      </trkpt>
      <trkpt lat="46.6505" lon="5.74879">
        <ele>467</ele>
        <time>2020-07-29T21:23:00Z</time>
      </trkpt>
      <trkpt lat="46.65059" lon="5.7485">
        <ele>467</ele>
        <time>2020-07-29T21:23:04Z</time>
      </trkpt>
      <trkpt lat="46.65063" lon="5.74825">
        <ele>467</ele>
        <time>2020-07-29T21:23:07Z</time>
      </trkpt>
      <trkpt lat="46.65086" lon="5.74632">
        <ele>471</ele>
        <time>2020-07-29T21:23:31Z</time>
      </trkpt>
      <trkpt lat="46.65084" lon="5.74594">
        <ele>472</ele>
        <time>2020-07-29T21:23:35Z</time>
      </trkpt>
      <trkpt lat="46.65069" lon="5.74529">
        <ele>472</ele>
        <time>2020-07-29T21:23:44Z</time>
      </trkpt>
      <trkpt lat="46.65068" lon="5.74514">
        <ele>473</ele>
        <time>2020-07-29T21:23:45Z</time>
      </trkpt>
      <trkpt lat="46.65071" lon="5.74483">
        <ele>474</ele>
        <time>2020-07-29T21:23:49Z</time>
      </trkpt>
      <trkpt lat="46.65085" lon="5.74435">
        <ele>476</ele>
        <time>2020-07-29T21:23:56Z</time>
      </trkpt>
      <trkpt lat="46.65125" lon="5.74301">
        <ele>479</ele>
        <time>2020-07-29T21:24:14Z</time>
      </trkpt>
      <trkpt lat="46.65133" lon="5.7428">
        <ele>479</ele>
        <time>2020-07-29T21:24:16Z</time>
      </trkpt>
      <trkpt lat="46.65154" lon="5.74246">
        <ele>480</ele>
        <time>2020-07-29T21:24:22Z</time>
      </trkpt>
      <trkpt lat="46.65164" lon="5.74235">
        <ele>480</ele>
        <time>2020-07-29T21:24:24Z</time>
      </trkpt>
      <trkpt lat="46.65173" lon="5.74223">
        <ele>479</ele>
        <time>2020-07-29T21:24:26Z</time>
      </trkpt>
      <trkpt lat="46.65187" lon="5.74211">
        <ele>479</ele>
        <time>2020-07-29T21:24:29Z</time>
      </trkpt>
      <trkpt lat="46.65201" lon="5.742">
        <ele>478</ele>
        <time>2020-07-29T21:24:32Z</time>
      </trkpt>
      <trkpt lat="46.65218" lon="5.74197">
        <ele>477</ele>
        <time>2020-07-29T21:24:35Z</time>
      </trkpt>
      <trkpt lat="46.65234" lon="5.74195">
        <ele>477</ele>
        <time>2020-07-29T21:24:38Z</time>
      </trkpt>
      <trkpt lat="46.65243" lon="5.74197">
        <ele>476</ele>
        <time>2020-07-29T21:24:40Z</time>
      </trkpt>
      <trkpt lat="46.65256" lon="5.74201">
        <ele>476</ele>
        <time>2020-07-29T21:24:42Z</time>
      </trkpt>
      <trkpt lat="46.65273" lon="5.74211">
        <ele>475</ele>
        <time>2020-07-29T21:24:45Z</time>
      </trkpt>
      <trkpt lat="46.65375" lon="5.74285">
        <ele>470</ele>
        <time>2020-07-29T21:25:06Z</time>
      </trkpt>
      <trkpt lat="46.65397" lon="5.74307">
        <ele>470</ele>
        <time>2020-07-29T21:25:10Z</time>
      </trkpt>
      <trkpt lat="46.65426" lon="5.74355">
        <ele>472</ele>
        <time>2020-07-29T21:25:18Z</time>
      </trkpt>
      <trkpt lat="46.65433" lon="5.74361">
        <ele>472</ele>
        <time>2020-07-29T21:25:20Z</time>
      </trkpt>
      <trkpt lat="46.65445" lon="5.74365">
        <ele>471</ele>
        <time>2020-07-29T21:25:22Z</time>
      </trkpt>
      <trkpt lat="46.6545" lon="5.74363">
        <ele>471</ele>
        <time>2020-07-29T21:25:23Z</time>
      </trkpt>
      <trkpt lat="46.65459" lon="5.74359">
        <ele>470</ele>
        <time>2020-07-29T21:25:24Z</time>
      </trkpt>
      <trkpt lat="46.65473" lon="5.74347">
        <ele>468</ele>
        <time>2020-07-29T21:25:27Z</time>
      </trkpt>
      <trkpt lat="46.65475" lon="5.74344">
        <ele>468</ele>
        <time>2020-07-29T21:25:28Z</time>
      </trkpt>
      <trkpt lat="46.65445" lon="5.74277">
        <ele>465</ele>
        <time>2020-07-29T21:25:38Z</time>
      </trkpt>
      <trkpt lat="46.65436" lon="5.74257">
        <ele>465</ele>
        <time>2020-07-29T21:25:40Z</time>
      </trkpt>
      <trkpt lat="46.65405" lon="5.74191">
        <ele>462</ele>
        <time>2020-07-29T21:25:50Z</time>
      </trkpt>
      <trkpt lat="46.65401" lon="5.74175">
        <ele>462</ele>
        <time>2020-07-29T21:25:52Z</time>
      </trkpt>
      <trkpt lat="46.65399" lon="5.74158">
        <ele>461</ele>
        <time>2020-07-29T21:25:54Z</time>
      </trkpt>
      <trkpt lat="46.65399" lon="5.74141">
        <ele>460</ele>
        <time>2020-07-29T21:25:56Z</time>
      </trkpt>
      <trkpt lat="46.65405" lon="5.74125">
        <ele>459</ele>
        <time>2020-07-29T21:25:59Z</time>
      </trkpt>
      <trkpt lat="46.65415" lon="5.74106">
        <ele>457</ele>
        <time>2020-07-29T21:26:02Z</time>
      </trkpt>
      <trkpt lat="46.6545" lon="5.74049">
        <ele>457</ele>
        <time>2020-07-29T21:26:11Z</time>
      </trkpt>
      <trkpt lat="46.65458" lon="5.74036">
        <ele>458</ele>
        <time>2020-07-29T21:26:13Z</time>
      </trkpt>
      <trkpt lat="46.65469" lon="5.74008">
        <ele>459</ele>
        <time>2020-07-29T21:26:17Z</time>
      </trkpt>
      <trkpt lat="46.65477" lon="5.73969">
        <ele>460</ele>
        <time>2020-07-29T21:26:22Z</time>
      </trkpt>
      <trkpt lat="46.65479" lon="5.7394">
        <ele>461</ele>
        <time>2020-07-29T21:26:26Z</time>
      </trkpt>
      <trkpt lat="46.65483" lon="5.73834">
        <ele>462</ele>
        <time>2020-07-29T21:26:39Z</time>
      </trkpt>
      <trkpt lat="46.65495" lon="5.73592">
        <ele>463</ele>
        <time>2020-07-29T21:27:08Z</time>
      </trkpt>
      <trkpt lat="46.65499" lon="5.73539">
        <ele>462</ele>
        <time>2020-07-29T21:27:15Z</time>
      </trkpt>
      <trkpt lat="46.65506" lon="5.73488">
        <ele>462</ele>
        <time>2020-07-29T21:27:21Z</time>
      </trkpt>
      <trkpt lat="46.65516" lon="5.73439">
        <ele>463</ele>
        <time>2020-07-29T21:27:27Z</time>
      </trkpt>
      <trkpt lat="46.65521" lon="5.73426">
        <ele>464</ele>
        <time>2020-07-29T21:27:29Z</time>
      </trkpt>
      <trkpt lat="46.65527" lon="5.73415">
        <ele>464</ele>
        <time>2020-07-29T21:27:31Z</time>
      </trkpt>
      <trkpt lat="46.65541" lon="5.73396">
        <ele>464</ele>
        <time>2020-07-29T21:27:34Z</time>
      </trkpt>
      <trkpt lat="46.65556" lon="5.73382">
        <ele>465</ele>
        <time>2020-07-29T21:27:37Z</time>
      </trkpt>
      <trkpt lat="46.65571" lon="5.73372">
        <ele>465</ele>
        <time>2020-07-29T21:27:40Z</time>
      </trkpt>
      <trkpt lat="46.65585" lon="5.73366">
        <ele>466</ele>
        <time>2020-07-29T21:27:43Z</time>
      </trkpt>
      <trkpt lat="46.65606" lon="5.73357">
        <ele>467</ele>
        <time>2020-07-29T21:27:47Z</time>
      </trkpt>
      <trkpt lat="46.65622" lon="5.73351">
        <ele>467</ele>
        <time>2020-07-29T21:27:50Z</time>
      </trkpt>
      <trkpt lat="46.65623" lon="5.73348">
        <ele>467</ele>
        <time>2020-07-29T21:27:50Z</time>
      </trkpt>
      <trkpt lat="46.65653" lon="5.73314">
        <ele>469</ele>
        <time>2020-07-29T21:27:57Z</time>
      </trkpt>
      <trkpt lat="46.65667" lon="5.73296">
        <ele>470</ele>
        <time>2020-07-29T21:28:00Z</time>
      </trkpt>
      <trkpt lat="46.65678" lon="5.73275">
        <ele>471</ele>
        <time>2020-07-29T21:28:03Z</time>
      </trkpt>
      <trkpt lat="46.65688" lon="5.73248">
        <ele>472</ele>
        <time>2020-07-29T21:28:07Z</time>
      </trkpt>
      <trkpt lat="46.65696" lon="5.73219">
        <ele>474</ele>
        <time>2020-07-29T21:28:11Z</time>
      </trkpt>
      <trkpt lat="46.65712" lon="5.73152">
        <ele>476</ele>
        <time>2020-07-29T21:28:20Z</time>
      </trkpt>
      <trkpt lat="46.65713" lon="5.73128">
        <ele>478</ele>
        <time>2020-07-29T21:28:23Z</time>
      </trkpt>
      <trkpt lat="46.6571" lon="5.73112">
        <ele>478</ele>
        <time>2020-07-29T21:28:25Z</time>
      </trkpt>
      <trkpt lat="46.6568" lon="5.73043">
        <ele>478</ele>
        <time>2020-07-29T21:28:35Z</time>
      </trkpt>
      <trkpt lat="46.65671" lon="5.73012">
        <ele>478</ele>
        <time>2020-07-29T21:28:39Z</time>
      </trkpt>
      <trkpt lat="46.6566" lon="5.72955">
        <ele>478</ele>
        <time>2020-07-29T21:28:46Z</time>
      </trkpt>
      <trkpt lat="46.6566" lon="5.72918">
        <ele>479</ele>
        <time>2020-07-29T21:28:50Z</time>
      </trkpt>
      <trkpt lat="46.65662" lon="5.72898">
        <ele>480</ele>
        <time>2020-07-29T21:28:53Z</time>
      </trkpt>
      <trkpt lat="46.65675" lon="5.72851">
        <ele>482</ele>
        <time>2020-07-29T21:28:59Z</time>
      </trkpt>
      <trkpt lat="46.65675" lon="5.72836">
        <ele>482</ele>
        <time>2020-07-29T21:29:01Z</time>
      </trkpt>
      <trkpt lat="46.6567" lon="5.72761">
        <ele>482</ele>
        <time>2020-07-29T21:29:10Z</time>
      </trkpt>
      <trkpt lat="46.65662" lon="5.72686">
        <ele>481</ele>
        <time>2020-07-29T21:29:19Z</time>
      </trkpt>
      <trkpt lat="46.65651" lon="5.72642">
        <ele>481</ele>
        <time>2020-07-29T21:29:25Z</time>
      </trkpt>
      <trkpt lat="46.65639" lon="5.72567">
        <ele>481</ele>
        <time>2020-07-29T21:29:35Z</time>
      </trkpt>
      <trkpt lat="46.6564" lon="5.7255">
        <ele>481</ele>
        <time>2020-07-29T21:29:37Z</time>
      </trkpt>
      <trkpt lat="46.65644" lon="5.72532">
        <ele>481</ele>
        <time>2020-07-29T21:29:39Z</time>
      </trkpt>
      <trkpt lat="46.65653" lon="5.72513">
        <ele>481</ele>
        <time>2020-07-29T21:29:42Z</time>
      </trkpt>
      <trkpt lat="46.65645" lon="5.72501">
        <ele>480</ele>
        <time>2020-07-29T21:29:44Z</time>
      </trkpt>
      <trkpt lat="46.65637" lon="5.72489">
        <ele>480</ele>
        <time>2020-07-29T21:29:46Z</time>
      </trkpt>
      <trkpt lat="46.65629" lon="5.72478">
        <ele>479</ele>
        <time>2020-07-29T21:29:48Z</time>
      </trkpt>
      <trkpt lat="46.65621" lon="5.72469">
        <ele>479</ele>
        <time>2020-07-29T21:29:50Z</time>
      </trkpt>
      <trkpt lat="46.65603" lon="5.72448">
        <ele>478</ele>
        <time>2020-07-29T21:29:54Z</time>
      </trkpt>
      <trkpt lat="46.65587" lon="5.72433">
        <ele>477</ele>
        <time>2020-07-29T21:29:57Z</time>
      </trkpt>
      <trkpt lat="46.65526" lon="5.72386">
        <ele>474</ele>
        <time>2020-07-29T21:30:09Z</time>
      </trkpt>
      <trkpt lat="46.65467" lon="5.72324">
        <ele>471</ele>
        <time>2020-07-29T21:30:22Z</time>
      </trkpt>
      <trkpt lat="46.65375" lon="5.7224">
        <ele>469</ele>
        <time>2020-07-29T21:30:42Z</time>
      </trkpt>
      <trkpt lat="46.65318" lon="5.72177">
        <ele>471</ele>
        <time>2020-07-29T21:30:54Z</time>
      </trkpt>
      <trkpt lat="46.6527" lon="5.72128">
        <ele>472</ele>
        <time>2020-07-29T21:31:05Z</time>
      </trkpt>
      <trkpt lat="46.65257" lon="5.72114">
        <ele>472</ele>
        <time>2020-07-29T21:31:08Z</time>
      </trkpt>
      <trkpt lat="46.65234" lon="5.72084">
        <ele>473</ele>
        <time>2020-07-29T21:31:13Z</time>
      </trkpt>
      <trkpt lat="46.65216" lon="5.72056">
        <ele>472</ele>
        <time>2020-07-29T21:31:18Z</time>
      </trkpt>
      <trkpt lat="46.65206" lon="5.72037">
        <ele>471</ele>
        <time>2020-07-29T21:31:21Z</time>
      </trkpt>
      <trkpt lat="46.65193" lon="5.72005">
        <ele>470</ele>
        <time>2020-07-29T21:31:25Z</time>
      </trkpt>
      <trkpt lat="46.65188" lon="5.71991">
        <ele>469</ele>
        <time>2020-07-29T21:31:27Z</time>
      </trkpt>
      <trkpt lat="46.6518" lon="5.71954">
        <ele>470</ele>
        <time>2020-07-29T21:31:32Z</time>
      </trkpt>
      <trkpt lat="46.6517" lon="5.71924">
        <ele>470</ele>
        <time>2020-07-29T21:31:36Z</time>
      </trkpt>
      <trkpt lat="46.65143" lon="5.71881">
        <ele>470</ele>
        <time>2020-07-29T21:31:43Z</time>
      </trkpt>
      <trkpt lat="46.65133" lon="5.71863">
        <ele>470</ele>
        <time>2020-07-29T21:31:46Z</time>
      </trkpt>
      <trkpt lat="46.65119" lon="5.71823">
        <ele>471</ele>
        <time>2020-07-29T21:31:52Z</time>
      </trkpt>
      <trkpt lat="46.65111" lon="5.71786">
        <ele>473</ele>
        <time>2020-07-29T21:31:56Z</time>
      </trkpt>
      <trkpt lat="46.65107" lon="5.71757">
        <ele>475</ele>
        <time>2020-07-29T21:32:00Z</time>
      </trkpt>
      <trkpt lat="46.65104" lon="5.71734">
        <ele>477</ele>
        <time>2020-07-29T21:32:03Z</time>
      </trkpt>
      <trkpt lat="46.65101" lon="5.71677">
        <ele>483</ele>
        <time>2020-07-29T21:32:10Z</time>
      </trkpt>
      <trkpt lat="46.65093" lon="5.71642">
        <ele>486</ele>
        <time>2020-07-29T21:32:14Z</time>
      </trkpt>
      <trkpt lat="46.65085" lon="5.7162">
        <ele>487</ele>
        <time>2020-07-29T21:32:17Z</time>
      </trkpt>
      <trkpt lat="46.65063" lon="5.71572">
        <ele>489</ele>
        <time>2020-07-29T21:32:24Z</time>
      </trkpt>
      <trkpt lat="46.65045" lon="5.71542">
        <ele>489</ele>
        <time>2020-07-29T21:32:29Z</time>
      </trkpt>
      <trkpt lat="46.64988" lon="5.71464">
        <ele>488</ele>
        <time>2020-07-29T21:32:43Z</time>
      </trkpt>
      <trkpt lat="46.64912" lon="5.71361">
        <ele>487</ele>
        <time>2020-07-29T21:33:02Z</time>
      </trkpt>
      <trkpt lat="46.64853" lon="5.71282">
        <ele>491</ele>
        <time>2020-07-29T21:33:16Z</time>
      </trkpt>
      <trkpt lat="46.64788" lon="5.71195">
        <ele>497</ele>
        <time>2020-07-29T21:33:32Z</time>
      </trkpt>
      <trkpt lat="46.64762" lon="5.71173">
        <ele>498</ele>
        <time>2020-07-29T21:33:37Z</time>
      </trkpt>
      <trkpt lat="46.64737" lon="5.71162">
        <ele>498</ele>
        <time>2020-07-29T21:33:42Z</time>
      </trkpt>
      <trkpt lat="46.64649" lon="5.71124">
        <ele>499</ele>
        <time>2020-07-29T21:33:58Z</time>
      </trkpt>
      <trkpt lat="46.64494" lon="5.71057">
        <ele>504</ele>
        <time>2020-07-29T21:34:27Z</time>
      </trkpt>
      <trkpt lat="46.64475" lon="5.7105">
        <ele>506</ele>
        <time>2020-07-29T21:34:30Z</time>
      </trkpt>
      <trkpt lat="46.64449" lon="5.71049">
        <ele>509</ele>
        <time>2020-07-29T21:34:35Z</time>
      </trkpt>
      <trkpt lat="46.64438" lon="5.71054">
        <ele>510</ele>
        <time>2020-07-29T21:34:37Z</time>
      </trkpt>
      <trkpt lat="46.64427" lon="5.71062">
        <ele>511</ele>
        <time>2020-07-29T21:34:39Z</time>
      </trkpt>
      <trkpt lat="46.64418" lon="5.71074">
        <ele>513</ele>
        <time>2020-07-29T21:34:41Z</time>
      </trkpt>
      <trkpt lat="46.6441" lon="5.71091">
        <ele>513</ele>
        <time>2020-07-29T21:34:44Z</time>
      </trkpt>
      <trkpt lat="46.64406" lon="5.71107">
        <ele>514</ele>
        <time>2020-07-29T21:34:46Z</time>
      </trkpt>
      <trkpt lat="46.64398" lon="5.71171">
        <ele>515</ele>
        <time>2020-07-29T21:34:54Z</time>
      </trkpt>
      <trkpt lat="46.64385" lon="5.71237">
        <ele>518</ele>
        <time>2020-07-29T21:35:02Z</time>
      </trkpt>
      <trkpt lat="46.6438" lon="5.71271">
        <ele>520</ele>
        <time>2020-07-29T21:35:06Z</time>
      </trkpt>
      <trkpt lat="46.64362" lon="5.71351">
        <ele>524</ele>
        <time>2020-07-29T21:35:17Z</time>
      </trkpt>
      <trkpt lat="46.64353" lon="5.71379">
        <ele>524</ele>
        <time>2020-07-29T21:35:20Z</time>
      </trkpt>
      <trkpt lat="46.64323" lon="5.71453">
        <ele>527</ele>
        <time>2020-07-29T21:35:31Z</time>
      </trkpt>
      <trkpt lat="46.64318" lon="5.71471">
        <ele>527</ele>
        <time>2020-07-29T21:35:33Z</time>
      </trkpt>
      <trkpt lat="46.64315" lon="5.7149">
        <ele>526</ele>
        <time>2020-07-29T21:35:36Z</time>
      </trkpt>
      <trkpt lat="46.64315" lon="5.71542">
        <ele>524</ele>
        <time>2020-07-29T21:35:42Z</time>
      </trkpt>
      <trkpt lat="46.64314" lon="5.71561">
        <ele>524</ele>
        <time>2020-07-29T21:35:44Z</time>
      </trkpt>
      <trkpt lat="46.6431" lon="5.71587">
        <ele>524</ele>
        <time>2020-07-29T21:35:48Z</time>
      </trkpt>
      <trkpt lat="46.64304" lon="5.71603">
        <ele>524</ele>
        <time>2020-07-29T21:35:50Z</time>
      </trkpt>
      <trkpt lat="46.64291" lon="5.71628">
        <ele>525</ele>
        <time>2020-07-29T21:35:54Z</time>
      </trkpt>
      <trkpt lat="46.6426" lon="5.71675">
        <ele>525</ele>
        <time>2020-07-29T21:36:02Z</time>
      </trkpt>
      <trkpt lat="46.6423" lon="5.7171">
        <ele>525</ele>
        <time>2020-07-29T21:36:08Z</time>
      </trkpt>
      <trkpt lat="46.6421" lon="5.71725">
        <ele>524</ele>
        <time>2020-07-29T21:36:12Z</time>
      </trkpt>
      <trkpt lat="46.64189" lon="5.71736">
        <ele>522</ele>
        <time>2020-07-29T21:36:16Z</time>
      </trkpt>
      <trkpt lat="46.6417" lon="5.71741">
        <ele>521</ele>
        <time>2020-07-29T21:36:20Z</time>
      </trkpt>
      <trkpt lat="46.64148" lon="5.71742">
        <ele>521</ele>
        <time>2020-07-29T21:36:24Z</time>
      </trkpt>
      <trkpt lat="46.64133" lon="5.7174">
        <ele>522</ele>
        <time>2020-07-29T21:36:26Z</time>
      </trkpt>
      <trkpt lat="46.64107" lon="5.71732">
        <ele>523</ele>
        <time>2020-07-29T21:36:31Z</time>
      </trkpt>
      <trkpt lat="46.64082" lon="5.71718">
        <ele>524</ele>
        <time>2020-07-29T21:36:36Z</time>
      </trkpt>
      <trkpt lat="46.64059" lon="5.71701">
        <ele>524</ele>
        <time>2020-07-29T21:36:41Z</time>
      </trkpt>
      <trkpt lat="46.64041" lon="5.71682">
        <ele>523</ele>
        <time>2020-07-29T21:36:44Z</time>
      </trkpt>
      <trkpt lat="46.64001" lon="5.71626">
        <ele>523</ele>
        <time>2020-07-29T21:36:54Z</time>
      </trkpt>
      <trkpt lat="46.63991" lon="5.71614">
        <ele>523</ele>
        <time>2020-07-29T21:36:57Z</time>
      </trkpt>
      <trkpt lat="46.63985" lon="5.71607">
        <ele>523</ele>
        <time>2020-07-29T21:36:58Z</time>
      </trkpt>
      <trkpt lat="46.63822" lon="5.71452">
        <ele>516</ele>
        <time>2020-07-29T21:37:33Z</time>
      </trkpt>
      <trkpt lat="46.63787" lon="5.71422">
        <ele>512</ele>
        <time>2020-07-29T21:37:40Z</time>
      </trkpt>
      <trkpt lat="46.63741" lon="5.71391">
        <ele>507</ele>
        <time>2020-07-29T21:37:49Z</time>
      </trkpt>
      <trkpt lat="46.63695" lon="5.71364">
        <ele>505</ele>
        <time>2020-07-29T21:37:58Z</time>
      </trkpt>
      <trkpt lat="46.63684" lon="5.71355">
        <ele>504</ele>
        <time>2020-07-29T21:38:00Z</time>
      </trkpt>
      <trkpt lat="46.63676" lon="5.71344">
        <ele>504</ele>
        <time>2020-07-29T21:38:02Z</time>
      </trkpt>
      <trkpt lat="46.63672" lon="5.71337">
        <ele>504</ele>
        <time>2020-07-29T21:38:03Z</time>
      </trkpt>
      <trkpt lat="46.63665" lon="5.71326">
        <ele>504</ele>
        <time>2020-07-29T21:38:05Z</time>
      </trkpt>
      <trkpt lat="46.63622" lon="5.71214">
        <ele>506</ele>
        <time>2020-07-29T21:38:21Z</time>
      </trkpt>
      <trkpt lat="46.63611" lon="5.71195">
        <ele>507</ele>
        <time>2020-07-29T21:38:24Z</time>
      </trkpt>
      <trkpt lat="46.63598" lon="5.71182">
        <ele>507</ele>
        <time>2020-07-29T21:38:26Z</time>
      </trkpt>
      <trkpt lat="46.63588" lon="5.71175">
        <ele>507</ele>
        <time>2020-07-29T21:38:28Z</time>
      </trkpt>
      <trkpt lat="46.63548" lon="5.71161">
        <ele>505</ele>
        <time>2020-07-29T21:38:36Z</time>
      </trkpt>
      <trkpt lat="46.63414" lon="5.71133">
        <ele>502</ele>
        <time>2020-07-29T21:39:00Z</time>
      </trkpt>
      <trkpt lat="46.63303" lon="5.71133">
        <ele>496</ele>
        <time>2020-07-29T21:39:20Z</time>
      </trkpt>
      <trkpt lat="46.63269" lon="5.7113">
        <ele>493</ele>
        <time>2020-07-29T21:39:26Z</time>
      </trkpt>
      <trkpt lat="46.63245" lon="5.71126">
        <ele>491</ele>
        <time>2020-07-29T21:39:30Z</time>
      </trkpt>
      <trkpt lat="46.6323" lon="5.71121">
        <ele>490</ele>
        <time>2020-07-29T21:39:33Z</time>
      </trkpt>
      <trkpt lat="46.63216" lon="5.71112">
        <ele>490</ele>
        <time>2020-07-29T21:39:35Z</time>
      </trkpt>
      <trkpt lat="46.63205" lon="5.71101">
        <ele>489</ele>
        <time>2020-07-29T21:39:38Z</time>
      </trkpt>
      <trkpt lat="46.63192" lon="5.7108">
        <ele>488</ele>
        <time>2020-07-29T21:39:41Z</time>
      </trkpt>
      <trkpt lat="46.6318" lon="5.71055">
        <ele>487</ele>
        <time>2020-07-29T21:39:45Z</time>
      </trkpt>
      <trkpt lat="46.63175" lon="5.71041">
        <ele>486</ele>
        <time>2020-07-29T21:39:47Z</time>
      </trkpt>
      <trkpt lat="46.63158" lon="5.70995">
        <ele>484</ele>
        <time>2020-07-29T21:39:53Z</time>
      </trkpt>
      <trkpt lat="46.63141" lon="5.70952">
        <ele>483</ele>
        <time>2020-07-29T21:39:59Z</time>
      </trkpt>
      <trkpt lat="46.63123" lon="5.70911">
        <ele>481</ele>
        <time>2020-07-29T21:40:05Z</time>
      </trkpt>
      <trkpt lat="46.63107" lon="5.70885">
        <ele>480</ele>
        <time>2020-07-29T21:40:09Z</time>
      </trkpt>
      <trkpt lat="46.63087" lon="5.70862">
        <ele>478</ele>
        <time>2020-07-29T21:40:14Z</time>
      </trkpt>
      <trkpt lat="46.6307" lon="5.70848">
        <ele>477</ele>
        <time>2020-07-29T21:40:17Z</time>
      </trkpt>
      <trkpt lat="46.6305" lon="5.70838">
        <ele>475</ele>
        <time>2020-07-29T21:40:21Z</time>
      </trkpt>
      <trkpt lat="46.6297" lon="5.70804">
        <ele>471</ele>
        <time>2020-07-29T21:40:36Z</time>
      </trkpt>
      <trkpt lat="46.62908" lon="5.70776">
        <ele>468</ele>
        <time>2020-07-29T21:40:48Z</time>
      </trkpt>
      <trkpt lat="46.62826" lon="5.70738">
        <ele>466</ele>
        <time>2020-07-29T21:41:03Z</time>
      </trkpt>
      <trkpt lat="46.62745" lon="5.70712">
        <ele>468</ele>
        <time>2020-07-29T21:41:18Z</time>
      </trkpt>
      <trkpt lat="46.62702" lon="5.70693">
        <ele>470</ele>
        <time>2020-07-29T21:41:26Z</time>
      </trkpt>
      <trkpt lat="46.6264" lon="5.70661">
        <ele>470</ele>
        <time>2020-07-29T21:41:37Z</time>
      </trkpt>
      <trkpt lat="46.6258" lon="5.70612">
        <ele>470</ele>
        <time>2020-07-29T21:41:50Z</time>
      </trkpt>
      <trkpt lat="46.62521" lon="5.70573">
        <ele>471</ele>
        <time>2020-07-29T21:42:01Z</time>
      </trkpt>
      <trkpt lat="46.62504" lon="5.70559">
        <ele>471</ele>
        <time>2020-07-29T21:42:05Z</time>
      </trkpt>
      <trkpt lat="46.62486" lon="5.70541">
        <ele>471</ele>
        <time>2020-07-29T21:42:09Z</time>
      </trkpt>
      <trkpt lat="46.62462" lon="5.7051">
        <ele>471</ele>
        <time>2020-07-29T21:42:14Z</time>
      </trkpt>
      <trkpt lat="46.62437" lon="5.70487">
        <ele>470</ele>
        <time>2020-07-29T21:42:19Z</time>
      </trkpt>
      <trkpt lat="46.62429" lon="5.70478">
        <ele>470</ele>
        <time>2020-07-29T21:42:21Z</time>
      </trkpt>
      <trkpt lat="46.62417" lon="5.70459">
        <ele>471</ele>
        <time>2020-07-29T21:42:24Z</time>
      </trkpt>
      <trkpt lat="46.6241" lon="5.70451">
        <ele>471</ele>
        <time>2020-07-29T21:42:26Z</time>
      </trkpt>
      <trkpt lat="46.62403" lon="5.70444">
        <ele>472</ele>
        <time>2020-07-29T21:42:28Z</time>
      </trkpt>
      <trkpt lat="46.62392" lon="5.70438">
        <ele>472</ele>
        <time>2020-07-29T21:42:30Z</time>
      </trkpt>
      <trkpt lat="46.62362" lon="5.70437">
        <ele>473</ele>
        <time>2020-07-29T21:42:35Z</time>
      </trkpt>
      <trkpt lat="46.62353" lon="5.70436">
        <ele>473</ele>
        <time>2020-07-29T21:42:37Z</time>
      </trkpt>
      <trkpt lat="46.62316" lon="5.70426">
        <ele>474</ele>
        <time>2020-07-29T21:42:43Z</time>
      </trkpt>
      <trkpt lat="46.62297" lon="5.7042">
        <ele>474</ele>
        <time>2020-07-29T21:42:47Z</time>
      </trkpt>
      <trkpt lat="46.6229" lon="5.70413">
        <ele>474</ele>
        <time>2020-07-29T21:42:48Z</time>
      </trkpt>
      <trkpt lat="46.62285" lon="5.70402">
        <ele>474</ele>
        <time>2020-07-29T21:42:50Z</time>
      </trkpt>
      <trkpt lat="46.62285" lon="5.70371">
        <ele>474</ele>
        <time>2020-07-29T21:42:54Z</time>
      </trkpt>
      <trkpt lat="46.62283" lon="5.70361">
        <ele>473</ele>
        <time>2020-07-29T21:42:55Z</time>
      </trkpt>
      <trkpt lat="46.62279" lon="5.70352">
        <ele>473</ele>
        <time>2020-07-29T21:42:56Z</time>
      </trkpt>
      <trkpt lat="46.62271" lon="5.70346">
        <ele>474</ele>
        <time>2020-07-29T21:42:58Z</time>
      </trkpt>
      <trkpt lat="46.62232" lon="5.70331">
        <ele>474</ele>
        <time>2020-07-29T21:43:05Z</time>
      </trkpt>
      <trkpt lat="46.62177" lon="5.70318">
        <ele>473</ele>
        <time>2020-07-29T21:43:15Z</time>
      </trkpt>
      <trkpt lat="46.62158" lon="5.70299">
        <ele>473</ele>
        <time>2020-07-29T21:43:19Z</time>
      </trkpt>
      <trkpt lat="46.62109" lon="5.70271">
        <ele>474</ele>
        <time>2020-07-29T21:43:28Z</time>
      </trkpt>
      <trkpt lat="46.62078" lon="5.70259">
        <ele>475</ele>
        <time>2020-07-29T21:43:34Z</time>
      </trkpt>
      <trkpt lat="46.62058" lon="5.70252">
        <ele>474</ele>
        <time>2020-07-29T21:43:38Z</time>
      </trkpt>
      <trkpt lat="46.62008" lon="5.70234">
        <ele>473</ele>
        <time>2020-07-29T21:43:47Z</time>
      </trkpt>
      <trkpt lat="46.61892" lon="5.70187">
        <ele>470</ele>
        <time>2020-07-29T21:44:08Z</time>
      </trkpt>
      <trkpt lat="46.61856" lon="5.70169">
        <ele>470</ele>
        <time>2020-07-29T21:44:15Z</time>
      </trkpt>
      <trkpt lat="46.61797" lon="5.70153">
        <ele>470</ele>
        <time>2020-07-29T21:44:26Z</time>
      </trkpt>
      <trkpt lat="46.61778" lon="5.70147">
        <ele>470</ele>
        <time>2020-07-29T21:44:29Z</time>
      </trkpt>
      <trkpt lat="46.6174" lon="5.70136">
        <ele>470</ele>
        <time>2020-07-29T21:44:36Z</time>
      </trkpt>
      <trkpt lat="46.61714" lon="5.70133">
        <ele>469</ele>
        <time>2020-07-29T21:44:41Z</time>
      </trkpt>
      <trkpt lat="46.6165" lon="5.70147">
        <ele>468</ele>
        <time>2020-07-29T21:44:52Z</time>
      </trkpt>
      <trkpt lat="46.61608" lon="5.70151">
        <ele>467</ele>
        <time>2020-07-29T21:45:00Z</time>
      </trkpt>
      <trkpt lat="46.61595" lon="5.7015">
        <ele>467</ele>
        <time>2020-07-29T21:45:02Z</time>
      </trkpt>
      <trkpt lat="46.6157" lon="5.70144">
        <ele>466</ele>
        <time>2020-07-29T21:45:07Z</time>
      </trkpt>
      <trkpt lat="46.61479" lon="5.70099">
        <ele>468</ele>
        <time>2020-07-29T21:45:24Z</time>
      </trkpt>
      <trkpt lat="46.61417" lon="5.70072">
        <ele>467</ele>
        <time>2020-07-29T21:45:35Z</time>
      </trkpt>
      <trkpt lat="46.61383" lon="5.70052">
        <ele>467</ele>
        <time>2020-07-29T21:45:42Z</time>
      </trkpt>
      <trkpt lat="46.6134" lon="5.70018">
        <ele>465</ele>
        <time>2020-07-29T21:45:50Z</time>
      </trkpt>
      <trkpt lat="46.61302" lon="5.69986">
        <ele>465</ele>
        <time>2020-07-29T21:45:58Z</time>
      </trkpt>
      <trkpt lat="46.61279" lon="5.69966">
        <ele>466</ele>
        <time>2020-07-29T21:46:03Z</time>
      </trkpt>
      <trkpt lat="46.61269" lon="5.69953">
        <ele>466</ele>
        <time>2020-07-29T21:46:05Z</time>
      </trkpt>
      <trkpt lat="46.61264" lon="5.69941">
        <ele>466</ele>
        <time>2020-07-29T21:46:07Z</time>
      </trkpt>
      <trkpt lat="46.61254" lon="5.69923">
        <ele>467</ele>
        <time>2020-07-29T21:46:10Z</time>
      </trkpt>
      <trkpt lat="46.6118" lon="5.69721">
        <ele>467</ele>
        <time>2020-07-29T21:46:38Z</time>
      </trkpt>
      <trkpt lat="46.61147" lon="5.69653">
        <ele>465</ele>
        <time>2020-07-29T21:46:48Z</time>
      </trkpt>
      <trkpt lat="46.61126" lon="5.69622">
        <ele>463</ele>
        <time>2020-07-29T21:46:53Z</time>
      </trkpt>
      <trkpt lat="46.61115" lon="5.6961">
        <ele>462</ele>
        <time>2020-07-29T21:46:56Z</time>
      </trkpt>
      <trkpt lat="46.61053" lon="5.69568">
        <ele>459</ele>
        <time>2020-07-29T21:47:08Z</time>
      </trkpt>
      <trkpt lat="46.6104" lon="5.69557">
        <ele>459</ele>
        <time>2020-07-29T21:47:11Z</time>
      </trkpt>
      <trkpt lat="46.60896" lon="5.6941">
        <ele>463</ele>
        <time>2020-07-29T21:47:42Z</time>
      </trkpt>
      <trkpt lat="46.60778" lon="5.69278">
        <ele>469</ele>
        <time>2020-07-29T21:48:09Z</time>
      </trkpt>
      <trkpt lat="46.60732" lon="5.69231">
        <ele>470</ele>
        <time>2020-07-29T21:48:19Z</time>
      </trkpt>
      <trkpt lat="46.60641" lon="5.69141">
        <ele>472</ele>
        <time>2020-07-29T21:48:38Z</time>
      </trkpt>
      <trkpt lat="46.60628" lon="5.69126">
        <ele>472</ele>
        <time>2020-07-29T21:48:41Z</time>
      </trkpt>
      <trkpt lat="46.60565" lon="5.69028">
        <ele>470</ele>
        <time>2020-07-29T21:48:57Z</time>
      </trkpt>
      <trkpt lat="46.60536" lon="5.68995">
        <ele>468</ele>
        <time>2020-07-29T21:49:04Z</time>
      </trkpt>
      <trkpt lat="46.6047" lon="5.68933">
        <ele>468</ele>
        <time>2020-07-29T21:49:18Z</time>
      </trkpt>
      <trkpt lat="46.60425" lon="5.68897">
        <ele>469</ele>
        <time>2020-07-29T21:49:27Z</time>
      </trkpt>
      <trkpt lat="46.60411" lon="5.68891">
        <ele>469</ele>
        <time>2020-07-29T21:49:30Z</time>
      </trkpt>
      <trkpt lat="46.60402" lon="5.68891">
        <ele>469</ele>
        <time>2020-07-29T21:49:31Z</time>
      </trkpt>
      <trkpt lat="46.60388" lon="5.68896">
        <ele>469</ele>
        <time>2020-07-29T21:49:34Z</time>
      </trkpt>
      <trkpt lat="46.60378" lon="5.68904">
        <ele>469</ele>
        <time>2020-07-29T21:49:36Z</time>
      </trkpt>
      <trkpt lat="46.60346" lon="5.68945">
        <ele>470</ele>
        <time>2020-07-29T21:49:43Z</time>
      </trkpt>
      <trkpt lat="46.60335" lon="5.68955">
        <ele>470</ele>
        <time>2020-07-29T21:49:46Z</time>
      </trkpt>
      <trkpt lat="46.6033" lon="5.68959">
        <ele>471</ele>
        <time>2020-07-29T21:49:47Z</time>
      </trkpt>
      <trkpt lat="46.60314" lon="5.68961">
        <ele>471</ele>
        <time>2020-07-29T21:49:50Z</time>
      </trkpt>
      <trkpt lat="46.60283" lon="5.68951">
        <ele>470</ele>
        <time>2020-07-29T21:49:55Z</time>
      </trkpt>
      <trkpt lat="46.60218" lon="5.68931">
        <ele>470</ele>
        <time>2020-07-29T21:50:07Z</time>
      </trkpt>
      <trkpt lat="46.60189" lon="5.68922">
        <ele>470</ele>
        <time>2020-07-29T21:50:12Z</time>
      </trkpt>
      <trkpt lat="46.6016" lon="5.68913">
        <ele>470</ele>
        <time>2020-07-29T21:50:18Z</time>
      </trkpt>
      <trkpt lat="46.60139" lon="5.68905">
        <ele>470</ele>
        <time>2020-07-29T21:50:22Z</time>
      </trkpt>
      <trkpt lat="46.60126" lon="5.68901">
        <ele>470</ele>
        <time>2020-07-29T21:50:24Z</time>
      </trkpt>
      <trkpt lat="46.6011" lon="5.68894">
        <ele>470</ele>
        <time>2020-07-29T21:50:27Z</time>
      </trkpt>
      <trkpt lat="46.60096" lon="5.68888">
        <ele>470</ele>
        <time>2020-07-29T21:50:29Z</time>
      </trkpt>
      <trkpt lat="46.60063" lon="5.68874">
        <ele>469</ele>
        <time>2020-07-29T21:50:36Z</time>
      </trkpt>
      <trkpt lat="46.60019" lon="5.68866">
        <ele>465</ele>
        <time>2020-07-29T21:50:43Z</time>
      </trkpt>
      <trkpt lat="46.60006" lon="5.68861">
        <ele>464</ele>
        <time>2020-07-29T21:50:46Z</time>
      </trkpt>
      <trkpt lat="46.59985" lon="5.68846">
        <ele>463</ele>
        <time>2020-07-29T21:50:50Z</time>
      </trkpt>
      <trkpt lat="46.59962" lon="5.68828">
        <ele>460</ele>
        <time>2020-07-29T21:50:55Z</time>
      </trkpt>
      <trkpt lat="46.5995" lon="5.68823">
        <ele>459</ele>
        <time>2020-07-29T21:50:57Z</time>
      </trkpt>
      <trkpt lat="46.5994" lon="5.68819">
        <ele>458</ele>
        <time>2020-07-29T21:50:59Z</time>
      </trkpt>
      <trkpt lat="46.59933" lon="5.68824">
        <ele>457</ele>
        <time>2020-07-29T21:51:00Z</time>
      </trkpt>
      <trkpt lat="46.5991" lon="5.68831">
        <ele>455</ele>
        <time>2020-07-29T21:51:04Z</time>
      </trkpt>
      <trkpt lat="46.59907" lon="5.68832">
        <ele>455</ele>
        <time>2020-07-29T21:51:05Z</time>
      </trkpt>
      <trkpt lat="46.59828" lon="5.68838">
        <ele>448</ele>
        <time>2020-07-29T21:51:19Z</time>
      </trkpt>
      <trkpt lat="46.59747" lon="5.68863">
        <ele>444</ele>
        <time>2020-07-29T21:51:34Z</time>
      </trkpt>
      <trkpt lat="46.59716" lon="5.68874">
        <ele>445</ele>
        <time>2020-07-29T21:51:39Z</time>
      </trkpt>
      <trkpt lat="46.59666" lon="5.68896">
        <ele>445</ele>
        <time>2020-07-29T21:51:49Z</time>
      </trkpt>
      <trkpt lat="46.5966" lon="5.68898">
        <ele>445</ele>
        <time>2020-07-29T21:51:50Z</time>
      </trkpt>
      <trkpt lat="46.59612" lon="5.68918">
        <ele>446</ele>
        <time>2020-07-29T21:51:59Z</time>
      </trkpt>
      <trkpt lat="46.59582" lon="5.68928">
        <ele>446</ele>
        <time>2020-07-29T21:52:04Z</time>
      </trkpt>
      <trkpt lat="46.59478" lon="5.68943">
        <ele>442</ele>
        <time>2020-07-29T21:52:23Z</time>
      </trkpt>
      <trkpt lat="46.59469" lon="5.68947">
        <ele>442</ele>
        <time>2020-07-29T21:52:24Z</time>
      </trkpt>
      <trkpt lat="46.5946" lon="5.68955">
        <ele>441</ele>
        <time>2020-07-29T21:52:26Z</time>
      </trkpt>
      <trkpt lat="46.59436" lon="5.68979">
        <ele>440</ele>
        <time>2020-07-29T21:52:31Z</time>
      </trkpt>
      <trkpt lat="46.59429" lon="5.68984">
        <ele>439</ele>
        <time>2020-07-29T21:52:33Z</time>
      </trkpt>
      <trkpt lat="46.59422" lon="5.68986">
        <ele>439</ele>
        <time>2020-07-29T21:52:34Z</time>
      </trkpt>
      <trkpt lat="46.59316" lon="5.68984">
        <ele>439</ele>
        <time>2020-07-29T21:52:53Z</time>
      </trkpt>
      <trkpt lat="46.59278" lon="5.68981">
        <ele>438</ele>
        <time>2020-07-29T21:53:00Z</time>
      </trkpt>
      <trkpt lat="46.59253" lon="5.68985">
        <ele>438</ele>
        <time>2020-07-29T21:53:04Z</time>
      </trkpt>
      <trkpt lat="46.59232" lon="5.68997">
        <ele>436</ele>
        <time>2020-07-29T21:53:08Z</time>
      </trkpt>
      <trkpt lat="46.5919" lon="5.69035">
        <ele>435</ele>
        <time>2020-07-29T21:53:17Z</time>
      </trkpt>
      <trkpt lat="46.59159" lon="5.69051">
        <ele>435</ele>
        <time>2020-07-29T21:53:23Z</time>
      </trkpt>
      <trkpt lat="46.59096" lon="5.69081">
        <ele>436</ele>
        <time>2020-07-29T21:53:35Z</time>
      </trkpt>
      <trkpt lat="46.59078" lon="5.69088">
        <ele>436</ele>
        <time>2020-07-29T21:53:38Z</time>
      </trkpt>
      <trkpt lat="46.59043" lon="5.69098">
        <ele>435</ele>
        <time>2020-07-29T21:53:44Z</time>
      </trkpt>
      <trkpt lat="46.58995" lon="5.69106">
        <ele>434</ele>
        <time>2020-07-29T21:53:53Z</time>
      </trkpt>
      <trkpt lat="46.58967" lon="5.69119">
        <ele>435</ele>
        <time>2020-07-29T21:53:58Z</time>
      </trkpt>
      <trkpt lat="46.58952" lon="5.69129">
        <ele>436</ele>
        <time>2020-07-29T21:54:01Z</time>
      </trkpt>
      <trkpt lat="46.58946" lon="5.69135">
        <ele>436</ele>
        <time>2020-07-29T21:54:02Z</time>
      </trkpt>
      <trkpt lat="46.5892" lon="5.69161">
        <ele>437</ele>
        <time>2020-07-29T21:54:08Z</time>
      </trkpt>
      <trkpt lat="46.58886" lon="5.69202">
        <ele>436</ele>
        <time>2020-07-29T21:54:16Z</time>
      </trkpt>
      <trkpt lat="46.58862" lon="5.69225">
        <ele>436</ele>
        <time>2020-07-29T21:54:21Z</time>
      </trkpt>
      <trkpt lat="46.58846" lon="5.69233">
        <ele>437</ele>
        <time>2020-07-29T21:54:24Z</time>
      </trkpt>
      <trkpt lat="46.58825" lon="5.69231">
        <ele>437</ele>
        <time>2020-07-29T21:54:28Z</time>
      </trkpt>
      <trkpt lat="46.58811" lon="5.69228">
        <ele>438</ele>
        <time>2020-07-29T21:54:30Z</time>
      </trkpt>
      <trkpt lat="46.58791" lon="5.69222">
        <ele>439</ele>
        <time>2020-07-29T21:54:34Z</time>
      </trkpt>
      <trkpt lat="46.58737" lon="5.69207">
        <ele>441</ele>
        <time>2020-07-29T21:54:44Z</time>
      </trkpt>
      <trkpt lat="46.58729" lon="5.69203">
        <ele>441</ele>
        <time>2020-07-29T21:54:45Z</time>
      </trkpt>
      <trkpt lat="46.58722" lon="5.692">
        <ele>441</ele>
        <time>2020-07-29T21:54:46Z</time>
      </trkpt>
      <trkpt lat="46.58719" lon="5.69198">
        <ele>441</ele>
        <time>2020-07-29T21:54:47Z</time>
      </trkpt>
      <trkpt lat="46.58702" lon="5.69254">
        <ele>442</ele>
        <time>2020-07-29T21:54:55Z</time>
      </trkpt>
      <trkpt lat="46.58682" lon="5.69321">
        <ele>441</ele>
        <time>2020-07-29T21:55:03Z</time>
      </trkpt>
      <trkpt lat="46.58674" lon="5.69346">
        <ele>441</ele>
        <time>2020-07-29T21:55:07Z</time>
      </trkpt>
      <trkpt lat="46.58661" lon="5.6939">
        <ele>441</ele>
        <time>2020-07-29T21:55:13Z</time>
      </trkpt>
      <trkpt lat="46.58641" lon="5.69457">
        <ele>441</ele>
        <time>2020-07-29T21:55:22Z</time>
      </trkpt>
      <trkpt lat="46.58637" lon="5.69469">
        <ele>441</ele>
        <time>2020-07-29T21:55:23Z</time>
      </trkpt>
      <trkpt lat="46.58636" lon="5.69474">
        <ele>440</ele>
        <time>2020-07-29T21:55:24Z</time>
      </trkpt>
      <trkpt lat="46.58631" lon="5.69491">
        <ele>440</ele>
        <time>2020-07-29T21:55:26Z</time>
      </trkpt>
      <trkpt lat="46.58617" lon="5.69537">
        <ele>440</ele>
        <time>2020-07-29T21:55:32Z</time>
      </trkpt>
      <trkpt lat="46.58606" lon="5.69574">
        <ele>440</ele>
        <time>2020-07-29T21:55:37Z</time>
      </trkpt>
      <trkpt lat="46.58599" lon="5.69598">
        <ele>439</ele>
        <time>2020-07-29T21:55:40Z</time>
      </trkpt>
      <trkpt lat="46.58597" lon="5.69605">
        <ele>439</ele>
        <time>2020-07-29T21:55:41Z</time>
      </trkpt>
      <trkpt lat="46.58592" lon="5.69623">
        <ele>439</ele>
        <time>2020-07-29T21:55:44Z</time>
      </trkpt>
      <trkpt lat="46.5859" lon="5.69629">
        <ele>439</ele>
        <time>2020-07-29T21:55:45Z</time>
      </trkpt>
      <trkpt lat="46.58589" lon="5.69634">
        <ele>439</ele>
        <time>2020-07-29T21:55:45Z</time>
      </trkpt>
      <trkpt lat="46.58586" lon="5.69642">
        <ele>439</ele>
        <time>2020-07-29T21:55:46Z</time>
      </trkpt>
      <trkpt lat="46.58585" lon="5.69644">
        <ele>439</ele>
        <time>2020-07-29T21:55:47Z</time>
      </trkpt>
      <trkpt lat="46.58583" lon="5.69653">
        <ele>439</ele>
        <time>2020-07-29T21:55:48Z</time>
      </trkpt>
      <trkpt lat="46.58581" lon="5.6966">
        <ele>439</ele>
        <time>2020-07-29T21:55:49Z</time>
      </trkpt>
      <trkpt lat="46.58578" lon="5.6967">
        <ele>439</ele>
        <time>2020-07-29T21:55:50Z</time>
      </trkpt>
      <trkpt lat="46.58568" lon="5.69702">
        <ele>439</ele>
        <time>2020-07-29T21:55:54Z</time>
      </trkpt>
      <trkpt lat="46.58561" lon="5.69725">
        <ele>440</ele>
        <time>2020-07-29T21:55:57Z</time>
      </trkpt>
      <trkpt lat="46.58549" lon="5.69766">
        <ele>440</ele>
        <time>2020-07-29T21:56:03Z</time>
      </trkpt>
      <trkpt lat="46.58546" lon="5.69776">
        <ele>439</ele>
        <time>2020-07-29T21:56:04Z</time>
      </trkpt>
      <trkpt lat="46.58536" lon="5.69809">
        <ele>439</ele>
        <time>2020-07-29T21:56:09Z</time>
      </trkpt>
      <trkpt lat="46.58526" lon="5.69843">
        <ele>439</ele>
        <time>2020-07-29T21:56:13Z</time>
      </trkpt>
      <trkpt lat="46.58523" lon="5.69855">
        <ele>438</ele>
        <time>2020-07-29T21:56:15Z</time>
      </trkpt>
      <trkpt lat="46.58517" lon="5.69873">
        <ele>438</ele>
        <time>2020-07-29T21:56:17Z</time>
      </trkpt>
      <trkpt lat="46.58516" lon="5.69876">
        <ele>438</ele>
        <time>2020-07-29T21:56:18Z</time>
      </trkpt>
      <trkpt lat="46.58506" lon="5.69908">
        <ele>438</ele>
        <time>2020-07-29T21:56:22Z</time>
      </trkpt>
      <trkpt lat="46.58497" lon="5.6994">
        <ele>438</ele>
        <time>2020-07-29T21:56:26Z</time>
      </trkpt>
      <trkpt lat="46.58496" lon="5.69952">
        <ele>438</ele>
        <time>2020-07-29T21:56:28Z</time>
      </trkpt>
      <trkpt lat="46.58497" lon="5.6998">
        <ele>437</ele>
        <time>2020-07-29T21:56:31Z</time>
      </trkpt>
      <trkpt lat="46.58498" lon="5.69987">
        <ele>437</ele>
        <time>2020-07-29T21:56:32Z</time>
      </trkpt>
      <trkpt lat="46.585" lon="5.70016">
        <ele>437</ele>
        <time>2020-07-29T21:56:35Z</time>
      </trkpt>
      <trkpt lat="46.58509" lon="5.70111">
        <ele>440</ele>
        <time>2020-07-29T21:56:47Z</time>
      </trkpt>
      <trkpt lat="46.5851" lon="5.70114">
        <ele>440</ele>
        <time>2020-07-29T21:56:48Z</time>
      </trkpt>
      <trkpt lat="46.58517" lon="5.70154">
        <ele>442</ele>
        <time>2020-07-29T21:56:53Z</time>
      </trkpt>
      <trkpt lat="46.58519" lon="5.7016">
        <ele>442</ele>
        <time>2020-07-29T21:56:53Z</time>
      </trkpt>
      <trkpt lat="46.58515" lon="5.7016">
        <ele>442</ele>
        <time>2020-07-29T21:56:54Z</time>
      </trkpt>
      <trkpt lat="46.58514" lon="5.7016">
        <ele>442</ele>
        <time>2020-07-29T21:56:54Z</time>
      </trkpt>
      <trkpt lat="46.58475" lon="5.70162">
        <ele>441</ele>
        <time>2020-07-29T21:57:01Z</time>
      </trkpt>
      <trkpt lat="46.58454" lon="5.70163">
        <ele>440</ele>
        <time>2020-07-29T21:57:05Z</time>
      </trkpt>
      <trkpt lat="46.5843" lon="5.70169">
        <ele>439</ele>
        <time>2020-07-29T21:57:09Z</time>
      </trkpt>
      <trkpt lat="46.58421" lon="5.70172">
        <ele>439</ele>
        <time>2020-07-29T21:57:11Z</time>
      </trkpt>
      <trkpt lat="46.58411" lon="5.70176">
        <ele>439</ele>
        <time>2020-07-29T21:57:13Z</time>
      </trkpt>
      <trkpt lat="46.58386" lon="5.7019">
        <ele>439</ele>
        <time>2020-07-29T21:57:18Z</time>
      </trkpt>
      <trkpt lat="46.58358" lon="5.70208">
        <ele>438</ele>
        <time>2020-07-29T21:57:23Z</time>
      </trkpt>
      <trkpt lat="46.58283" lon="5.70266">
        <ele>437</ele>
        <time>2020-07-29T21:57:38Z</time>
      </trkpt>
      <trkpt lat="46.58161" lon="5.7036">
        <ele>438</ele>
        <time>2020-07-29T21:58:03Z</time>
      </trkpt>
      <trkpt lat="46.58145" lon="5.70373">
        <ele>438</ele>
        <time>2020-07-29T21:58:06Z</time>
      </trkpt>
      <trkpt lat="46.58132" lon="5.70384">
        <ele>439</ele>
        <time>2020-07-29T21:58:09Z</time>
      </trkpt>
      <trkpt lat="46.58098" lon="5.70402">
        <ele>439</ele>
        <time>2020-07-29T21:58:15Z</time>
      </trkpt>
      <trkpt lat="46.58091" lon="5.70404">
        <ele>438</ele>
        <time>2020-07-29T21:58:16Z</time>
      </trkpt>
      <trkpt lat="46.58069" lon="5.70406">
        <ele>439</ele>
        <time>2020-07-29T21:58:20Z</time>
      </trkpt>
      <trkpt lat="46.58068" lon="5.70407">
        <ele>439</ele>
        <time>2020-07-29T21:58:20Z</time>
      </trkpt>
      <trkpt lat="46.58062" lon="5.70408">
        <ele>439</ele>
        <time>2020-07-29T21:58:22Z</time>
      </trkpt>
      <trkpt lat="46.58055" lon="5.70408">
        <ele>440</ele>
        <time>2020-07-29T21:58:23Z</time>
      </trkpt>
      <trkpt lat="46.58017" lon="5.70413">
        <ele>442</ele>
        <time>2020-07-29T21:58:30Z</time>
      </trkpt>
      <trkpt lat="46.57929" lon="5.70425">
        <ele>448</ele>
        <time>2020-07-29T21:58:45Z</time>
      </trkpt>
      <trkpt lat="46.57915" lon="5.70431">
        <ele>449</ele>
        <time>2020-07-29T21:58:48Z</time>
      </trkpt>
      <trkpt lat="46.57892" lon="5.70448">
        <ele>451</ele>
        <time>2020-07-29T21:58:52Z</time>
      </trkpt>
      <trkpt lat="46.57845" lon="5.70477">
        <ele>452</ele>
        <time>2020-07-29T21:59:02Z</time>
      </trkpt>
      <trkpt lat="46.57822" lon="5.70487">
        <ele>453</ele>
        <time>2020-07-29T21:59:06Z</time>
      </trkpt>
      <trkpt lat="46.57802" lon="5.70489">
        <ele>454</ele>
        <time>2020-07-29T21:59:09Z</time>
      </trkpt>
      <trkpt lat="46.57769" lon="5.70487">
        <ele>454</ele>
        <time>2020-07-29T21:59:15Z</time>
      </trkpt>
      <trkpt lat="46.57756" lon="5.7049">
        <ele>455</ele>
        <time>2020-07-29T21:59:18Z</time>
      </trkpt>
      <trkpt lat="46.57732" lon="5.70508">
        <ele>456</ele>
        <time>2020-07-29T21:59:22Z</time>
      </trkpt>
      <trkpt lat="46.57569" lon="5.70675">
        <ele>467</ele>
        <time>2020-07-29T21:59:58Z</time>
      </trkpt>
      <trkpt lat="46.57541" lon="5.70689">
        <ele>468</ele>
        <time>2020-07-29T22:00:03Z</time>
      </trkpt>
      <trkpt lat="46.57511" lon="5.70699">
        <ele>469</ele>
        <time>2020-07-29T22:00:09Z</time>
      </trkpt>
      <trkpt lat="46.57476" lon="5.70724">
        <ele>472</ele>
        <time>2020-07-29T22:00:16Z</time>
      </trkpt>
      <trkpt lat="46.57436" lon="5.70757">
        <ele>474</ele>
        <time>2020-07-29T22:00:24Z</time>
      </trkpt>
      <trkpt lat="46.57396" lon="5.70792">
        <ele>476</ele>
        <time>2020-07-29T22:00:32Z</time>
      </trkpt>
      <trkpt lat="46.5724" lon="5.70912">
        <ele>481</ele>
        <time>2020-07-29T22:01:03Z</time>
      </trkpt>
      <trkpt lat="46.57175" lon="5.70948">
        <ele>482</ele>
        <time>2020-07-29T22:01:16Z</time>
      </trkpt>
      <trkpt lat="46.57108" lon="5.7098">
        <ele>484</ele>
        <time>2020-07-29T22:01:28Z</time>
      </trkpt>
      <trkpt lat="46.57105" lon="5.70982">
        <ele>484</ele>
        <time>2020-07-29T22:01:29Z</time>
      </trkpt>
      <trkpt lat="46.57099" lon="5.70985">
        <ele>484</ele>
        <time>2020-07-29T22:01:30Z</time>
      </trkpt>
      <trkpt lat="46.57094" lon="5.70987">
        <ele>485</ele>
        <time>2020-07-29T22:01:31Z</time>
      </trkpt>
      <trkpt lat="46.57085" lon="5.70992">
        <ele>485</ele>
        <time>2020-07-29T22:01:33Z</time>
      </trkpt>
      <trkpt lat="46.57049" lon="5.71006">
        <ele>485</ele>
        <time>2020-07-29T22:01:39Z</time>
      </trkpt>
      <trkpt lat="46.57028" lon="5.71014">
        <ele>484</ele>
        <time>2020-07-29T22:01:43Z</time>
      </trkpt>
      <trkpt lat="46.57003" lon="5.71023">
        <ele>484</ele>
        <time>2020-07-29T22:01:48Z</time>
      </trkpt>
      <trkpt lat="46.56995" lon="5.71029">
        <ele>483</ele>
        <time>2020-07-29T22:01:49Z</time>
      </trkpt>
      <trkpt lat="46.56988" lon="5.71038">
        <ele>482</ele>
        <time>2020-07-29T22:01:51Z</time>
      </trkpt>
      <trkpt lat="46.56984" lon="5.7105">
        <ele>481</ele>
        <time>2020-07-29T22:01:53Z</time>
      </trkpt>
      <trkpt lat="46.56981" lon="5.71064">
        <ele>480</ele>
        <time>2020-07-29T22:01:54Z</time>
      </trkpt>
      <trkpt lat="46.5698" lon="5.71093">
        <ele>480</ele>
        <time>2020-07-29T22:01:58Z</time>
      </trkpt>
      <trkpt lat="46.56979" lon="5.71141">
        <ele>480</ele>
        <time>2020-07-29T22:02:04Z</time>
      </trkpt>
      <trkpt lat="46.56978" lon="5.71164">
        <ele>480</ele>
        <time>2020-07-29T22:02:07Z</time>
      </trkpt>
      <trkpt lat="46.56973" lon="5.71256">
        <ele>480</ele>
        <time>2020-07-29T22:02:18Z</time>
      </trkpt>
      <trkpt lat="46.56965" lon="5.71362">
        <ele>481</ele>
        <time>2020-07-29T22:02:31Z</time>
      </trkpt>
      <trkpt lat="46.56958" lon="5.714">
        <ele>482</ele>
        <time>2020-07-29T22:02:36Z</time>
      </trkpt>
      <trkpt lat="46.56947" lon="5.71439">
        <ele>482</ele>
        <time>2020-07-29T22:02:41Z</time>
      </trkpt>
      <trkpt lat="46.56893" lon="5.71563">
        <ele>482</ele>
        <time>2020-07-29T22:02:59Z</time>
      </trkpt>
      <trkpt lat="46.56688" lon="5.72012">
        <ele>482</ele>
        <time>2020-07-29T22:04:05Z</time>
      </trkpt>
      <trkpt lat="46.5667" lon="5.72047">
        <ele>482</ele>
        <time>2020-07-29T22:04:10Z</time>
      </trkpt>
      <trkpt lat="46.5665" lon="5.72084">
        <ele>483</ele>
        <time>2020-07-29T22:04:16Z</time>
      </trkpt>
      <trkpt lat="46.56629" lon="5.72117">
        <ele>483</ele>
        <time>2020-07-29T22:04:22Z</time>
      </trkpt>
      <trkpt lat="46.56608" lon="5.72147">
        <ele>483</ele>
        <time>2020-07-29T22:04:27Z</time>
      </trkpt>
      <trkpt lat="46.56577" lon="5.72185">
        <ele>482</ele>
        <time>2020-07-29T22:04:34Z</time>
      </trkpt>
      <trkpt lat="46.56543" lon="5.72221">
        <ele>482</ele>
        <time>2020-07-29T22:04:41Z</time>
      </trkpt>
      <trkpt lat="46.56466" lon="5.72276">
        <ele>482</ele>
        <time>2020-07-29T22:04:57Z</time>
      </trkpt>
      <trkpt lat="46.56262" lon="5.72412">
        <ele>483</ele>
        <time>2020-07-29T22:05:37Z</time>
      </trkpt>
      <trkpt lat="46.55961" lon="5.72612">
        <ele>489</ele>
        <time>2020-07-29T22:06:36Z</time>
      </trkpt>
      <trkpt lat="46.55955" lon="5.72617">
        <ele>490</ele>
        <time>2020-07-29T22:06:37Z</time>
      </trkpt>
      <trkpt lat="46.5595" lon="5.7262">
        <ele>490</ele>
        <time>2020-07-29T22:06:38Z</time>
      </trkpt>
      <trkpt lat="46.55947" lon="5.72622">
        <ele>490</ele>
        <time>2020-07-29T22:06:38Z</time>
      </trkpt>
      <trkpt lat="46.55913" lon="5.72644">
        <ele>492</ele>
        <time>2020-07-29T22:06:45Z</time>
      </trkpt>
      <trkpt lat="46.5571" lon="5.72778">
        <ele>496</ele>
        <time>2020-07-29T22:07:25Z</time>
      </trkpt>
      <trkpt lat="46.55686" lon="5.72802">
        <ele>496</ele>
        <time>2020-07-29T22:07:30Z</time>
      </trkpt>
      <trkpt lat="46.55665" lon="5.72828">
        <ele>496</ele>
        <time>2020-07-29T22:07:35Z</time>
      </trkpt>
      <trkpt lat="46.55655" lon="5.72844">
        <ele>496</ele>
        <time>2020-07-29T22:07:37Z</time>
      </trkpt>
      <trkpt lat="46.55646" lon="5.72856">
        <ele>496</ele>
        <time>2020-07-29T22:07:40Z</time>
      </trkpt>
      <trkpt lat="46.55577" lon="5.72954">
        <ele>498</ele>
        <time>2020-07-29T22:07:57Z</time>
      </trkpt>
      <trkpt lat="46.55541" lon="5.73015">
        <ele>500</ele>
        <time>2020-07-29T22:08:07Z</time>
      </trkpt>
      <trkpt lat="46.55511" lon="5.73059">
        <ele>501</ele>
        <time>2020-07-29T22:08:14Z</time>
      </trkpt>
      <trkpt lat="46.55497" lon="5.73075">
        <ele>502</ele>
        <time>2020-07-29T22:08:17Z</time>
      </trkpt>
      <trkpt lat="46.55474" lon="5.73091">
        <ele>502</ele>
        <time>2020-07-29T22:08:22Z</time>
      </trkpt>
      <trkpt lat="46.55467" lon="5.73093">
        <ele>502</ele>
        <time>2020-07-29T22:08:23Z</time>
      </trkpt>
      <trkpt lat="46.55454" lon="5.73097">
        <ele>502</ele>
        <time>2020-07-29T22:08:25Z</time>
      </trkpt>
      <trkpt lat="46.55442" lon="5.73101">
        <ele>502</ele>
        <time>2020-07-29T22:08:28Z</time>
      </trkpt>
      <trkpt lat="46.55429" lon="5.73109">
        <ele>501</ele>
        <time>2020-07-29T22:08:30Z</time>
      </trkpt>
      <trkpt lat="46.55407" lon="5.73147">
        <ele>502</ele>
        <time>2020-07-29T22:08:36Z</time>
      </trkpt>
      <trkpt lat="46.55396" lon="5.73155">
        <ele>502</ele>
        <time>2020-07-29T22:08:38Z</time>
      </trkpt>
      <trkpt lat="46.55386" lon="5.73157">
        <ele>503</ele>
        <time>2020-07-29T22:08:40Z</time>
      </trkpt>
      <trkpt lat="46.55377" lon="5.73156">
        <ele>503</ele>
        <time>2020-07-29T22:08:42Z</time>
      </trkpt>
      <trkpt lat="46.5533" lon="5.7314">
        <ele>504</ele>
        <time>2020-07-29T22:08:50Z</time>
      </trkpt>
      <trkpt lat="46.5532" lon="5.73138">
        <ele>504</ele>
        <time>2020-07-29T22:08:52Z</time>
      </trkpt>
      <trkpt lat="46.55305" lon="5.73142">
        <ele>503</ele>
        <time>2020-07-29T22:08:55Z</time>
      </trkpt>
      <trkpt lat="46.55298" lon="5.73147">
        <ele>503</ele>
        <time>2020-07-29T22:08:56Z</time>
      </trkpt>
      <trkpt lat="46.55294" lon="5.73153">
        <ele>503</ele>
        <time>2020-07-29T22:08:57Z</time>
      </trkpt>
      <trkpt lat="46.55289" lon="5.73164">
        <ele>502</ele>
        <time>2020-07-29T22:08:59Z</time>
      </trkpt>
      <trkpt lat="46.55274" lon="5.7323">
        <ele>503</ele>
        <time>2020-07-29T22:09:07Z</time>
      </trkpt>
      <trkpt lat="46.55264" lon="5.73257">
        <ele>504</ele>
        <time>2020-07-29T22:09:11Z</time>
      </trkpt>
      <trkpt lat="46.5525" lon="5.73286">
        <ele>505</ele>
        <time>2020-07-29T22:09:16Z</time>
      </trkpt>
      <trkpt lat="46.55244" lon="5.733">
        <ele>505</ele>
        <time>2020-07-29T22:09:18Z</time>
      </trkpt>
      <trkpt lat="46.55241" lon="5.73311">
        <ele>505</ele>
        <time>2020-07-29T22:09:19Z</time>
      </trkpt>
      <trkpt lat="46.55239" lon="5.73351">
        <ele>507</ele>
        <time>2020-07-29T22:09:24Z</time>
      </trkpt>
      <trkpt lat="46.55249" lon="5.73495">
        <ele>513</ele>
        <time>2020-07-29T22:09:42Z</time>
      </trkpt>
      <trkpt lat="46.55243" lon="5.73541">
        <ele>513</ele>
        <time>2020-07-29T22:09:47Z</time>
      </trkpt>
      <trkpt lat="46.55227" lon="5.73629">
        <ele>517</ele>
        <time>2020-07-29T22:09:58Z</time>
      </trkpt>
      <trkpt lat="46.55225" lon="5.73662">
        <ele>519</ele>
        <time>2020-07-29T22:10:03Z</time>
      </trkpt>
      <trkpt lat="46.55235" lon="5.73733">
        <ele>523</ele>
        <time>2020-07-29T22:10:11Z</time>
      </trkpt>
      <trkpt lat="46.55236" lon="5.73752">
        <ele>525</ele>
        <time>2020-07-29T22:10:14Z</time>
      </trkpt>
      <trkpt lat="46.55233" lon="5.73809">
        <ele>530</ele>
        <time>2020-07-29T22:10:21Z</time>
      </trkpt>
      <trkpt lat="46.55236" lon="5.73909">
        <ele>537</ele>
        <time>2020-07-29T22:10:33Z</time>
      </trkpt>
      <trkpt lat="46.55243" lon="5.73939">
        <ele>539</ele>
        <time>2020-07-29T22:10:37Z</time>
      </trkpt>
      <trkpt lat="46.55249" lon="5.7396">
        <ele>540</ele>
        <time>2020-07-29T22:10:40Z</time>
      </trkpt>
      <trkpt lat="46.55265" lon="5.73998">
        <ele>546</ele>
        <time>2020-07-29T22:10:45Z</time>
      </trkpt>
      <trkpt lat="46.55271" lon="5.74026">
        <ele>547</ele>
        <time>2020-07-29T22:10:49Z</time>
      </trkpt>
      <trkpt lat="46.55272" lon="5.74045">
        <ele>548</ele>
        <time>2020-07-29T22:10:51Z</time>
      </trkpt>
      <trkpt lat="46.55293" lon="5.74131">
        <ele>551</ele>
        <time>2020-07-29T22:11:02Z</time>
      </trkpt>
      <trkpt lat="46.55294" lon="5.74146">
        <ele>550</ele>
        <time>2020-07-29T22:11:04Z</time>
      </trkpt>
      <trkpt lat="46.55292" lon="5.74168">
        <ele>550</ele>
        <time>2020-07-29T22:11:07Z</time>
      </trkpt>
      <trkpt lat="46.55285" lon="5.74203">
        <ele>550</ele>
        <time>2020-07-29T22:11:11Z</time>
      </trkpt>
      <trkpt lat="46.55284" lon="5.74224">
        <ele>550</ele>
        <time>2020-07-29T22:11:14Z</time>
      </trkpt>
      <trkpt lat="46.55286" lon="5.74244">
        <ele>551</ele>
        <time>2020-07-29T22:11:16Z</time>
      </trkpt>
      <trkpt lat="46.55291" lon="5.74262">
        <ele>551</ele>
        <time>2020-07-29T22:11:19Z</time>
      </trkpt>
      <trkpt lat="46.55306" lon="5.74298">
        <ele>552</ele>
        <time>2020-07-29T22:11:24Z</time>
      </trkpt>
      <trkpt lat="46.55352" lon="5.74398">
        <ele>548</ele>
        <time>2020-07-29T22:11:38Z</time>
      </trkpt>
      <trkpt lat="46.55377" lon="5.74457">
        <ele>549</ele>
        <time>2020-07-29T22:11:47Z</time>
      </trkpt>
      <trkpt lat="46.55385" lon="5.74471">
        <ele>550</ele>
        <time>2020-07-29T22:11:49Z</time>
      </trkpt>
      <trkpt lat="46.55394" lon="5.74482">
        <ele>550</ele>
        <time>2020-07-29T22:11:51Z</time>
      </trkpt>
      <trkpt lat="46.55408" lon="5.74494">
        <ele>551</ele>
        <time>2020-07-29T22:11:54Z</time>
      </trkpt>
      <trkpt lat="46.55421" lon="5.74501">
        <ele>551</ele>
        <time>2020-07-29T22:11:57Z</time>
      </trkpt>
      <trkpt lat="46.55441" lon="5.74506">
        <ele>552</ele>
        <time>2020-07-29T22:12:00Z</time>
      </trkpt>
      <trkpt lat="46.55457" lon="5.74505">
        <ele>552</ele>
        <time>2020-07-29T22:12:03Z</time>
      </trkpt>
      <trkpt lat="46.55464" lon="5.74503">
        <ele>552</ele>
        <time>2020-07-29T22:12:04Z</time>
      </trkpt>
      <trkpt lat="46.55577" lon="5.74453">
        <ele>549</ele>
        <time>2020-07-29T22:12:25Z</time>
      </trkpt>
      <trkpt lat="46.55593" lon="5.74453">
        <ele>549</ele>
        <time>2020-07-29T22:12:28Z</time>
      </trkpt>
      <trkpt lat="46.55603" lon="5.74459">
        <ele>549</ele>
        <time>2020-07-29T22:12:30Z</time>
      </trkpt>
      <trkpt lat="46.55607" lon="5.74483">
        <ele>551</ele>
        <time>2020-07-29T22:12:33Z</time>
      </trkpt>
      <trkpt lat="46.55644" lon="5.74481">
        <ele>550</ele>
        <time>2020-07-29T22:12:40Z</time>
      </trkpt>
      <trkpt lat="46.55808" lon="5.74494">
        <ele>547</ele>
        <time>2020-07-29T22:13:09Z</time>
      </trkpt>
      <trkpt lat="46.55858" lon="5.74495">
        <ele>547</ele>
        <time>2020-07-29T22:13:18Z</time>
      </trkpt>
      <trkpt lat="46.55879" lon="5.74492">
        <ele>547</ele>
        <time>2020-07-29T22:13:22Z</time>
      </trkpt>
      <trkpt lat="46.56241" lon="5.74385">
        <ele>540</ele>
        <time>2020-07-29T22:14:27Z</time>
      </trkpt>
      <trkpt lat="46.56264" lon="5.74381">
        <ele>540</ele>
        <time>2020-07-29T22:14:31Z</time>
      </trkpt>
      <trkpt lat="46.5629" lon="5.74379">
        <ele>540</ele>
        <time>2020-07-29T22:14:36Z</time>
      </trkpt>
      <trkpt lat="46.56336" lon="5.74383">
        <ele>539</ele>
        <time>2020-07-29T22:14:44Z</time>
      </trkpt>
      <trkpt lat="46.56694" lon="5.74435">
        <ele>538</ele>
        <time>2020-07-29T22:15:48Z</time>
      </trkpt>
      <trkpt lat="46.56771" lon="5.74449">
        <ele>540</ele>
        <time>2020-07-29T22:16:02Z</time>
      </trkpt>
      <trkpt lat="46.56897" lon="5.74487">
        <ele>537</ele>
        <time>2020-07-29T22:16:25Z</time>
      </trkpt>
      <trkpt lat="46.572" lon="5.74589">
        <ele>536</ele>
        <time>2020-07-29T22:17:20Z</time>
      </trkpt>
      <trkpt lat="46.57253" lon="5.7461">
        <ele>538</ele>
        <time>2020-07-29T22:17:30Z</time>
      </trkpt>
      <trkpt lat="46.57315" lon="5.74645">
        <ele>536</ele>
        <time>2020-07-29T22:17:42Z</time>
      </trkpt>
      <trkpt lat="46.57317" lon="5.7464">
        <ele>536</ele>
        <time>2020-07-29T22:17:43Z</time>
      </trkpt>
      <trkpt lat="46.57312" lon="5.74633">
        <ele>537</ele>
        <time>2020-07-29T22:17:44Z</time>
      </trkpt>
      <trkpt lat="46.57428" lon="5.74744">
        <ele>531</ele>
        <time>2020-07-29T18:40:07Z</time>
      </trkpt>
      <trkpt lat="46.57428" lon="5.74744">
        <ele>531</ele>
        <time>2020-07-29T18:40:07Z</time>
      </trkpt>
      <trkpt lat="46.57429" lon="5.74738">
        <ele>531</ele>
        <time>2020-07-29T18:40:08Z</time>
      </trkpt>
      <trkpt lat="46.57426" lon="5.74728">
        <ele>531</ele>
        <time>2020-07-29T18:40:09Z</time>
      </trkpt>
      <trkpt lat="46.57421" lon="5.74723">
        <ele>531</ele>
        <time>2020-07-29T18:40:10Z</time>
      </trkpt>
      <trkpt lat="46.57416" lon="5.74722">
        <ele>531</ele>
        <time>2020-07-29T18:40:11Z</time>
      </trkpt>
      <trkpt lat="46.57401" lon="5.7472">
        <ele>531</ele>
        <time>2020-07-29T18:40:14Z</time>
      </trkpt>
      <trkpt lat="46.57393" lon="5.74716">
        <ele>531</ele>
        <time>2020-07-29T18:40:15Z</time>
      </trkpt>
      <trkpt lat="46.57348" lon="5.74668">
        <ele>534</ele>
        <time>2020-07-29T18:40:25Z</time>
      </trkpt>
      <trkpt lat="46.57315" lon="5.74645">
        <ele>536</ele>
        <time>2020-07-29T18:40:32Z</time>
      </trkpt>
      <trkpt lat="46.57317" lon="5.7464">
        <ele>536</ele>
        <time>2020-07-29T18:40:32Z</time>
      </trkpt>
      <trkpt lat="46.57315" lon="5.74635">
        <ele>537</ele>
        <time>2020-07-29T18:40:33Z</time>
      </trkpt>
      <trkpt lat="46.57297" lon="5.74619">
        <ele>538</ele>
        <time>2020-07-29T18:40:37Z</time>
      </trkpt>
      <trkpt lat="46.5729" lon="5.74613">
        <ele>538</ele>
        <time>2020-07-29T18:40:38Z</time>
      </trkpt>
      <trkpt lat="46.57268" lon="5.74593">
        <ele>540</ele>
        <time>2020-07-29T18:40:43Z</time>
      </trkpt>
      <trkpt lat="46.57263" lon="5.74588">
        <ele>541</ele>
        <time>2020-07-29T18:40:44Z</time>
      </trkpt>
      <trkpt lat="46.57239" lon="5.74566">
        <ele>544</ele>
        <time>2020-07-29T18:40:49Z</time>
      </trkpt>
      <trkpt lat="46.57219" lon="5.74552">
        <ele>545</ele>
        <time>2020-07-29T18:40:53Z</time>
      </trkpt>
      <trkpt lat="46.57177" lon="5.74525">
        <ele>546</ele>
        <time>2020-07-29T18:41:01Z</time>
      </trkpt>
      <trkpt lat="46.5715" lon="5.74506">
        <ele>547</ele>
        <time>2020-07-29T18:41:07Z</time>
      </trkpt>
      <trkpt lat="46.57101" lon="5.74472">
        <ele>550</ele>
        <time>2020-07-29T18:41:16Z</time>
      </trkpt>
      <trkpt lat="46.57056" lon="5.74445">
        <ele>553</ele>
        <time>2020-07-29T18:41:25Z</time>
      </trkpt>
      <trkpt lat="46.57037" lon="5.74436">
        <ele>554</ele>
        <time>2020-07-29T18:41:28Z</time>
      </trkpt>
      <trkpt lat="46.57016" lon="5.74431">
        <ele>554</ele>
        <time>2020-07-29T18:41:32Z</time>
      </trkpt>
      <trkpt lat="46.56974" lon="5.74414">
        <ele>557</ele>
        <time>2020-07-29T18:41:40Z</time>
      </trkpt>
      <trkpt lat="46.56937" lon="5.74395">
        <ele>559</ele>
        <time>2020-07-29T18:41:47Z</time>
      </trkpt>
      <trkpt lat="46.56909" lon="5.7437">
        <ele>560</ele>
        <time>2020-07-29T18:41:53Z</time>
      </trkpt>
      <trkpt lat="46.56899" lon="5.74355">
        <ele>562</ele>
        <time>2020-07-29T18:41:55Z</time>
      </trkpt>
      <trkpt lat="46.56888" lon="5.74338">
        <ele>564</ele>
        <time>2020-07-29T18:41:58Z</time>
      </trkpt>
      <trkpt lat="46.56871" lon="5.74304">
        <ele>565</ele>
        <time>2020-07-29T18:42:03Z</time>
      </trkpt>
      <trkpt lat="46.56844" lon="5.74226">
        <ele>564</ele>
        <time>2020-07-29T18:42:14Z</time>
      </trkpt>
      <trkpt lat="46.56834" lon="5.74201">
        <ele>562</ele>
        <time>2020-07-29T18:42:18Z</time>
      </trkpt>
      <trkpt lat="46.56811" lon="5.74162">
        <ele>561</ele>
        <time>2020-07-29T18:42:24Z</time>
      </trkpt>
      <trkpt lat="46.56774" lon="5.74118">
        <ele>555</ele>
        <time>2020-07-29T18:42:32Z</time>
      </trkpt>
      <trkpt lat="46.56763" lon="5.74105">
        <ele>554</ele>
        <time>2020-07-29T18:42:35Z</time>
      </trkpt>
      <trkpt lat="46.56718" lon="5.74067">
        <ele>552</ele>
        <time>2020-07-29T18:42:44Z</time>
      </trkpt>
      <trkpt lat="46.5667" lon="5.74037">
        <ele>552</ele>
        <time>2020-07-29T18:42:53Z</time>
      </trkpt>
      <trkpt lat="46.56643" lon="5.74013">
        <ele>551</ele>
        <time>2020-07-29T18:42:59Z</time>
      </trkpt>
      <trkpt lat="46.56623" lon="5.73994">
        <ele>551</ele>
        <time>2020-07-29T18:43:03Z</time>
      </trkpt>
      <trkpt lat="46.56592" lon="5.73954">
        <ele>546</ele>
        <time>2020-07-29T18:43:11Z</time>
      </trkpt>
      <trkpt lat="46.56579" lon="5.73942">
        <ele>544</ele>
        <time>2020-07-29T18:43:13Z</time>
      </trkpt>
      <trkpt lat="46.56568" lon="5.73934">
        <ele>543</ele>
        <time>2020-07-29T18:43:16Z</time>
      </trkpt>
      <trkpt lat="46.5655" lon="5.73927">
        <ele>542</ele>
        <time>2020-07-29T18:43:19Z</time>
      </trkpt>
      <trkpt lat="46.56524" lon="5.73921">
        <ele>542</ele>
        <time>2020-07-29T18:43:24Z</time>
      </trkpt>
      <trkpt lat="46.56491" lon="5.73922">
        <ele>543</ele>
        <time>2020-07-29T18:43:29Z</time>
      </trkpt>
      <trkpt lat="46.56434" lon="5.73933">
        <ele>541</ele>
        <time>2020-07-29T18:43:40Z</time>
      </trkpt>
      <trkpt lat="46.56426" lon="5.73932">
        <ele>540</ele>
        <time>2020-07-29T18:43:41Z</time>
      </trkpt>
      <trkpt lat="46.56417" lon="5.7393">
        <ele>540</ele>
        <time>2020-07-29T18:43:43Z</time>
      </trkpt>
      <trkpt lat="46.56409" lon="5.73925">
        <ele>539</ele>
        <time>2020-07-29T18:43:44Z</time>
      </trkpt>
      <trkpt lat="46.56401" lon="5.73918">
        <ele>537</ele>
        <time>2020-07-29T18:43:46Z</time>
      </trkpt>
      <trkpt lat="46.56331" lon="5.73834">
        <ele>535</ele>
        <time>2020-07-29T18:44:02Z</time>
      </trkpt>
      <trkpt lat="46.56293" lon="5.73791">
        <ele>534</ele>
        <time>2020-07-29T18:44:11Z</time>
      </trkpt>
      <trkpt lat="46.56261" lon="5.73758">
        <ele>532</ele>
        <time>2020-07-29T18:44:18Z</time>
      </trkpt>
      <trkpt lat="46.56255" lon="5.73748">
        <ele>531</ele>
        <time>2020-07-29T18:44:19Z</time>
      </trkpt>
      <trkpt lat="46.56251" lon="5.7374">
        <ele>531</ele>
        <time>2020-07-29T18:44:20Z</time>
      </trkpt>
      <trkpt lat="46.56244" lon="5.73706">
        <ele>530</ele>
        <time>2020-07-29T18:44:25Z</time>
      </trkpt>
      <trkpt lat="46.56242" lon="5.73685">
        <ele>529</ele>
        <time>2020-07-29T18:44:27Z</time>
      </trkpt>
      <trkpt lat="46.56243" lon="5.73672">
        <ele>529</ele>
        <time>2020-07-29T18:44:29Z</time>
      </trkpt>
      <trkpt lat="46.56247" lon="5.73654">
        <ele>529</ele>
        <time>2020-07-29T18:44:31Z</time>
      </trkpt>
      <trkpt lat="46.56252" lon="5.73642">
        <ele>529</ele>
        <time>2020-07-29T18:44:33Z</time>
      </trkpt>
      <trkpt lat="46.56288" lon="5.73565">
        <ele>529</ele>
        <time>2020-07-29T18:44:44Z</time>
      </trkpt>
      <trkpt lat="46.563" lon="5.73531">
        <ele>529</ele>
        <time>2020-07-29T18:44:49Z</time>
      </trkpt>
      <trkpt lat="46.56304" lon="5.73509">
        <ele>529</ele>
        <time>2020-07-29T18:44:52Z</time>
      </trkpt>
      <trkpt lat="46.56305" lon="5.73499">
        <ele>529</ele>
        <time>2020-07-29T18:44:53Z</time>
      </trkpt>
      <trkpt lat="46.56303" lon="5.73441">
        <ele>527</ele>
        <time>2020-07-29T18:45:00Z</time>
      </trkpt>
      <trkpt lat="46.56304" lon="5.7342">
        <ele>526</ele>
        <time>2020-07-29T18:45:03Z</time>
      </trkpt>
      <trkpt lat="46.5632" lon="5.73299">
        <ele>523</ele>
        <time>2020-07-29T18:45:18Z</time>
      </trkpt>
      <trkpt lat="46.56321" lon="5.73286">
        <ele>523</ele>
        <time>2020-07-29T18:45:19Z</time>
      </trkpt>
      <trkpt lat="46.5632" lon="5.73266">
        <ele>523</ele>
        <time>2020-07-29T18:45:22Z</time>
      </trkpt>
      <trkpt lat="46.56316" lon="5.73251">
        <ele>523</ele>
        <time>2020-07-29T18:45:24Z</time>
      </trkpt>
      <trkpt lat="46.56314" lon="5.73239">
        <ele>522</ele>
        <time>2020-07-29T18:45:25Z</time>
      </trkpt>
      <trkpt lat="46.56289" lon="5.73185">
        <ele>521</ele>
        <time>2020-07-29T18:45:33Z</time>
      </trkpt>
      <trkpt lat="46.56278" lon="5.73146">
        <ele>520</ele>
        <time>2020-07-29T18:45:39Z</time>
      </trkpt>
      <trkpt lat="46.56276" lon="5.73119">
        <ele>519</ele>
        <time>2020-07-29T18:45:42Z</time>
      </trkpt>
      <trkpt lat="46.56278" lon="5.73083">
        <ele>517</ele>
        <time>2020-07-29T18:45:46Z</time>
      </trkpt>
      <trkpt lat="46.56276" lon="5.73044">
        <ele>513</ele>
        <time>2020-07-29T18:45:51Z</time>
      </trkpt>
      <trkpt lat="46.56277" lon="5.73024">
        <ele>511</ele>
        <time>2020-07-29T18:45:54Z</time>
      </trkpt>
      <trkpt lat="46.56283" lon="5.73009">
        <ele>509</ele>
        <time>2020-07-29T18:45:56Z</time>
      </trkpt>
      <trkpt lat="46.56291" lon="5.72999">
        <ele>509</ele>
        <time>2020-07-29T18:45:58Z</time>
      </trkpt>
      <trkpt lat="46.56318" lon="5.72985">
        <ele>509</ele>
        <time>2020-07-29T18:46:03Z</time>
      </trkpt>
      <trkpt lat="46.56344" lon="5.72978">
        <ele>509</ele>
        <time>2020-07-29T18:46:07Z</time>
      </trkpt>
      <trkpt lat="46.56349" lon="5.72975">
        <ele>508</ele>
        <time>2020-07-29T18:46:08Z</time>
      </trkpt>
      <trkpt lat="46.56352" lon="5.72971">
        <ele>508</ele>
        <time>2020-07-29T18:46:09Z</time>
      </trkpt>
      <trkpt lat="46.56353" lon="5.72965">
        <ele>507</ele>
        <time>2020-07-29T18:46:10Z</time>
      </trkpt>
      <trkpt lat="46.56353" lon="5.72959">
        <ele>506</ele>
        <time>2020-07-29T18:46:10Z</time>
      </trkpt>
      <trkpt lat="46.56351" lon="5.72953">
        <ele>506</ele>
        <time>2020-07-29T18:46:11Z</time>
      </trkpt>
      <trkpt lat="46.56348" lon="5.72948">
        <ele>505</ele>
        <time>2020-07-29T18:46:12Z</time>
      </trkpt>
      <trkpt lat="46.56307" lon="5.72933">
        <ele>503</ele>
        <time>2020-07-29T18:46:20Z</time>
      </trkpt>
      <trkpt lat="46.56187" lon="5.72917">
        <ele>499</ele>
        <time>2020-07-29T18:46:41Z</time>
      </trkpt>
      <trkpt lat="46.56174" lon="5.72911">
        <ele>499</ele>
        <time>2020-07-29T18:46:43Z</time>
      </trkpt>
      <trkpt lat="46.56161" lon="5.72899">
        <ele>498</ele>
        <time>2020-07-29T18:46:46Z</time>
      </trkpt>
      <trkpt lat="46.56149" lon="5.72884">
        <ele>498</ele>
        <time>2020-07-29T18:46:49Z</time>
      </trkpt>
      <trkpt lat="46.56141" lon="5.72875">
        <ele>498</ele>
        <time>2020-07-29T18:46:51Z</time>
      </trkpt>
      <trkpt lat="46.55979" lon="5.72659">
        <ele>490</ele>
        <time>2020-07-29T18:47:30Z</time>
      </trkpt>
      <trkpt lat="46.5596" lon="5.7263">
        <ele>490</ele>
        <time>2020-07-29T18:47:35Z</time>
      </trkpt>
      <trkpt lat="46.55955" lon="5.72617">
        <ele>490</ele>
        <time>2020-07-29T18:47:37Z</time>
      </trkpt>
      <trkpt lat="46.5595" lon="5.7262">
        <ele>490</ele>
        <time>2020-07-29T18:47:38Z</time>
      </trkpt>
      <trkpt lat="46.55947" lon="5.72622">
        <ele>490</ele>
        <time>2020-07-29T18:47:38Z</time>
      </trkpt>
      <trkpt lat="46.55945" lon="5.72619">
        <ele>490</ele>
        <time>2020-07-29T18:47:39Z</time>
      </trkpt>
      <trkpt lat="46.55929" lon="5.72589">
        <ele>490</ele>
        <time>2020-07-29T18:47:43Z</time>
      </trkpt>
      <trkpt lat="46.55704" lon="5.72285">
        <ele>495</ele>
        <time>2020-07-29T18:48:38Z</time>
      </trkpt>
      <trkpt lat="46.55644" lon="5.72189">
        <ele>495</ele>
        <time>2020-07-29T18:48:54Z</time>
      </trkpt>
      <trkpt lat="46.55604" lon="5.72124">
        <ele>494</ele>
        <time>2020-07-29T18:49:05Z</time>
      </trkpt>
      <trkpt lat="46.55525" lon="5.71998">
        <ele>491</ele>
        <time>2020-07-29T18:49:25Z</time>
      </trkpt>
      <trkpt lat="46.5527" lon="5.71593">
        <ele>485</ele>
        <time>2020-07-29T18:50:33Z</time>
      </trkpt>
      <trkpt lat="46.5522" lon="5.71514">
        <ele>486</ele>
        <time>2020-07-29T18:50:46Z</time>
      </trkpt>
      <trkpt lat="46.55192" lon="5.71476">
        <ele>487</ele>
        <time>2020-07-29T18:50:53Z</time>
      </trkpt>
      <trkpt lat="46.55172" lon="5.71454">
        <ele>486</ele>
        <time>2020-07-29T18:50:57Z</time>
      </trkpt>
      <trkpt lat="46.55167" lon="5.7145">
        <ele>486</ele>
        <time>2020-07-29T18:50:58Z</time>
      </trkpt>
      <trkpt lat="46.55105" lon="5.71382">
        <ele>485</ele>
        <time>2020-07-29T18:51:12Z</time>
      </trkpt>
      <trkpt lat="46.55098" lon="5.71374">
        <ele>485</ele>
        <time>2020-07-29T18:51:13Z</time>
      </trkpt>
      <trkpt lat="46.5505" lon="5.71323">
        <ele>486</ele>
        <time>2020-07-29T18:51:24Z</time>
      </trkpt>
      <trkpt lat="46.55039" lon="5.7131">
        <ele>486</ele>
        <time>2020-07-29T18:51:27Z</time>
      </trkpt>
      <trkpt lat="46.55036" lon="5.71306">
        <ele>487</ele>
        <time>2020-07-29T18:51:27Z</time>
      </trkpt>
      <trkpt lat="46.55034" lon="5.71301">
        <ele>487</ele>
        <time>2020-07-29T18:51:28Z</time>
      </trkpt>
      <trkpt lat="46.55031" lon="5.71288">
        <ele>487</ele>
        <time>2020-07-29T18:51:30Z</time>
      </trkpt>
      <trkpt lat="46.5503" lon="5.71226">
        <ele>488</ele>
        <time>2020-07-29T18:51:37Z</time>
      </trkpt>
      <trkpt lat="46.55028" lon="5.71205">
        <ele>488</ele>
        <time>2020-07-29T18:51:40Z</time>
      </trkpt>
      <trkpt lat="46.55022" lon="5.71188">
        <ele>489</ele>
        <time>2020-07-29T18:51:42Z</time>
      </trkpt>
      <trkpt lat="46.55015" lon="5.71174">
        <ele>490</ele>
        <time>2020-07-29T18:51:44Z</time>
      </trkpt>
      <trkpt lat="46.55005" lon="5.7116">
        <ele>491</ele>
        <time>2020-07-29T18:51:47Z</time>
      </trkpt>
      <trkpt lat="46.54988" lon="5.71127">
        <ele>492</ele>
        <time>2020-07-29T18:51:52Z</time>
      </trkpt>
      <trkpt lat="46.54981" lon="5.71114">
        <ele>492</ele>
        <time>2020-07-29T18:51:54Z</time>
      </trkpt>
      <trkpt lat="46.54976" lon="5.71106">
        <ele>492</ele>
        <time>2020-07-29T18:51:55Z</time>
      </trkpt>
      <trkpt lat="46.54971" lon="5.71102">
        <ele>492</ele>
        <time>2020-07-29T18:51:56Z</time>
      </trkpt>
      <trkpt lat="46.54967" lon="5.711">
        <ele>493</ele>
        <time>2020-07-29T18:51:57Z</time>
      </trkpt>
      <trkpt lat="46.54954" lon="5.7101">
        <ele>489</ele>
        <time>2020-07-29T18:52:08Z</time>
      </trkpt>
      <trkpt lat="46.54955" lon="5.7098">
        <ele>487</ele>
        <time>2020-07-29T18:52:12Z</time>
      </trkpt>
      <trkpt lat="46.54946" lon="5.70978">
        <ele>487</ele>
        <time>2020-07-29T18:52:13Z</time>
      </trkpt>
      <trkpt lat="46.54907" lon="5.70986">
        <ele>489</ele>
        <time>2020-07-29T18:52:20Z</time>
      </trkpt>
      <trkpt lat="46.54896" lon="5.70982">
        <ele>489</ele>
        <time>2020-07-29T18:52:23Z</time>
      </trkpt>
      <trkpt lat="46.54886" lon="5.70979">
        <ele>489</ele>
        <time>2020-07-29T18:52:24Z</time>
      </trkpt>
      <trkpt lat="46.54886" lon="5.70966">
        <ele>488</ele>
        <time>2020-07-29T18:52:26Z</time>
      </trkpt>
      <trkpt lat="46.54879" lon="5.70925">
        <ele>486</ele>
        <time>2020-07-29T18:52:31Z</time>
      </trkpt>
      <trkpt lat="46.54878" lon="5.70903">
        <ele>485</ele>
        <time>2020-07-29T18:52:34Z</time>
      </trkpt>
      <trkpt lat="46.54879" lon="5.70838">
        <ele>481</ele>
        <time>2020-07-29T18:52:42Z</time>
      </trkpt>
      <trkpt lat="46.54881" lon="5.70803">
        <ele>480</ele>
        <time>2020-07-29T18:52:46Z</time>
      </trkpt>
      <trkpt lat="46.54881" lon="5.70785">
        <ele>480</ele>
        <time>2020-07-29T18:52:48Z</time>
      </trkpt>
      <trkpt lat="46.54879" lon="5.7077">
        <ele>479</ele>
        <time>2020-07-29T18:52:50Z</time>
      </trkpt>
      <trkpt lat="46.54874" lon="5.70756">
        <ele>479</ele>
        <time>2020-07-29T18:52:52Z</time>
      </trkpt>
      <trkpt lat="46.54852" lon="5.70709">
        <ele>477</ele>
        <time>2020-07-29T18:52:59Z</time>
      </trkpt>
      <trkpt lat="46.54839" lon="5.70675">
        <ele>475</ele>
        <time>2020-07-29T18:53:04Z</time>
      </trkpt>
      <trkpt lat="46.54819" lon="5.70614">
        <ele>474</ele>
        <time>2020-07-29T18:53:12Z</time>
      </trkpt>
      <trkpt lat="46.54809" lon="5.70592">
        <ele>474</ele>
        <time>2020-07-29T18:53:15Z</time>
      </trkpt>
      <trkpt lat="46.54792" lon="5.70564">
        <ele>474</ele>
        <time>2020-07-29T18:53:20Z</time>
      </trkpt>
      <trkpt lat="46.54766" lon="5.70526">
        <ele>473</ele>
        <time>2020-07-29T18:53:26Z</time>
      </trkpt>
      <trkpt lat="46.54753" lon="5.70496">
        <ele>473</ele>
        <time>2020-07-29T18:53:31Z</time>
      </trkpt>
      <trkpt lat="46.54734" lon="5.7041">
        <ele>472</ele>
        <time>2020-07-29T18:53:42Z</time>
      </trkpt>
      <trkpt lat="46.54721" lon="5.70378">
        <ele>472</ele>
        <time>2020-07-29T18:53:46Z</time>
      </trkpt>
      <trkpt lat="46.54699" lon="5.70331">
        <ele>473</ele>
        <time>2020-07-29T18:53:53Z</time>
      </trkpt>
      <trkpt lat="46.54681" lon="5.70299">
        <ele>472</ele>
        <time>2020-07-29T18:53:58Z</time>
      </trkpt>
      <trkpt lat="46.54669" lon="5.70285">
        <ele>471</ele>
        <time>2020-07-29T18:54:01Z</time>
      </trkpt>
      <trkpt lat="46.54656" lon="5.70274">
        <ele>471</ele>
        <time>2020-07-29T18:54:04Z</time>
      </trkpt>
      <trkpt lat="46.5457" lon="5.70224">
        <ele>469</ele>
        <time>2020-07-29T18:54:20Z</time>
      </trkpt>
      <trkpt lat="46.54512" lon="5.70213">
        <ele>468</ele>
        <time>2020-07-29T18:54:31Z</time>
      </trkpt>
      <trkpt lat="46.54502" lon="5.70207">
        <ele>468</ele>
        <time>2020-07-29T18:54:33Z</time>
      </trkpt>
      <trkpt lat="46.54495" lon="5.70199">
        <ele>468</ele>
        <time>2020-07-29T18:54:34Z</time>
      </trkpt>
      <trkpt lat="46.54486" lon="5.7018">
        <ele>467</ele>
        <time>2020-07-29T18:54:37Z</time>
      </trkpt>
      <trkpt lat="46.54468" lon="5.70185">
        <ele>467</ele>
        <time>2020-07-29T18:54:40Z</time>
      </trkpt>
      <trkpt lat="46.5438" lon="5.70202">
        <ele>468</ele>
        <time>2020-07-29T18:54:56Z</time>
      </trkpt>
      <trkpt lat="46.54322" lon="5.70224">
        <ele>469</ele>
        <time>2020-07-29T18:55:07Z</time>
      </trkpt>
      <trkpt lat="46.54303" lon="5.70231">
        <ele>469</ele>
        <time>2020-07-29T18:55:10Z</time>
      </trkpt>
      <trkpt lat="46.54239" lon="5.7024">
        <ele>470</ele>
        <time>2020-07-29T18:55:22Z</time>
      </trkpt>
      <trkpt lat="46.54166" lon="5.70258">
        <ele>472</ele>
        <time>2020-07-29T18:55:35Z</time>
      </trkpt>
      <trkpt lat="46.54133" lon="5.70273">
        <ele>471</ele>
        <time>2020-07-29T18:55:41Z</time>
      </trkpt>
      <trkpt lat="46.5402" lon="5.70337">
        <ele>473</ele>
        <time>2020-07-29T18:56:03Z</time>
      </trkpt>
      <trkpt lat="46.5396" lon="5.70362">
        <ele>473</ele>
        <time>2020-07-29T18:56:14Z</time>
      </trkpt>
      <trkpt lat="46.53935" lon="5.70368">
        <ele>473</ele>
        <time>2020-07-29T18:56:18Z</time>
      </trkpt>
      <trkpt lat="46.53883" lon="5.70374">
        <ele>474</ele>
        <time>2020-07-29T18:56:27Z</time>
      </trkpt>
      <trkpt lat="46.53835" lon="5.70383">
        <ele>476</ele>
        <time>2020-07-29T18:56:36Z</time>
      </trkpt>
      <trkpt lat="46.53792" lon="5.70394">
        <ele>476</ele>
        <time>2020-07-29T18:56:44Z</time>
      </trkpt>
      <trkpt lat="46.5377" lon="5.70406">
        <ele>476</ele>
        <time>2020-07-29T18:56:48Z</time>
      </trkpt>
      <trkpt lat="46.53749" lon="5.70429">
        <ele>476</ele>
        <time>2020-07-29T18:56:53Z</time>
      </trkpt>
      <trkpt lat="46.53604" lon="5.7064">
        <ele>484</ele>
        <time>2020-07-29T18:57:29Z</time>
      </trkpt>
      <trkpt lat="46.53595" lon="5.70651">
        <ele>484</ele>
        <time>2020-07-29T18:57:31Z</time>
      </trkpt>
      <trkpt lat="46.53588" lon="5.70656">
        <ele>485</ele>
        <time>2020-07-29T18:57:33Z</time>
      </trkpt>
      <trkpt lat="46.53557" lon="5.7067">
        <ele>489</ele>
        <time>2020-07-29T18:57:38Z</time>
      </trkpt>
      <trkpt lat="46.5354" lon="5.70669">
        <ele>492</ele>
        <time>2020-07-29T18:57:41Z</time>
      </trkpt>
      <trkpt lat="46.53531" lon="5.70665">
        <ele>493</ele>
        <time>2020-07-29T18:57:43Z</time>
      </trkpt>
      <trkpt lat="46.53506" lon="5.70647">
        <ele>494</ele>
        <time>2020-07-29T18:57:48Z</time>
      </trkpt>
      <trkpt lat="46.53455" lon="5.70628">
        <ele>499</ele>
        <time>2020-07-29T18:57:57Z</time>
      </trkpt>
      <trkpt lat="46.53448" lon="5.70628">
        <ele>500</ele>
        <time>2020-07-29T18:57:59Z</time>
      </trkpt>
      <trkpt lat="46.53442" lon="5.7063">
        <ele>501</ele>
        <time>2020-07-29T18:58:00Z</time>
      </trkpt>
      <trkpt lat="46.53435" lon="5.70636">
        <ele>503</ele>
        <time>2020-07-29T18:58:01Z</time>
      </trkpt>
      <trkpt lat="46.53423" lon="5.70659">
        <ele>508</ele>
        <time>2020-07-29T18:58:05Z</time>
      </trkpt>
      <trkpt lat="46.53417" lon="5.70667">
        <ele>510</ele>
        <time>2020-07-29T18:58:06Z</time>
      </trkpt>
      <trkpt lat="46.53404" lon="5.70671">
        <ele>511</ele>
        <time>2020-07-29T18:58:09Z</time>
      </trkpt>
      <trkpt lat="46.53393" lon="5.70668">
        <ele>511</ele>
        <time>2020-07-29T18:58:11Z</time>
      </trkpt>
      <trkpt lat="46.53373" lon="5.70647">
        <ele>508</ele>
        <time>2020-07-29T18:58:15Z</time>
      </trkpt>
      <trkpt lat="46.5336" lon="5.70638">
        <ele>507</ele>
        <time>2020-07-29T18:58:18Z</time>
      </trkpt>
      <trkpt lat="46.53334" lon="5.70629">
        <ele>507</ele>
        <time>2020-07-29T18:58:22Z</time>
      </trkpt>
      <trkpt lat="46.53309" lon="5.70628">
        <ele>509</ele>
        <time>2020-07-29T18:58:27Z</time>
      </trkpt>
      <trkpt lat="46.53295" lon="5.70635">
        <ele>511</ele>
        <time>2020-07-29T18:58:29Z</time>
      </trkpt>
      <trkpt lat="46.53283" lon="5.7065">
        <ele>513</ele>
        <time>2020-07-29T18:58:32Z</time>
      </trkpt>
      <trkpt lat="46.5328" lon="5.70662">
        <ele>514</ele>
        <time>2020-07-29T18:58:34Z</time>
      </trkpt>
      <trkpt lat="46.53277" lon="5.7069">
        <ele>517</ele>
        <time>2020-07-29T18:58:37Z</time>
      </trkpt>
      <trkpt lat="46.53273" lon="5.70701">
        <ele>518</ele>
        <time>2020-07-29T18:58:39Z</time>
      </trkpt>
      <trkpt lat="46.53257" lon="5.70734">
        <ele>523</ele>
        <time>2020-07-29T18:58:44Z</time>
      </trkpt>
      <trkpt lat="46.53253" lon="5.70752">
        <ele>525</ele>
        <time>2020-07-29T18:58:46Z</time>
      </trkpt>
      <trkpt lat="46.53256" lon="5.70797">
        <ele>527</ele>
        <time>2020-07-29T18:58:52Z</time>
      </trkpt>
      <trkpt lat="46.5326" lon="5.70854">
        <ele>529</ele>
        <time>2020-07-29T18:58:59Z</time>
      </trkpt>
      <trkpt lat="46.5326" lon="5.70897">
        <ele>531</ele>
        <time>2020-07-29T18:59:04Z</time>
      </trkpt>
      <trkpt lat="46.53256" lon="5.70978">
        <ele>535</ele>
        <time>2020-07-29T18:59:14Z</time>
      </trkpt>
      <trkpt lat="46.53265" lon="5.7108">
        <ele>539</ele>
        <time>2020-07-29T18:59:26Z</time>
      </trkpt>
      <trkpt lat="46.53269" lon="5.71134">
        <ele>538</ele>
        <time>2020-07-29T18:59:33Z</time>
      </trkpt>
      <trkpt lat="46.53265" lon="5.71146">
        <ele>538</ele>
        <time>2020-07-29T18:59:35Z</time>
      </trkpt>
      <trkpt lat="46.53257" lon="5.71159">
        <ele>538</ele>
        <time>2020-07-29T18:59:37Z</time>
      </trkpt>
      <trkpt lat="46.53246" lon="5.71199">
        <ele>539</ele>
        <time>2020-07-29T18:59:42Z</time>
      </trkpt>
      <trkpt lat="46.53245" lon="5.71213">
        <ele>538</ele>
        <time>2020-07-29T18:59:44Z</time>
      </trkpt>
      <trkpt lat="46.53245" lon="5.71269">
        <ele>538</ele>
        <time>2020-07-29T18:59:51Z</time>
      </trkpt>
      <trkpt lat="46.53231" lon="5.71274">
        <ele>538</ele>
        <time>2020-07-29T18:59:53Z</time>
      </trkpt>
      <trkpt lat="46.53205" lon="5.71297">
        <ele>538</ele>
        <time>2020-07-29T18:59:59Z</time>
      </trkpt>
      <trkpt lat="46.53202" lon="5.71302">
        <ele>538</ele>
        <time>2020-07-29T18:59:59Z</time>
      </trkpt>
      <trkpt lat="46.53146" lon="5.71479">
        <ele>542</ele>
        <time>2020-07-29T19:00:23Z</time>
      </trkpt>
      <trkpt lat="46.53135" lon="5.71526">
        <ele>543</ele>
        <time>2020-07-29T19:00:29Z</time>
      </trkpt>
      <trkpt lat="46.5313" lon="5.71569">
        <ele>544</ele>
        <time>2020-07-29T19:00:35Z</time>
      </trkpt>
      <trkpt lat="46.5313" lon="5.71594">
        <ele>544</ele>
        <time>2020-07-29T19:00:38Z</time>
      </trkpt>
      <trkpt lat="46.53135" lon="5.71634">
        <ele>545</ele>
        <time>2020-07-29T19:00:43Z</time>
      </trkpt>
      <trkpt lat="46.53162" lon="5.71781">
        <ele>550</ele>
        <time>2020-07-29T19:01:01Z</time>
      </trkpt>
      <trkpt lat="46.53164" lon="5.71811">
        <ele>552</ele>
        <time>2020-07-29T19:01:05Z</time>
      </trkpt>
      <trkpt lat="46.53164" lon="5.71833">
        <ele>553</ele>
        <time>2020-07-29T19:01:08Z</time>
      </trkpt>
      <trkpt lat="46.53161" lon="5.71857">
        <ele>553</ele>
        <time>2020-07-29T19:01:11Z</time>
      </trkpt>
      <trkpt lat="46.53149" lon="5.7193">
        <ele>553</ele>
        <time>2020-07-29T19:01:20Z</time>
      </trkpt>
      <trkpt lat="46.53149" lon="5.71964">
        <ele>552</ele>
        <time>2020-07-29T19:01:24Z</time>
      </trkpt>
      <trkpt lat="46.53152" lon="5.71985">
        <ele>552</ele>
        <time>2020-07-29T19:01:27Z</time>
      </trkpt>
      <trkpt lat="46.53178" lon="5.72101">
        <ele>551</ele>
        <time>2020-07-29T19:01:42Z</time>
      </trkpt>
      <trkpt lat="46.53207" lon="5.72214">
        <ele>551</ele>
        <time>2020-07-29T19:01:56Z</time>
      </trkpt>
      <trkpt lat="46.5323" lon="5.72317">
        <ele>553</ele>
        <time>2020-07-29T19:02:10Z</time>
      </trkpt>
      <trkpt lat="46.53235" lon="5.72353">
        <ele>553</ele>
        <time>2020-07-29T19:02:14Z</time>
      </trkpt>
      <trkpt lat="46.53238" lon="5.72432">
        <ele>553</ele>
        <time>2020-07-29T19:02:24Z</time>
      </trkpt>
      <trkpt lat="46.53241" lon="5.72477">
        <ele>553</ele>
        <time>2020-07-29T19:02:29Z</time>
      </trkpt>
      <trkpt lat="46.53246" lon="5.72514">
        <ele>553</ele>
        <time>2020-07-29T19:02:34Z</time>
      </trkpt>
      <trkpt lat="46.53261" lon="5.72595">
        <ele>554</ele>
        <time>2020-07-29T19:02:44Z</time>
      </trkpt>
      <trkpt lat="46.53267" lon="5.72618">
        <ele>555</ele>
        <time>2020-07-29T19:02:47Z</time>
      </trkpt>
      <trkpt lat="46.5336" lon="5.72831">
        <ele>559</ele>
        <time>2020-07-29T19:03:18Z</time>
      </trkpt>
      <trkpt lat="46.53389" lon="5.72881">
        <ele>561</ele>
        <time>2020-07-29T19:03:26Z</time>
      </trkpt>
      <trkpt lat="46.53454" lon="5.72947">
        <ele>564</ele>
        <time>2020-07-29T19:03:40Z</time>
      </trkpt>
      <trkpt lat="46.53468" lon="5.72964">
        <ele>565</ele>
        <time>2020-07-29T19:03:43Z</time>
      </trkpt>
      <trkpt lat="46.53479" lon="5.7298">
        <ele>565</ele>
        <time>2020-07-29T19:03:46Z</time>
      </trkpt>
      <trkpt lat="46.53487" lon="5.73001">
        <ele>566</ele>
        <time>2020-07-29T19:03:49Z</time>
      </trkpt>
      <trkpt lat="46.53491" lon="5.73026">
        <ele>567</ele>
        <time>2020-07-29T19:03:52Z</time>
      </trkpt>
      <trkpt lat="46.53493" lon="5.73051">
        <ele>567</ele>
        <time>2020-07-29T19:03:55Z</time>
      </trkpt>
      <trkpt lat="46.53493" lon="5.73076">
        <ele>567</ele>
        <time>2020-07-29T19:03:58Z</time>
      </trkpt>
      <trkpt lat="46.53491" lon="5.7309">
        <ele>567</ele>
        <time>2020-07-29T19:04:00Z</time>
      </trkpt>
      <trkpt lat="46.53485" lon="5.73106">
        <ele>568</ele>
        <time>2020-07-29T19:04:02Z</time>
      </trkpt>
      <trkpt lat="46.53475" lon="5.73126">
        <ele>568</ele>
        <time>2020-07-29T19:04:05Z</time>
      </trkpt>
      <trkpt lat="46.53449" lon="5.73166">
        <ele>567</ele>
        <time>2020-07-29T19:04:12Z</time>
      </trkpt>
      <trkpt lat="46.53442" lon="5.7318">
        <ele>568</ele>
        <time>2020-07-29T19:04:14Z</time>
      </trkpt>
      <trkpt lat="46.53438" lon="5.732">
        <ele>568</ele>
        <time>2020-07-29T19:04:17Z</time>
      </trkpt>
      <trkpt lat="46.53439" lon="5.73245">
        <ele>568</ele>
        <time>2020-07-29T19:04:22Z</time>
      </trkpt>
      <trkpt lat="46.53438" lon="5.73261">
        <ele>568</ele>
        <time>2020-07-29T19:04:24Z</time>
      </trkpt>
      <trkpt lat="46.53421" lon="5.73344">
        <ele>567</ele>
        <time>2020-07-29T19:04:35Z</time>
      </trkpt>
      <trkpt lat="46.53415" lon="5.73408">
        <ele>568</ele>
        <time>2020-07-29T19:04:43Z</time>
      </trkpt>
      <trkpt lat="46.53412" lon="5.73423">
        <ele>568</ele>
        <time>2020-07-29T19:04:45Z</time>
      </trkpt>
      <trkpt lat="46.53399" lon="5.73458">
        <ele>568</ele>
        <time>2020-07-29T19:04:50Z</time>
      </trkpt>
      <trkpt lat="46.53398" lon="5.73478">
        <ele>569</ele>
        <time>2020-07-29T19:04:52Z</time>
      </trkpt>
      <trkpt lat="46.53377" lon="5.7349">
        <ele>568</ele>
        <time>2020-07-29T19:04:56Z</time>
      </trkpt>
      <trkpt lat="46.53351" lon="5.73501">
        <ele>568</ele>
        <time>2020-07-29T19:05:01Z</time>
      </trkpt>
      <trkpt lat="46.53342" lon="5.73513">
        <ele>568</ele>
        <time>2020-07-29T19:05:03Z</time>
      </trkpt>
      <trkpt lat="46.53335" lon="5.7351">
        <ele>568</ele>
        <time>2020-07-29T19:05:04Z</time>
      </trkpt>
      <trkpt lat="46.5325" lon="5.73534">
        <ele>569</ele>
        <time>2020-07-29T19:05:20Z</time>
      </trkpt>
      <trkpt lat="46.53233" lon="5.73532">
        <ele>568</ele>
        <time>2020-07-29T19:05:23Z</time>
      </trkpt>
      <trkpt lat="46.53198" lon="5.73515">
        <ele>567</ele>
        <time>2020-07-29T19:05:29Z</time>
      </trkpt>
      <trkpt lat="46.53168" lon="5.73516">
        <ele>567</ele>
        <time>2020-07-29T19:05:35Z</time>
      </trkpt>
      <trkpt lat="46.53047" lon="5.73555">
        <ele>570</ele>
        <time>2020-07-29T19:05:57Z</time>
      </trkpt>
      <trkpt lat="46.53021" lon="5.73571">
        <ele>572</ele>
        <time>2020-07-29T19:06:02Z</time>
      </trkpt>
      <trkpt lat="46.52984" lon="5.73603">
        <ele>574</ele>
        <time>2020-07-29T19:06:09Z</time>
      </trkpt>
      <trkpt lat="46.5292" lon="5.73639">
        <ele>577</ele>
        <time>2020-07-29T19:06:22Z</time>
      </trkpt>
      <trkpt lat="46.5291" lon="5.73647">
        <ele>577</ele>
        <time>2020-07-29T19:06:24Z</time>
      </trkpt>
      <trkpt lat="46.52807" lon="5.73752">
        <ele>577</ele>
        <time>2020-07-29T19:06:46Z</time>
      </trkpt>
      <trkpt lat="46.52741" lon="5.73812">
        <ele>580</ele>
        <time>2020-07-29T19:07:00Z</time>
      </trkpt>
      <trkpt lat="46.52691" lon="5.73874">
        <ele>579</ele>
        <time>2020-07-29T19:07:12Z</time>
      </trkpt>
      <trkpt lat="46.52651" lon="5.73915">
        <ele>578</ele>
        <time>2020-07-29T19:07:20Z</time>
      </trkpt>
      <trkpt lat="46.52616" lon="5.73971">
        <ele>580</ele>
        <time>2020-07-29T19:07:30Z</time>
      </trkpt>
      <trkpt lat="46.52581" lon="5.74041">
        <ele>583</ele>
        <time>2020-07-29T19:07:40Z</time>
      </trkpt>
      <trkpt lat="46.52566" lon="5.74079">
        <ele>584</ele>
        <time>2020-07-29T19:07:46Z</time>
      </trkpt>
      <trkpt lat="46.52545" lon="5.74148">
        <ele>584</ele>
        <time>2020-07-29T19:07:55Z</time>
      </trkpt>
      <trkpt lat="46.52514" lon="5.74234">
        <ele>583</ele>
        <time>2020-07-29T19:08:07Z</time>
      </trkpt>
      <trkpt lat="46.52496" lon="5.74294">
        <ele>583</ele>
        <time>2020-07-29T19:08:15Z</time>
      </trkpt>
      <trkpt lat="46.52453" lon="5.74407">
        <ele>583</ele>
        <time>2020-07-29T19:08:31Z</time>
      </trkpt>
      <trkpt lat="46.52432" lon="5.74448">
        <ele>583</ele>
        <time>2020-07-29T19:08:37Z</time>
      </trkpt>
      <trkpt lat="46.52418" lon="5.74467">
        <ele>583</ele>
        <time>2020-07-29T19:08:40Z</time>
      </trkpt>
      <trkpt lat="46.52372" lon="5.74523">
        <ele>585</ele>
        <time>2020-07-29T19:08:51Z</time>
      </trkpt>
      <trkpt lat="46.52362" lon="5.74539">
        <ele>586</ele>
        <time>2020-07-29T19:08:53Z</time>
      </trkpt>
      <trkpt lat="46.52355" lon="5.74559">
        <ele>587</ele>
        <time>2020-07-29T19:08:56Z</time>
      </trkpt>
      <trkpt lat="46.52346" lon="5.74609">
        <ele>588</ele>
        <time>2020-07-29T19:09:03Z</time>
      </trkpt>
      <trkpt lat="46.52341" lon="5.74626">
        <ele>587</ele>
        <time>2020-07-29T19:09:05Z</time>
      </trkpt>
      <trkpt lat="46.52328" lon="5.74653">
        <ele>587</ele>
        <time>2020-07-29T19:09:09Z</time>
      </trkpt>
      <trkpt lat="46.52236" lon="5.74823">
        <ele>579</ele>
        <time>2020-07-29T19:09:35Z</time>
      </trkpt>
      <trkpt lat="46.52216" lon="5.74852">
        <ele>580</ele>
        <time>2020-07-29T19:09:40Z</time>
      </trkpt>
      <trkpt lat="46.52205" lon="5.74861">
        <ele>580</ele>
        <time>2020-07-29T19:09:43Z</time>
      </trkpt>
      <trkpt lat="46.52155" lon="5.74886">
        <ele>581</ele>
        <time>2020-07-29T19:09:52Z</time>
      </trkpt>
      <trkpt lat="46.52146" lon="5.74896">
        <ele>581</ele>
        <time>2020-07-29T19:09:54Z</time>
      </trkpt>
      <trkpt lat="46.52138" lon="5.74915">
        <ele>582</ele>
        <time>2020-07-29T19:09:57Z</time>
      </trkpt>
      <trkpt lat="46.52135" lon="5.74949">
        <ele>580</ele>
        <time>2020-07-29T19:10:01Z</time>
      </trkpt>
      <trkpt lat="46.52137" lon="5.74965">
        <ele>580</ele>
        <time>2020-07-29T19:10:03Z</time>
      </trkpt>
      <trkpt lat="46.52143" lon="5.74978">
        <ele>579</ele>
        <time>2020-07-29T19:10:05Z</time>
      </trkpt>
      <trkpt lat="46.52158" lon="5.74995">
        <ele>579</ele>
        <time>2020-07-29T19:10:08Z</time>
      </trkpt>
      <trkpt lat="46.52218" lon="5.75017">
        <ele>581</ele>
        <time>2020-07-29T19:10:19Z</time>
      </trkpt>
      <trkpt lat="46.5223" lon="5.75026">
        <ele>581</ele>
        <time>2020-07-29T19:10:22Z</time>
      </trkpt>
      <trkpt lat="46.52245" lon="5.75043">
        <ele>580</ele>
        <time>2020-07-29T19:10:25Z</time>
      </trkpt>
      <trkpt lat="46.52259" lon="5.75064">
        <ele>579</ele>
        <time>2020-07-29T19:10:29Z</time>
      </trkpt>
      <trkpt lat="46.52268" lon="5.75083">
        <ele>579</ele>
        <time>2020-07-29T19:10:31Z</time>
      </trkpt>
      <trkpt lat="46.52273" lon="5.75103">
        <ele>580</ele>
        <time>2020-07-29T19:10:34Z</time>
      </trkpt>
      <trkpt lat="46.52275" lon="5.75117">
        <ele>580</ele>
        <time>2020-07-29T19:10:36Z</time>
      </trkpt>
      <trkpt lat="46.52268" lon="5.7516">
        <ele>581</ele>
        <time>2020-07-29T19:10:41Z</time>
      </trkpt>
      <trkpt lat="46.5226" lon="5.75184">
        <ele>584</ele>
        <time>2020-07-29T19:10:44Z</time>
      </trkpt>
      <trkpt lat="46.52241" lon="5.75166">
        <ele>584</ele>
        <time>2020-07-29T19:10:49Z</time>
      </trkpt>
      <trkpt lat="46.52222" lon="5.75153">
        <ele>584</ele>
        <time>2020-07-29T19:10:52Z</time>
      </trkpt>
      <trkpt lat="46.52193" lon="5.75136">
        <ele>584</ele>
        <time>2020-07-29T19:10:58Z</time>
      </trkpt>
      <trkpt lat="46.5216" lon="5.75121">
        <ele>584</ele>
        <time>2020-07-29T19:11:04Z</time>
      </trkpt>
      <trkpt lat="46.52133" lon="5.75107">
        <ele>584</ele>
        <time>2020-07-29T19:11:09Z</time>
      </trkpt>
      <trkpt lat="46.5211" lon="5.75089">
        <ele>584</ele>
        <time>2020-07-29T19:11:14Z</time>
      </trkpt>
      <trkpt lat="46.52089" lon="5.75069">
        <ele>583</ele>
        <time>2020-07-29T19:11:18Z</time>
      </trkpt>
      <trkpt lat="46.52049" lon="5.7502">
        <ele>579</ele>
        <time>2020-07-29T19:11:28Z</time>
      </trkpt>
      <trkpt lat="46.5203" lon="5.75">
        <ele>576</ele>
        <time>2020-07-29T19:11:32Z</time>
      </trkpt>
      <trkpt lat="46.52008" lon="5.74981">
        <ele>576</ele>
        <time>2020-07-29T19:11:36Z</time>
      </trkpt>
      <trkpt lat="46.5199" lon="5.74969">
        <ele>575</ele>
        <time>2020-07-29T19:11:40Z</time>
      </trkpt>
      <trkpt lat="46.51968" lon="5.74958">
        <ele>576</ele>
        <time>2020-07-29T19:11:44Z</time>
      </trkpt>
      <trkpt lat="46.51864" lon="5.74918">
        <ele>574</ele>
        <time>2020-07-29T19:12:03Z</time>
      </trkpt>
      <trkpt lat="46.5181" lon="5.749">
        <ele>575</ele>
        <time>2020-07-29T19:12:13Z</time>
      </trkpt>
      <trkpt lat="46.51771" lon="5.74889">
        <ele>577</ele>
        <time>2020-07-29T19:12:20Z</time>
      </trkpt>
      <trkpt lat="46.51748" lon="5.74885">
        <ele>579</ele>
        <time>2020-07-29T19:12:24Z</time>
      </trkpt>
      <trkpt lat="46.51713" lon="5.7488">
        <ele>581</ele>
        <time>2020-07-29T19:12:30Z</time>
      </trkpt>
      <trkpt lat="46.51667" lon="5.7488">
        <ele>585</ele>
        <time>2020-07-29T19:12:39Z</time>
      </trkpt>
      <trkpt lat="46.51624" lon="5.74885">
        <ele>583</ele>
        <time>2020-07-29T19:12:46Z</time>
      </trkpt>
      <trkpt lat="46.51412" lon="5.74947">
        <ele>586</ele>
        <time>2020-07-29T19:13:25Z</time>
      </trkpt>
      <trkpt lat="46.51393" lon="5.74947">
        <ele>588</ele>
        <time>2020-07-29T19:13:28Z</time>
      </trkpt>
      <trkpt lat="46.51375" lon="5.74941">
        <ele>588</ele>
        <time>2020-07-29T19:13:31Z</time>
      </trkpt>
      <trkpt lat="46.51318" lon="5.74911">
        <ele>579</ele>
        <time>2020-07-29T19:13:42Z</time>
      </trkpt>
      <trkpt lat="46.513" lon="5.74906">
        <ele>578</ele>
        <time>2020-07-29T19:13:45Z</time>
      </trkpt>
      <trkpt lat="46.51286" lon="5.74906">
        <ele>578</ele>
        <time>2020-07-29T19:13:48Z</time>
      </trkpt>
      <trkpt lat="46.51269" lon="5.7491">
        <ele>580</ele>
        <time>2020-07-29T19:13:51Z</time>
      </trkpt>
      <trkpt lat="46.51228" lon="5.74927">
        <ele>587</ele>
        <time>2020-07-29T19:13:59Z</time>
      </trkpt>
      <trkpt lat="46.51207" lon="5.7493">
        <ele>588</ele>
        <time>2020-07-29T19:14:02Z</time>
      </trkpt>
      <trkpt lat="46.51146" lon="5.74932">
        <ele>590</ele>
        <time>2020-07-29T19:14:13Z</time>
      </trkpt>
      <trkpt lat="46.51125" lon="5.74929">
        <ele>590</ele>
        <time>2020-07-29T19:14:17Z</time>
      </trkpt>
      <trkpt lat="46.51103" lon="5.74918">
        <ele>587</ele>
        <time>2020-07-29T19:14:21Z</time>
      </trkpt>
      <trkpt lat="46.51059" lon="5.74888">
        <ele>584</ele>
        <time>2020-07-29T19:14:30Z</time>
      </trkpt>
      <trkpt lat="46.51016" lon="5.74862">
        <ele>582</ele>
        <time>2020-07-29T19:14:38Z</time>
      </trkpt>
      <trkpt lat="46.50942" lon="5.74824">
        <ele>581</ele>
        <time>2020-07-29T19:14:52Z</time>
      </trkpt>
      <trkpt lat="46.50921" lon="5.74805">
        <ele>582</ele>
        <time>2020-07-29T19:14:56Z</time>
      </trkpt>
      <trkpt lat="46.50871" lon="5.74753">
        <ele>579</ele>
        <time>2020-07-29T19:15:07Z</time>
      </trkpt>
      <trkpt lat="46.50847" lon="5.74726">
        <ele>579</ele>
        <time>2020-07-29T19:15:13Z</time>
      </trkpt>
      <trkpt lat="46.50835" lon="5.74709">
        <ele>579</ele>
        <time>2020-07-29T19:15:16Z</time>
      </trkpt>
      <trkpt lat="46.50824" lon="5.74689">
        <ele>579</ele>
        <time>2020-07-29T19:15:19Z</time>
      </trkpt>
      <trkpt lat="46.50809" lon="5.74654">
        <ele>579</ele>
        <time>2020-07-29T19:15:24Z</time>
      </trkpt>
      <trkpt lat="46.50701" lon="5.74372">
        <ele>572</ele>
        <time>2020-07-29T19:16:03Z</time>
      </trkpt>
      <trkpt lat="46.5069" lon="5.74351">
        <ele>571</ele>
        <time>2020-07-29T19:16:07Z</time>
      </trkpt>
      <trkpt lat="46.50679" lon="5.74338">
        <ele>570</ele>
        <time>2020-07-29T19:16:09Z</time>
      </trkpt>
      <trkpt lat="46.50669" lon="5.74328">
        <ele>569</ele>
        <time>2020-07-29T19:16:11Z</time>
      </trkpt>
      <trkpt lat="46.50655" lon="5.7432">
        <ele>567</ele>
        <time>2020-07-29T19:16:14Z</time>
      </trkpt>
      <trkpt lat="46.50633" lon="5.74312">
        <ele>565</ele>
        <time>2020-07-29T19:16:18Z</time>
      </trkpt>
      <trkpt lat="46.50558" lon="5.74295">
        <ele>561</ele>
        <time>2020-07-29T19:16:31Z</time>
      </trkpt>
      <trkpt lat="46.50529" lon="5.74283">
        <ele>561</ele>
        <time>2020-07-29T19:16:37Z</time>
      </trkpt>
      <trkpt lat="46.50506" lon="5.74265">
        <ele>560</ele>
        <time>2020-07-29T19:16:42Z</time>
      </trkpt>
      <trkpt lat="46.50498" lon="5.74257">
        <ele>560</ele>
        <time>2020-07-29T19:16:43Z</time>
      </trkpt>
      <trkpt lat="46.5048" lon="5.74229">
        <ele>560</ele>
        <time>2020-07-29T19:16:48Z</time>
      </trkpt>
      <trkpt lat="46.50469" lon="5.74207">
        <ele>560</ele>
        <time>2020-07-29T19:16:51Z</time>
      </trkpt>
      <trkpt lat="46.50376" lon="5.73908">
        <ele>553</ele>
        <time>2020-07-29T19:17:31Z</time>
      </trkpt>
      <trkpt lat="46.50346" lon="5.73801">
        <ele>552</ele>
        <time>2020-07-29T19:17:46Z</time>
      </trkpt>
      <trkpt lat="46.50298" lon="5.73607">
        <ele>566</ele>
        <time>2020-07-29T19:18:11Z</time>
      </trkpt>
      <trkpt lat="46.50239" lon="5.73408">
        <ele>570</ele>
        <time>2020-07-29T19:18:37Z</time>
      </trkpt>
      <trkpt lat="46.50231" lon="5.73371">
        <ele>572</ele>
        <time>2020-07-29T19:18:42Z</time>
      </trkpt>
      <trkpt lat="46.50228" lon="5.73352">
        <ele>573</ele>
        <time>2020-07-29T19:18:45Z</time>
      </trkpt>
      <trkpt lat="46.50217" lon="5.73163">
        <ele>578</ele>
        <time>2020-07-29T19:19:08Z</time>
      </trkpt>
      <trkpt lat="46.50212" lon="5.73122">
        <ele>577</ele>
        <time>2020-07-29T19:19:13Z</time>
      </trkpt>
      <trkpt lat="46.50207" lon="5.73094">
        <ele>577</ele>
        <time>2020-07-29T19:19:16Z</time>
      </trkpt>
      <trkpt lat="46.50197" lon="5.73065">
        <ele>578</ele>
        <time>2020-07-29T19:19:20Z</time>
      </trkpt>
      <trkpt lat="46.50188" lon="5.73043">
        <ele>578</ele>
        <time>2020-07-29T19:19:23Z</time>
      </trkpt>
      <trkpt lat="46.50175" lon="5.73017">
        <ele>579</ele>
        <time>2020-07-29T19:19:27Z</time>
      </trkpt>
      <trkpt lat="46.50163" lon="5.72998">
        <ele>579</ele>
        <time>2020-07-29T19:19:31Z</time>
      </trkpt>
      <trkpt lat="46.49953" lon="5.72734">
        <ele>585</ele>
        <time>2020-07-29T19:20:20Z</time>
      </trkpt>
      <trkpt lat="46.49913" lon="5.72688">
        <ele>586</ele>
        <time>2020-07-29T19:20:29Z</time>
      </trkpt>
      <trkpt lat="46.49884" lon="5.7266">
        <ele>586</ele>
        <time>2020-07-29T19:20:35Z</time>
      </trkpt>
      <trkpt lat="46.49881" lon="5.72654">
        <ele>586</ele>
        <time>2020-07-29T19:20:36Z</time>
      </trkpt>
    </trkseg>
  </trk>
</gpx>